[[{"header":{"parameterUnit":"m.s-1","parameterCategory":1,"la1":30.6,"la2":28.766,"lo1":-90.7593,"lo2":-88.6598,"dy":0.0162,"dx":0.0183,"nx":116,"ny":114,"refTime":"2023-04-15T06:00:00:Z","depth":0,"parameterNumber":2,"parameterNumberName":"U-component_of_WINDS"},"data":[0.0,0.0,0.0,0.0,0.0,0.0,0.0,0.0,0.0,0.0,0.0,0.0,0.0,0.0,0.0,0.0,0.0,0.0,0.0,0.0,0.0,0.0,0.0,0.0,0.0,0.0,0.0,0.0,0.0,0.0,0.0,0.0,0.0,0.0,0.0,0.0,0.0,0.0,0.0,0.0,0.0,0.0,0.0,0.0,0.0,0.0,0.0,0.0,0.0,0.0,0.0,0.0,0.0,0.0,0.0,0.0,0.0,0.0,0.0,0.0,0.0,0.0,0.0,0.0,0.0,0.0,0.0,0.0,0.0,0.0,0.0,0.0,0.0,0.0,0.0,0.0,0.0,0.0,0.0,0.0,0.0,0.0,0.0,0.0,0.0,0.0,0.0,0.0,0.0,0.0,0.0,0.0,0.0,0.0,0.0,0.0,0.0,0.0,0.0,0.0,0.0,0.0,0.0,0.0,0.0,0.0,0.0,0.0,0.0,0.0,0.0,0.0,0.0,0.0,0.0,0.0,0.0,0.0,0.0,0.0,0.0,0.0,0.0,0.0,0.0,0.0,0.0,0.0,0.0,0.0,0.0,0.0,0.0,0.0,0.0,0.0,0.0,0.0,0.0,0.0,0.0,0.0,0.0,0.0,0.0,0.0,0.0,0.0,0.0,0.0,0.0,0.0,0.0,0.0,0.0,0.0,0.0,0.0,0.0,0.0,0.0,0.0,0.0,0.0,0.0,0.0,0.0,0.0,0.0,0.0,0.0,0.0,0.0,0.0,0.0,0.0,0.0,0.0,0.0,0.0,0.0,0.0,0.0,0.0,0.0,0.0,0.0,0.0,0.0,0.0,0.0,0.0,0.0,0.0,0.0,0.0,0.0,0.0,0.0,0.0,0.0,0.0,0.0,0.0,0.0,0.0,0.0,0.0,0.0,0.0,0.0,0.0,0.0,0.0,0.0,0.0,0.0,0.0,0.0,0.0,0.0,0.0,0.0,0.0,0.0,0.0,0.0,0.0,0.0,0.0,0.0,0.0,0.0,0.0,0.0,0.0,0.0,0.0,0.0,0.0,0.0,0.0,0.0,0.0,0.0,0.0,0.0,0.0,0.0,0.0,0.0,0.0,0.0,0.0,0.0,0.0,0.0,0.0,0.0,0.0,0.0,0.0,0.0,0.0,0.0,0.0,0.0,0.0,0.0,0.0,0.0,0.0,0.0,0.0,0.0,0.0,0.0,0.0,0.0,0.0,0.0,0.0,0.0,0.0,0.0,0.0,0.0,0.0,0.0,0.0,0.0,0.0,0.0,0.0,0.0,0.0,0.0,0.0,0.0,0.0,0.0,0.0,0.0,0.0,0.0,0.0,0.0,0.0,0.0,0.0,0.0,0.0,0.0,0.0,0.0,0.0,0.0,0.0,0.0,0.0,0.0,0.0,0.0,0.0,0.0,0.0,0.0,0.0,0.0,0.0,0.0,0.0,0.0,0.0,0.0,0.0,0.0,0.0,0.0,0.0,0.0,0.0,0.0,0.0,0.0,0.0,0.0,0.0,0.0,0.0,0.0,0.0,0.0,0.0,0.0,0.0,0.0,0.0,0.0,0.0,0.0,0.0,0.0,0.0,0.0,0.0,0.0,0.0,0.0,0.0,0.0,0.0,0.0,0.0,0.0,0.0,0.0,0.0,0.0,0.0,0.0,0.0,0.0,0.0,0.0,0.0,0.0,0.0,0.0,0.0,0.0,0.0,0.0,0.0,0.0,0.0,0.0,0.0,0.0,0.0,0.0,0.0,0.0,0.0,0.0,0.0,0.0,0.0,0.0,0.0,0.0,0.0,0.0,0.0,0.0,0.0,0.0,0.0,0.0,0.0,0.0,0.0,0.0,0.0,0.0,0.0,0.0,0.0,0.0,0.0,0.0,0.0,0.0,0.0,0.0,0.0,0.0,0.0,0.0,0.0,0.0,0.0,0.0,0.0,0.0,0.0,0.0,0.0,0.0,0.0,0.0,0.0,0.0,0.0,0.0,0.0,0.0,0.0,0.0,0.0,0.0,0.0,0.0,0.0,0.0,0.0,0.0,0.0,0.0,0.0,0.0,0.0,0.0,0.0,0.0,0.0,0.0,0.0,0.0,0.0,0.0,0.0,0.0,0.0,0.0,0.0,0.0,0.0,0.0,0.0,0.0,0.0,0.0,0.0,0.0,0.0,0.0,0.0,0.0,0.0,0.0,0.0,0.0,0.0,0.0,0.0,0.0,0.0,0.0,0.0,0.0,0.0,0.0,0.0,0.0,0.0,0.0,0.0,0.0,0.0,0.0,0.0,0.0,0.0,0.0,0.0,0.0,0.0,0.0,0.0,0.0,0.0,0.0,0.0,0.0,0.0,0.0,0.0,0.0,0.0,0.0,0.0,0.0,0.0,0.0,0.0,0.0,0.0,0.0,0.0,0.0,0.0,0.0,0.0,0.0,0.0,0.0,0.0,0.0,0.0,0.0,0.0,0.0,0.0,0.0,0.0,0.0,0.0,0.0,0.0,0.0,0.0,0.0,0.0,0.0,0.0,0.0,0.0,0.0,0.0,0.0,0.0,0.0,0.0,0.0,0.0,0.0,0.0,0.0,0.0,0.0,0.0,0.0,0.0,0.0,0.0,0.0,0.0,0.0,0.0,0.0,0.0,0.0,0.0,0.0,0.0,0.0,0.0,0.0,0.0,0.0,0.0,0.0,0.0,0.0,0.0,0.0,0.0,0.0,0.0,0.0,0.0,0.0,0.0,0.0,0.0,0.0,0.0,0.0,0.0,0.0,0.0,0.0,0.0,0.0,0.0,0.0,0.0,0.0,0.0,0.0,0.0,0.0,0.0,0.0,0.0,0.0,0.0,0.0,0.0,0.0,0.0,0.0,0.0,0.0,0.0,0.0,0.0,0.0,0.0,0.0,0.0,0.0,0.0,0.0,0.0,0.0,0.0,0.0,0.0,0.0,0.0,0.0,0.0,0.0,0.0,0.0,0.0,0.0,0.0,0.0,0.0,0.0,0.0,0.0,0.0,0.0,0.0,0.0,0.0,0.0,0.0,0.0,0.0,0.0,0.0,0.0,0.0,0.0,0.0,0.0,0.0,0.0,0.0,0.0,0.0,0.0,0.0,0.0,0.0,0.0,0.0,0.0,0.0,0.0,0.0,0.0,0.0,0.0,0.0,0.0,0.0,0.0,0.0,0.0,0.0,0.0,0.0,0.0,0.0,0.0,0.0,0.0,0.0,0.0,0.0,0.0,0.0,0.0,0.0,0.0,0.0,0.0,0.0,0.0,0.0,0.0,0.0,0.0,0.0,0.0,0.0,0.0,0.0,0.0,0.0,0.0,0.0,0.0,0.0,0.0,0.0,0.0,0.0,0.0,0.0,0.0,0.0,0.0,0.0,0.0,0.0,0.0,0.0,0.0,0.0,0.0,0.0,0.0,0.0,0.0,0.0,0.0,0.0,0.0,0.0,0.0,0.0,0.0,0.0,0.0,0.0,0.0,0.0,0.0,0.0,0.0,0.0,0.0,0.0,0.0,0.0,0.0,0.0,0.0,0.0,0.0,0.0,0.0,0.0,0.0,0.0,0.0,0.0,0.0,0.0,0.0,0.0,0.0,0.0,0.0,0.0,0.0,0.0,0.0,0.0,0.0,0.0,0.0,0.0,0.0,0.0,0.0,0.0,0.0,0.0,0.0,0.0,0.0,0.0,0.0,0.0,0.0,0.0,0.0,0.0,0.0,0.0,0.0,0.0,0.0,0.0,0.0,0.0,0.0,0.0,0.0,0.0,0.0,0.0,0.0,0.0,0.0,0.0,0.0,0.0,0.0,0.0,0.0,0.0,0.0,0.0,0.0,0.0,0.0,0.0,0.0,0.0,0.0,0.0,0.0,0.0,0.0,0.0,0.0,0.0,0.0,0.0,0.0,0.0,0.0,0.0,0.0,0.0,0.0,0.0,0.0,0.0,0.0,0.0,0.0,0.0,0.0,0.0,0.0,0.0,0.0,0.0,0.0,0.0,0.0,0.0,0.0,0.0,0.0,0.0,0.0,0.0,0.0,0.0,0.0,0.0,0.0,0.0,0.0,0.0,0.0,0.0,0.0,0.0,0.0,0.0,0.0,0.0,0.0,0.0,0.0,0.0,0.0,0.0,0.0,0.0,0.0,0.0,0.0,0.0,0.0,0.0,0.0,0.0,0.0,0.0,0.0,0.0,0.0,0.0,0.0,0.0,0.0,0.0,0.0,0.0,0.0,0.0,0.0,0.0,0.0,0.0,0.0,0.0,0.0,0.0,0.0,0.0,0.0,0.0,0.0,0.0,0.0,0.0,0.0,0.0,0.0,0.0,0.0,0.0,0.0,0.0,0.0,0.0,0.0,0.0,0.0,0.0,0.0,0.0,0.0,0.0,0.0,0.0,0.0,0.0,0.0,0.0,0.0,0.0,0.0,0.0,0.0,0.0,0.0,0.0,0.0,0.0,0.0,0.0,0.0,0.0,0.0,0.0,0.0,0.0,0.0,0.0,0.0,0.0,0.0,0.0,0.0,0.0,0.0,0.0,0.0,0.0,0.0,0.0,0.0,0.0,0.0,0.0,0.0,0.0,0.0,0.0,0.0,0.0,0.0,0.0,0.0,0.0,0.0,0.0,0.0,0.0,0.0,0.0,0.0,0.0,0.0,0.0,0.0,0.0,0.0,0.0,0.0,0.0,0.0,0.0,0.0,0.0,0.0,0.0,0.0,0.0,0.0,0.0,0.0,0.0,0.0,0.0,0.0,0.0,0.0,0.0,0.0,0.0,0.0,0.0,0.0,0.0,0.0,0.0,0.0,0.0,0.0,0.0,0.0,0.0,0.0,0.0,0.0,0.0,0.0,0.0,0.0,0.0,0.0,0.0,0.0,0.0,0.0,0.0,0.0,0.0,0.0,0.0,0.0,0.0,0.0,0.0,0.0,0.0,0.0,0.0,0.0,0.0,0.0,0.0,0.0,0.0,0.0,0.0,0.0,0.0,0.0,0.0,0.0,0.0,0.0,0.0,0.0,0.0,0.0,0.0,0.0,0.0,0.0,0.0,0.0,0.0,0.0,0.0,0.0,0.0,0.0,0.0,0.0,0.0,0.0,0.0,0.0,0.0,0.0,0.0,0.0,0.0,0.0,0.0,0.0,0.0,0.0,0.0,0.0,0.0,0.0,0.0,0.0,0.0,0.0,0.0,0.0,0.0,0.0,0.0,0.0,0.0,0.0,0.0,0.0,0.0,0.0,0.0,0.0,0.0,0.0,0.0,0.0,0.0,0.0,0.0,0.0,0.0,0.0,0.0,0.0,0.0,0.0,0.0,0.0,0.0,0.0,0.0,0.0,0.0,0.0,0.0,0.0,0.0,0.0,0.0,0.0,0.0,0.0,0.0,0.0,0.0,0.0,0.0,0.0,0.0,0.0,0.0,0.0,0.0,0.0,0.0,0.0,0.0,0.0,0.0,0.0,0.0,0.0,0.0,0.0,0.0,0.0,0.0,0.0,0.0,0.0,0.0,0.0,0.0,0.0,0.0,0.0,0.0,0.0,0.0,0.0,0.0,0.0,0.0,0.0,0.0,0.0,0.0,0.0,0.0,0.0,0.0,0.0,0.0,0.0,0.0,0.0,0.0,0.0,0.0,0.0,0.0,0.0,0.0,0.0,0.0,0.0,0.0,0.0,0.0,0.0,0.0,0.0,0.0,0.0,0.0,0.0,0.0,0.0,0.0,0.0,0.0,0.0,0.0,0.0,0.0,0.0,0.0,0.0,0.0,0.0,0.0,0.0,0.0,0.0,0.0,0.0,0.0,0.0,0.0,0.0,0.0,0.0,0.0,0.0,0.0,0.0,0.0,0.0,0.0,0.0,0.0,0.0,0.0,0.0,0.0,0.0,0.0,0.0,0.0,0.0,0.0,0.0,0.0,0.0,0.0,0.0,0.0,0.0,0.0,0.0,0.0,0.0,0.0,0.0,0.0,0.0,0.0,0.0,0.0,0.0,0.0,0.0,0.0,0.0,0.0,0.0,0.0,0.0,0.0,0.0,0.0,0.0,0.0,0.0,0.0,0.0,0.0,0.0,0.0,-4.862,-4.862,0.0,0.0,0.0,0.0,0.0,0.0,0.0,0.0,0.0,0.0,0.0,0.0,0.0,0.0,0.0,0.0,0.0,0.0,0.0,0.0,0.0,0.0,0.0,0.0,0.0,0.0,0.0,0.0,0.0,0.0,0.0,0.0,0.0,0.0,0.0,0.0,0.0,0.0,-4.4473,-4.4396,-4.432,-4.432,-4.4396,-4.461,0.0,0.0,0.0,0.0,0.0,0.0,0.0,0.0,0.0,0.0,0.0,0.0,0.0,0.0,0.0,0.0,0.0,0.0,0.0,0.0,0.0,0.0,0.0,0.0,0.0,0.0,0.0,0.0,0.0,0.0,0.0,0.0,0.0,0.0,0.0,0.0,0.0,0.0,0.0,0.0,0.0,0.0,0.0,0.0,0.0,0.0,0.0,0.0,0.0,0.0,0.0,0.0,0.0,0.0,0.0,0.0,0.0,0.0,0.0,0.0,0.0,0.0,0.0,0.0,0.0,0.0,0.0,0.0,0.0,0.0,-4.8537,-4.862,0.0,0.0,0.0,0.0,0.0,0.0,0.0,0.0,0.0,0.0,0.0,0.0,0.0,0.0,0.0,0.0,0.0,0.0,0.0,0.0,0.0,0.0,0.0,0.0,0.0,0.0,0.0,0.0,0.0,0.0,0.0,0.0,0.0,0.0,0.0,0.0,0.0,-4.4281,-4.4243,-4.4166,-4.3988,-4.3988,-4.4166,-4.4511,-4.4534,0.0,0.0,0.0,0.0,0.0,0.0,0.0,0.0,0.0,0.0,0.0,0.0,0.0,0.0,0.0,0.0,0.0,0.0,0.0,0.0,0.0,0.0,0.0,0.0,0.0,0.0,0.0,0.0,0.0,0.0,0.0,0.0,0.0,0.0,0.0,0.0,0.0,0.0,0.0,0.0,0.0,0.0,0.0,0.0,0.0,0.0,0.0,0.0,0.0,0.0,0.0,0.0,0.0,0.0,0.0,0.0,0.0,0.0,0.0,0.0,0.0,0.0,0.0,-4.826,-4.8175,-4.8007,-4.8007,-4.8007,-4.8007,-4.837,-4.8495,-4.8495,-4.8495,0.0,0.0,0.0,0.0,0.0,0.0,0.0,0.0,0.0,0.0,0.0,0.0,0.0,0.0,0.0,0.0,0.0,0.0,0.0,0.0,0.0,0.0,-4.461,-4.461,-4.461,-4.461,0.0,0.0,0.0,0.0,0.0,0.0,0.0,-4.4435,-4.432,-4.4281,-4.4143,-4.4026,-4.3988,-4.3988,-4.4026,-4.4104,-4.4243,-4.4358,-4.4358,0.0,0.0,0.0,0.0,0.0,0.0,0.0,0.0,0.0,0.0,0.0,0.0,0.0,0.0,0.0,0.0,0.0,0.0,0.0,0.0,0.0,0.0,0.0,0.0,0.0,0.0,0.0,0.0,0.0,0.0,0.0,0.0,0.0,0.0,0.0,0.0,0.0,0.0,0.0,0.0,0.0,-4.4026,-4.4026,0.0,0.0,0.0,0.0,0.0,0.0,0.0,0.0,0.0,0.0,0.0,0.0,0.0,-4.6909,-4.7091,-4.7638,-4.7958,-4.8049,-4.8049,-4.8007,-4.8007,-4.8007,-4.8007,-4.8007,-4.8049,0.0,-4.8091,-4.8091,0.0,0.0,0.0,0.0,0.0,0.0,0.0,0.0,0.0,0.0,0.0,0.0,0.0,0.0,0.0,0.0,0.0,0.0,0.0,0.0,0.0,-4.461,-4.461,-4.461,-4.461,-4.461,-4.461,0.0,0.0,0.0,0.0,0.0,-4.4435,-4.4243,-4.4065,-4.3949,-4.3738,-4.3621,-4.3621,-4.3621,-4.3621,-4.3621,-4.3871,-4.4026,-4.4143,-4.4243,0.0,0.0,0.0,0.0,0.0,0.0,0.0,0.0,0.0,0.0,0.0,0.0,0.0,0.0,0.0,0.0,0.0,0.0,0.0,0.0,0.0,0.0,0.0,0.0,0.0,0.0,0.0,0.0,0.0,0.0,0.0,0.0,0.0,0.0,0.0,0.0,0.0,0.0,0.0,-4.391,-4.3949,-4.3832,-4.4026,-4.4127,0.0,0.0,0.0,0.0,0.0,0.0,0.0,0.0,0.0,-4.6097,-4.6705,-4.719,-4.7555,-4.787,-4.7725,-4.722,-4.722,-4.6939,-4.6493,-4.6493,-4.6493,-4.6493,-4.6493,-4.6493,-4.6554,-4.7576,-4.8049,-4.8133,0.0,0.0,0.0,0.0,-4.789,-4.7574,0.0,0.0,0.0,0.0,0.0,0.0,0.0,0.0,0.0,0.0,0.0,0.0,-4.461,-4.461,-4.461,-4.461,-4.461,-4.461,-4.461,0.0,0.0,0.0,0.0,-4.4205,-4.4205,-4.4026,-4.3832,-4.3596,-4.3384,-4.329,-4.329,-4.329,-4.329,-4.329,-4.3518,-4.3714,-4.391,-4.3988,-4.3988,-4.3988,0.0,0.0,0.0,0.0,0.0,0.0,0.0,0.0,0.0,0.0,0.0,0.0,0.0,0.0,0.0,0.0,0.0,0.0,0.0,0.0,0.0,0.0,0.0,0.0,0.0,0.0,0.0,0.0,0.0,0.0,0.0,0.0,0.0,0.0,0.0,0.0,0.0,-4.3714,-4.3793,-4.3596,-4.3793,-4.391,0.0,0.0,0.0,0.0,0.0,0.0,-4.4864,-4.5213,-4.5748,-4.6554,-4.6751,-4.6993,-4.7322,-4.7322,-4.6939,-4.6259,-4.6259,-4.592,-4.5289,-4.5289,-4.5289,-4.5289,-4.5289,-4.5289,-4.5406,-4.6746,-4.7364,-4.7422,-4.7422,-4.7251,-4.7023,-4.7482,-4.741,-4.7171,0.0,0.0,0.0,0.0,0.0,0.0,0.0,0.0,0.0,0.0,0.0,-4.461,-4.461,-4.461,-4.461,-4.461,-4.461,-4.461,-4.461,-4.4435,-4.432,-4.432,-4.4127,-4.4026,-4.4026,-4.3832,-4.3596,-4.3329,-4.329,-4.329,-4.329,-4.329,-4.329,-4.329,-4.329,-4.3463,-4.3729,-4.391,-4.3988,-4.3988,-4.3988,0.0,0.0,0.0,0.0,0.0,0.0,0.0,0.0,0.0,0.0,0.0,0.0,0.0,0.0,0.0,0.0,0.0,0.0,0.0,0.0,0.0,0.0,0.0,0.0,0.0,0.0,0.0,0.0,0.0,0.0,0.0,0.0,0.0,0.0,0.0,0.0,0.0,0.0,-4.3329,-4.3557,0.0,0.0,0.0,0.0,-4.3988,-4.4564,-4.4849,-4.4609,-4.5845,-4.6184,-4.5406,-4.5978,-4.6037,-4.5436,-4.5436,-4.5421,-4.5391,-4.5391,-4.5319,-4.5289,-4.5289,-4.5289,-4.5289,-4.5289,-4.5289,-4.5304,-4.5406,-4.5575,-4.5811,-4.5811,-4.6282,-4.6963,-4.677,-4.7036,-4.7551,0.0,0.0,0.0,0.0,0.0,0.0,0.0,0.0,0.0,-4.4084,-4.4348,-4.4456,-4.4009,-4.4348,-4.461,-4.461,-4.4473,-4.4396,-4.4396,-4.3808,-4.345,-4.345,-4.2849,-4.2666,-4.2973,-4.3292,-4.3384,-4.329,-4.329,-4.329,-4.329,-4.329,-4.329,-4.329,-4.329,-4.3344,-4.3463,-4.3503,-4.3542,-4.3542,-4.3542,-4.3542,0.0,0.0,0.0,0.0,0.0,0.0,0.0,0.0,0.0,0.0,0.0,0.0,0.0,0.0,0.0,0.0,0.0,0.0,0.0,0.0,0.0,0.0,0.0,0.0,0.0,0.0,0.0,0.0,0.0,0.0,0.0,0.0,0.0,0.0,0.0,0.0,0.0,-4.329,-4.3384,0.0,-4.3423,-4.3878,-4.3993,-4.3572,-4.4183,-4.4519,-4.4423,-4.4847,-4.5192,-4.5289,-4.5529,-4.5544,-4.5289,-4.5289,-4.508,-4.4661,-4.4661,-4.4436,-4.3992,-4.3992,-4.3992,-4.3992,-4.3992,-4.3992,-4.3992,-4.3992,-4.4837,-4.6104,-4.6104,-4.6281,-4.6578,-4.6956,-4.6944,-4.6811,0.0,0.0,0.0,0.0,0.0,0.0,0.0,0.0,0.0,-4.4016,-4.4132,-4.4101,-4.3655,-4.4009,-4.4141,-4.385,-4.3722,-4.3609,-4.3533,-4.2933,-4.2561,-4.2561,-4.1949,-4.1716,-4.2066,-4.2447,-4.2671,-4.2671,-4.2671,-4.2791,-4.3015,-4.3015,-4.312,-4.329,-4.329,-4.329,-4.329,-4.329,-4.329,-4.329,-4.329,-4.329,-4.3245,0.0,0.0,0.0,0.0,0.0,0.0,0.0,0.0,0.0,0.0,0.0,0.0,0.0,0.0,0.0,0.0,0.0,0.0,0.0,0.0,0.0,0.0,0.0,0.0,0.0,0.0,0.0,0.0,0.0,0.0,0.0,0.0,0.0,0.0,-4.329,-4.329,-4.329,-4.3484,-4.3544,-4.3319,-4.3888,-4.4007,-4.3349,-4.3902,-4.4317,-4.4317,-4.4526,-4.4751,-4.496,-4.496,-4.4855,-4.4631,-4.4631,-4.4407,-4.3947,-4.3947,-4.3708,-4.329,-4.329,-4.329,-4.329,-4.329,-4.329,-4.329,-4.329,-4.4201,-4.5577,-4.5367,-4.5412,-4.5693,-4.6142,-4.6157,-4.6037,0.0,0.0,0.0,0.0,0.0,0.0,0.0,0.0,-4.4656,-4.4516,-4.3978,-4.3562,-4.3547,-4.3562,-4.3242,-4.2362,-4.2279,-4.2206,-4.1984,-4.1768,-4.1663,-4.1633,-4.1453,-4.1354,-4.1354,-4.1407,-4.1422,-4.1422,-4.1422,-4.1752,-4.2366,-4.2366,-4.2671,-4.323,-4.323,-4.323,-4.323,-4.3245,-4.326,-4.326,-4.329,-4.329,-4.329,0.0,0.0,0.0,0.0,0.0,0.0,0.0,0.0,0.0,0.0,0.0,0.0,0.0,0.0,0.0,0.0,0.0,0.0,0.0,0.0,0.0,0.0,0.0,0.0,0.0,0.0,0.0,0.0,0.0,0.0,0.0,0.0,0.0,-4.3319,-4.3305,-4.3305,-4.3319,-4.3873,-4.3992,-4.3349,-4.3888,-4.4007,-4.3349,-4.3902,-4.4302,-4.4287,-4.4885,-4.4945,-4.4302,-4.4287,-4.3947,-4.3305,-4.329,-4.329,-4.329,-4.329,-4.329,-4.329,-4.329,-4.329,-4.329,-4.329,-4.329,-4.329,-4.329,-4.3663,-4.4227,-4.3559,-4.3723,-4.4347,-4.4347,-4.4751,-4.5289,0.0,0.0,0.0,0.0,0.0,0.0,0.0,-4.6112,-4.3898,-4.2582,-4.2679,-4.2679,-4.2186,-4.2571,-4.2713,-4.2331,-4.2169,-4.1984,-4.1783,-4.1159,-4.0531,-4.0051,-4.0449,-4.0666,-4.0666,-4.113,-4.1422,-4.1422,-4.1422,-4.1474,-4.1692,-4.1692,-4.1743,-4.1923,-4.1923,-4.1923,-4.1938,-4.2432,-4.2626,-4.2671,-4.3135,-4.329,-4.329,0.0,0.0,0.0,0.0,0.0,0.0,0.0,0.0,0.0,0.0,0.0,0.0,0.0,0.0,0.0,0.0,0.0,0.0,0.0,0.0,0.0,0.0,0.0,0.0,0.0,0.0,0.0,0.0,0.0,0.0,0.0,-4.4142,-4.3757,-4.3986,-4.3604,-4.3469,-4.3988,-4.3738,-4.3484,-4.3305,-4.3888,-4.4007,-4.3349,-4.3902,-4.4107,-4.3589,-4.3738,-4.3753,-4.3559,-4.3559,-4.3484,-4.329,-4.329,-4.329,-4.329,-4.329,-4.329,-4.329,-4.329,-4.329,-4.329,-4.329,-4.329,-4.329,-4.329,-4.3409,-4.3589,-4.3888,-4.4451,-4.5035,-4.5035,-4.514,-4.5289,0.0,0.0,0.0,0.0,0.0,0.0,0.0,-4.6152,-4.3678,-4.2576,-4.2273,-4.2032,-4.1632,-4.1955,-4.1955,-4.1397,-4.1237,-4.104,-4.0768,-4.0276,-3.9828,-3.9439,-3.9783,-3.9993,-3.9993,-4.0367,-4.0561,-4.0561,-4.0561,-4.0696,-4.0965,-4.0965,-4.1115,-4.1422,-4.1422,-4.1422,-4.1452,-4.1826,-4.1991,-4.2021,-4.2357,-4.2836,-4.329,-4.329,-4.329,-4.329,-4.329,-4.329,-4.329,-4.329,0.0,0.0,0.0,0.0,0.0,0.0,0.0,0.0,0.0,0.0,0.0,0.0,0.0,0.0,0.0,0.0,0.0,0.0,0.0,0.0,0.0,0.0,0.0,0.0,-4.4093,-4.4101,-4.428,-4.3579,-4.3305,-4.3802,-4.3768,-4.3604,-4.3319,-4.3888,-4.4007,-4.3349,-4.3648,-4.3693,-4.3319,-4.329,-4.329,-4.329,-4.329,-4.329,-4.329,-4.329,-4.329,-4.329,-4.329,-4.329,-4.329,-4.329,-4.329,-4.329,-4.329,-4.329,-4.329,-4.329,-4.329,-4.3334,0.0,0.0,0.0,0.0,-4.4466,-4.4466,0.0,0.0,0.0,0.0,0.0,0.0,0.0,-4.6388,-4.392,-4.3437,-4.2276,-4.1478,-4.1478,-4.1478,-4.1091,-4.0127,-3.9996,-3.9818,-3.9424,-3.9388,-3.9388,-3.9388,-3.9388,-3.9388,-3.9388,-3.9388,-3.9388,-3.9388,-3.9388,-3.9709,-4.0292,-4.0292,-4.0591,-4.116,-4.116,-4.116,-4.116,-4.1272,-4.1265,-4.128,-4.1354,-4.2117,-4.3185,-4.3185,-4.323,-4.329,-4.329,-4.329,-4.329,-4.329,0.0,0.0,0.0,0.0,0.0,0.0,0.0,0.0,0.0,0.0,0.0,0.0,0.0,0.0,0.0,0.0,0.0,0.0,0.0,0.0,0.0,0.0,0.0,0.0,-4.3612,-4.4147,-4.4236,-4.3422,-4.2952,-4.3349,-4.3762,-4.3852,-4.3349,-4.3828,-4.3958,-4.3334,-4.329,-4.329,-4.329,-4.329,0.0,0.0,0.0,-4.329,-4.329,-4.329,-4.329,-4.329,-4.329,-4.329,-4.329,-4.329,-4.329,-4.329,-4.329,-4.329,-4.329,-4.329,-4.329,-4.329,-4.329,-4.329,-4.329,-4.329,-4.329,-4.329,0.0,0.0,0.0,0.0,0.0,0.0,0.0,-4.6832,-4.4534,-4.2423,-4.132,-4.0689,-4.0689,-4.0689,-4.0589,-4.0277,-4.0101,-3.9818,-3.9424,-3.9388,-3.9388,-3.9388,-3.9388,-3.9388,-3.9388,-3.9388,-3.9388,-3.9388,-3.9388,-3.9484,-3.9604,-3.9604,-3.9679,-3.9798,-3.9798,-3.9798,-3.9828,-4.0367,-4.0591,-4.0636,-4.1175,-4.1886,-4.259,-4.259,-4.288,-4.329,-4.329,-4.329,-4.329,-4.329,-4.329,-4.329,-4.329,-4.329,0.0,0.0,0.0,0.0,0.0,0.0,0.0,0.0,0.0,0.0,0.0,0.0,0.0,0.0,0.0,0.0,0.0,0.0,0.0,-4.4238,-4.3441,-4.3142,-4.3941,-4.3326,-4.3142,-4.4001,-4.3127,-4.2669,-4.3265,-4.3409,-4.3424,-4.3305,-4.329,-4.329,-4.329,-4.329,-4.329,-4.329,-4.329,-4.329,-4.329,-4.329,-4.329,-4.329,-4.329,0.0,-4.329,-4.329,-4.329,-4.329,-4.329,-4.329,-4.329,-4.329,-4.329,-4.329,-4.329,-4.329,-4.329,-4.329,-4.329,-4.329,0.0,0.0,0.0,0.0,0.0,0.0,0.0,-4.7901,-4.5618,-4.3154,-4.1764,-4.087,-4.0524,-4.0489,-4.047,-4.0296,-4.0016,-3.9768,-3.9553,-3.946,-3.9388,-3.9388,-3.9388,-3.9388,-3.9388,-3.9388,-3.9388,-3.9388,-3.9388,-3.9388,-3.9388,-3.9388,-3.9388,-3.9388,-3.9388,-3.9388,-3.9403,-3.9768,-3.9903,-3.9933,-4.0262,-4.0786,-4.1444,-4.2156,-4.2605,-4.2895,-4.317,-4.329,-4.329,-4.329,-4.329,-4.329,-4.329,-4.329,-4.329,0.0,0.0,0.0,0.0,0.0,0.0,0.0,0.0,0.0,0.0,0.0,0.0,0.0,0.0,-4.4748,-4.4069,0.0,-4.3759,-4.2185,-4.228,-4.2596,-4.2792,-4.2049,-4.2077,-4.3607,-4.3108,-4.2835,-4.325,-4.329,-4.329,-4.329,-4.329,-4.329,-4.329,-4.329,-4.329,-4.329,-4.329,-4.329,-4.329,-4.329,-4.329,-4.329,-4.329,-4.329,-4.329,-4.329,-4.329,-4.329,-4.329,-4.329,-4.329,-4.329,-4.329,-4.329,-4.329,-4.329,-4.329,-4.329,-4.329,-4.329,0.0,0.0,0.0,0.0,0.0,0.0,0.0,0.0,0.0,-4.4472,-4.2639,-4.1276,-4.0593,-4.0489,-4.047,-4.0296,-4.0016,-3.9788,-3.9717,-3.9553,-3.946,-3.9388,-3.9388,-3.9388,-3.9388,-3.9388,-3.9388,-3.9388,-3.9388,-3.9388,-3.9388,-3.9388,-3.9388,-3.9388,-3.9388,-3.9388,-3.9388,-3.9388,-3.9388,-3.9388,-3.9388,-3.9738,-4.0337,-4.1572,-4.2096,-4.2291,-4.291,-4.315,-4.3125,-4.3245,-4.329,-4.329,-4.329,-4.329,-4.329,-4.329,-4.329,0.0,0.0,0.0,0.0,0.0,0.0,0.0,0.0,-4.4242,-4.4934,-4.5007,-4.4757,-4.4224,-4.3101,-4.3027,-4.2358,-3.9992,-4.0996,-4.1923,-4.1548,-4.0859,-4.1028,-4.2699,-4.2996,-4.3115,-4.329,-4.329,-4.329,-4.329,-4.329,-4.329,-4.329,-4.329,-4.329,-4.329,-4.329,-4.329,-4.329,-4.329,-4.329,-4.329,-4.329,-4.329,-4.329,-4.329,-4.329,-4.329,-4.329,-4.329,-4.329,-4.329,-4.329,-4.329,-4.329,-4.329,-4.329,-4.329,-4.329,-4.329,0.0,0.0,0.0,0.0,0.0,0.0,0.0,0.0,0.0,-4.5449,-4.317,-4.1442,-4.0578,-4.0489,-4.047,-4.0296,-4.0277,-4.0086,-3.9717,-3.9696,-3.9589,-3.9424,-3.9388,-3.9388,-3.9388,-3.9388,-3.9388,-3.9388,-3.9388,-3.9388,-3.9388,-3.9388,-3.9388,-3.9388,-3.9388,-3.9388,-3.9388,-3.9388,-3.9388,-3.9388,-3.9388,-3.9433,-3.9604,-4.0337,-4.098,-4.1617,-4.2276,-4.2515,-4.259,-4.3135,-4.329,-4.329,-4.329,-4.329,-4.329,-4.329,-4.329,-4.329,-4.329,-4.329,-4.329,-4.329,-4.329,-4.3439,0.0,-4.3828,-4.3626,-4.3972,-4.4204,-4.3889,-4.2458,-4.1814,-4.119,-4.0408,-4.0253,-4.0416,-4.0986,-4.1127,-4.1239,-4.1505,-4.1893,-4.2456,-4.321,-4.329,-4.329,-4.329,-4.329,-4.329,-4.329,-4.329,-4.329,-4.329,-4.329,-4.329,-4.329,-4.329,-4.329,-4.329,-4.329,-4.329,-4.329,-4.329,-4.329,-4.329,-4.329,-4.329,-4.329,-4.329,-4.329,-4.329,-4.329,-4.329,-4.329,-4.329,-4.329,-4.329,0.0,0.0,0.0,0.0,0.0,0.0,0.0,0.0,0.0,0.0,0.0,-4.2783,-4.139,-4.0817,-4.0489,-4.0436,-4.0347,-4.0226,-4.0051,-3.9945,-3.9768,-3.9589,-3.9589,-3.9517,-3.9388,-3.9388,-3.9388,-3.9388,-3.9388,-3.9388,-3.9388,-3.9388,-3.9388,-3.9388,-3.9388,-3.9388,-3.9388,-3.9388,-3.9388,-3.9388,-3.9388,-3.9388,-3.9454,-3.9723,-3.9993,-4.0367,-4.1452,-4.1826,0.0,-4.2551,-4.2776,-4.2836,-4.317,-4.329,-4.329,-4.329,-4.329,-4.329,-4.329,-4.329,-4.329,-4.329,-4.329,-4.3364,-4.3633,-4.3783,-4.3926,-4.4119,-4.3585,-4.278,-4.156,-4.1185,-4.0606,-3.914,-3.9815,-4.0446,-4.0159,-4.0189,-4.0532,-4.1212,-4.1463,-4.1796,-4.2249,-4.2441,-4.2739,-4.325,-4.329,-4.329,-4.329,-4.329,-4.329,-4.329,-4.329,-4.329,-4.329,-4.329,-4.329,-4.329,-4.329,-4.329,-4.329,-4.329,-4.329,-4.329,-4.329,-4.329,-4.329,-4.329,-4.329,-4.329,-4.329,-4.329,-4.329,-4.329,-4.329,-4.329,0.0,0.0,0.0,0.0,0.0,0.0,0.0,0.0,0.0,0.0,0.0,0.0,0.0,-4.1174,-4.0662,-4.0662,-4.047,-4.0331,-4.0312,-4.0172,-3.9996,-3.9803,-3.9768,-3.9696,-3.9481,-3.9481,-3.946,-3.9388,-3.9388,-3.9388,-3.9388,-3.9388,-3.9388,-3.9388,-3.9388,-3.9388,-3.9388,-3.9388,-3.9388,-3.9388,-3.9388,-3.9388,-3.9388,-3.9388,-3.9388,-3.9574,-4.0711,-4.1115,-4.1205,-4.1916,-4.2126,-4.2216,-4.2641,-4.2791,-4.2836,-4.3015,-4.3155,-4.329,-4.329,-4.329,-4.329,-4.325,-4.325,-4.3334,-4.3449,-4.3758,-4.3971,-4.3849,-4.3123,-4.2166,-4.1061,-4.0912,-4.0374,-3.8509,-3.9489,-4.0187,-3.9169,-3.9258,-3.9741,-4.0646,-4.0774,-4.0986,-4.1407,-4.192,-4.2537,-4.3155,-4.325,-4.329,-4.329,-4.329,-4.329,-4.329,-4.329,-4.329,-4.329,-4.329,-4.329,-4.329,-4.329,-4.329,-4.329,-4.329,-4.329,-4.329,-4.329,-4.329,-4.329,-4.329,-4.329,-4.329,-4.329,-4.325,-4.321,-4.321,-4.325,-4.329,0.0,0.0,0.0,0.0,0.0,0.0,0.0,0.0,0.0,0.0,0.0,0.0,0.0,0.0,-4.1104,-4.1104,-4.073,-4.0436,-4.0312,-4.0312,-4.0207,-4.0011,-3.9996,-3.9889,-3.9696,-3.9681,-3.9589,-3.9388,-3.9388,-3.9388,-3.9388,-3.9388,-3.9388,-3.9388,-3.9388,-3.9388,-3.9388,-3.9388,-3.9388,-3.9388,-3.9388,-3.9388,-3.9388,-3.9388,-3.9388,-3.9514,-4.0187,-4.0427,-4.0531,-4.119,-4.1452,-4.1414,-4.1429,-4.1482,-4.1602,-4.2246,-4.2836,-4.329,-4.329,-4.329,-4.325,-4.3076,-4.3155,-4.3429,-4.3868,-4.3647,-4.3203,-4.2761,-4.2814,-4.2552,-4.1226,-4.1001,-4.0589,-3.9343,-3.921,-3.8944,-3.7978,-3.8644,-3.9197,-3.9241,-3.9489,-3.9984,-4.0944,-4.2196,-4.2981,-4.3036,-4.321,-4.329,-4.329,-4.329,-4.329,-4.329,-4.329,-4.329,-4.329,-4.329,-4.329,-4.329,-4.329,-4.329,-4.329,-4.329,-4.329,-4.329,-4.329,-4.329,-4.329,-4.329,-4.329,-4.329,-4.329,-4.317,-4.3036,-4.3036,-4.3115,-4.325,0.0,0.0,0.0,0.0,0.0,0.0,0.0,0.0,0.0,0.0,0.0,0.0,0.0,0.0,0.0,0.0,-4.0969,-4.0765,-4.0455,-4.0436,-4.0366,-4.0207,-4.0207,-4.0101,-3.9889,-3.9889,-3.9854,-3.9783,-3.9783,-3.9783,-3.9783,-3.9783,-3.9783,-3.9783,-3.9783,-3.9783,-3.9783,-3.9783,-3.9783,-3.9783,-3.9661,-3.9589,-3.9589,-3.9445,-3.9388,-3.9454,0.0,-3.9753,-3.9843,-4.0502,-4.0726,-4.0801,-4.125,-4.1422,-4.1504,-4.2201,-4.2545,-4.2776,-4.317,-4.321,-4.3115,-4.317,-4.3155,-4.3175,-4.3453,-4.3414,-4.323,-4.2939,-4.2928,-4.2603,-4.1436,-4.1113,-4.0859,-4.046,-4.026,-4.0029,-3.9681,-3.9942,-3.9899,-3.9285,-3.9299,-3.9694,-4.066,-4.1421,-4.2181,-4.2941,-4.3076,-4.3155,-4.329,-4.329,-4.329,-4.329,-4.329,-4.329,-4.329,-4.329,-4.329,-4.329,-4.329,-4.329,-4.329,-4.329,-4.329,-4.329,-4.329,-4.329,-4.329,-4.329,-4.329,-4.329,-4.329,-4.317,-4.2981,-4.2981,-4.2955,-4.289,0.0,0.0,0.0,0.0,0.0,0.0,0.0,0.0,0.0,0.0,0.0,0.0,0.0,0.0,0.0,0.0,0.0,-4.1374,-4.1005,-4.0817,-4.0593,-4.0366,-4.0366,-4.0312,-4.0101,-4.0101,-4.0066,-4.0011,-4.0011,-4.0011,-4.0011,-4.0011,-4.0011,-4.0011,-4.0011,-4.0011,-4.0011,-4.0011,-4.0011,-3.9996,-3.9854,-3.9768,-3.9696,-3.9553,-3.9445,0.0,-3.9388,-3.9388,-3.9484,-3.9903,-4.0053,-4.0127,-4.0546,-4.0846,-4.1115,-4.1572,-4.2036,-4.2447,-4.2748,-4.2976,-4.3115,-4.309,-4.309,-4.3115,-4.317,-4.325,-4.325,-4.3036,-4.2981,-4.2739,-4.1949,-4.1632,-4.1423,-4.1156,-4.0887,-4.0518,-3.9798,-4.0015,-3.9842,-3.881,-3.8988,-3.9417,-4.0029,-4.0689,-4.1547,-4.2795,-4.3036,-4.3155,-4.329,-4.329,-4.329,-4.329,-4.329,-4.329,-4.329,-4.329,-4.329,-4.329,-4.329,-4.329,-4.329,-4.329,-4.329,-4.329,-4.329,-4.329,-4.329,-4.329,-4.329,-4.329,-4.321,-4.3076,-4.2875,-4.2795,-4.2662,-4.2514,0.0,0.0,0.0,0.0,0.0,0.0,0.0,0.0,0.0,0.0,0.0,0.0,0.0,0.0,0.0,0.0,0.0,0.0,-4.1931,-4.1453,-4.1016,-4.062,-4.0539,-4.047,-4.0296,-4.0296,-4.0207,-4.0031,-4.0031,-4.0031,-4.0031,-4.0031,-4.0031,-4.0031,-4.0031,-4.0031,-4.0031,-4.0031,-4.0031,-4.0031,-4.0011,-3.991,-3.9732,-3.9732,-3.9589,-3.9424,-3.9424,-3.9424,-3.9388,-3.9388,-3.9388,-3.9388,-3.9388,-3.9843,-4.0367,-4.0427,-4.1354,-4.2333,-4.2099,-4.2669,-4.3215,-4.2824,-4.297,-4.321,-4.3036,-4.3155,-4.325,-4.3036,-4.3036,-4.2955,-4.2769,-4.2459,-4.2075,-4.1478,-4.1057,-4.023,-3.8469,-3.8934,-3.9081,-3.7978,-3.8644,-3.9166,-3.921,-4.0029,-4.1113,-4.2526,-4.301,-4.325,-4.329,-4.329,-4.329,-4.329,-4.329,-4.329,-4.329,-4.329,-4.329,-4.329,-4.329,-4.329,-4.329,-4.329,-4.329,-4.329,-4.329,-4.329,-4.329,-4.329,-4.329,-4.329,-4.3076,-4.2875,-4.2688,-4.2459,-4.2284,-4.2133,0.0,0.0,0.0,0.0,0.0,0.0,0.0,0.0,0.0,0.0,0.0,0.0,0.0,0.0,0.0,0.0,0.0,0.0,-4.3257,-4.2629,-4.2108,-4.1731,-4.1199,-4.0799,-4.047,-4.047,-4.0436,-4.0366,-4.0366,-4.0366,-4.0366,-4.0366,-4.0366,-4.0366,-4.0366,-4.0366,-4.0366,-4.0366,-4.0366,-4.0366,-4.0261,-4.0191,-4.0121,-3.9996,-3.9803,-3.961,-3.961,-3.9517,-3.9388,-3.9388,-3.9388,-3.9388,-3.9388,-3.9529,-3.9858,-4.0846,-4.1599,-4.2203,-4.2609,-4.3167,-4.3486,-4.3049,-4.289,-4.293,-4.317,-4.3155,-4.3076,-4.3036,-4.3115,-4.3155,-4.2955,-4.163,-4.0916,-4.217,-4.026,-3.8944,-3.9842,-3.9579,-3.9152,-3.8899,-3.8419,-3.8419,-3.9121,-3.9566,-4.0232,-4.1324,-4.2199,-4.2743,-4.3076,-4.3076,-4.3155,-4.329,-4.329,-4.329,-4.329,-4.329,-4.329,-4.329,-4.329,-4.329,-4.329,-4.329,-4.329,-4.329,-4.329,-4.329,-4.329,-4.329,-4.329,-4.329,-4.3076,-4.2875,-4.2688,-4.2459,-4.2284,-4.2092,0.0,0.0,0.0,0.0,0.0,0.0,0.0,0.0,0.0,0.0,0.0,0.0,0.0,0.0,0.0,0.0,0.0,0.0,0.0,-4.3703,-4.3226,-4.2815,-4.1985,-4.1439,-4.1214,-4.0747,-4.0489,-4.0489,-4.0489,-4.0489,-4.0489,-4.0489,-4.0489,-4.0489,-4.0489,-4.0489,-4.0489,-4.0489,-4.0489,0.0,0.0,-4.0331,-4.0277,-4.0172,-3.9996,-3.9803,-3.9732,-3.9589,-3.9388,-3.9388,-3.9388,-3.9388,-3.9388,-3.9619,-4.0053,-4.107,-4.198,-4.259,-4.2826,-4.3404,-4.3801,-4.3053,-4.293,-4.301,-4.325,-4.321,-4.3115,-4.3115,-4.321,-4.325,-4.3155,-4.2003,-4.1505,-4.2673,-4.1127,-4.0057,-4.0703,-4.0317,-3.9782,-3.9241,-3.872,-3.8644,-3.9166,-3.9667,-4.0232,-4.0802,-4.1964,-4.2769,-4.2996,-4.3076,-4.317,-4.329,-4.329,-4.329,-4.329,-4.329,-4.329,-4.329,-4.329,-4.329,-4.329,-4.329,-4.329,-4.329,-4.321,-4.321,-4.329,-4.321,-4.3155,-4.3155,-4.2955,-4.2729,-4.2541,-4.2366,-4.2216,-4.2092,0.0,0.0,0.0,0.0,0.0,0.0,0.0,0.0,0.0,0.0,0.0,0.0,0.0,0.0,0.0,0.0,0.0,0.0,0.0,0.0,0.0,-4.4042,-4.3018,-4.2416,-4.2329,-4.1244,-4.0697,-4.0697,-4.057,-4.0489,-4.0489,-4.0489,-4.0489,-4.0489,-4.0489,-4.0489,-4.0489,-4.0489,-4.0489,-4.0489,-4.0489,-4.0436,-4.0347,0.0,0.0,-3.9996,-3.9768,-3.9589,-3.946,-3.9424,-3.9388,-3.9388,-3.9388,-3.9933,-4.0651,-4.1324,-4.2467,-4.3424,-4.3012,-4.3619,-4.415,-4.3042,-4.301,-4.325,-4.329,-4.329,-4.325,-4.329,-4.329,-4.329,-4.329,-4.289,-4.2633,-4.2915,-4.243,-4.1729,-4.0859,-4.0631,-4.0201,-3.9121,-3.8899,-3.8899,-3.8988,-3.9768,-4.0289,-4.0375,-4.1838,-4.278,-4.2941,-4.313,-4.325,-4.329,-4.329,-4.329,-4.329,-4.329,-4.329,-4.329,-4.329,-4.329,-4.329,-4.329,-4.329,-4.325,-4.3076,-4.3076,-4.321,-4.3036,-4.2955,-4.2955,-4.2729,-4.2541,-4.2392,-4.2175,-4.2092,-4.2092,0.0,0.0,0.0,0.0,0.0,0.0,0.0,0.0,0.0,0.0,-5.158,-5.0838,0.0,0.0,0.0,0.0,0.0,0.0,0.0,0.0,0.0,0.0,-4.4934,-4.4165,-4.3431,-4.236,-4.1809,-4.1809,-4.094,-4.0489,-4.0489,-4.0489,-4.0489,-4.0489,-4.0489,-4.0489,-4.0489,-4.0489,-4.0489,-4.0489,-4.0489,-4.0489,-4.047,0.0,0.0,0.0,-3.9839,-3.9696,-3.961,-3.946,-3.9388,-3.9388,-3.9388,-4.0247,-4.1339,-4.2036,-4.3389,-4.4567,-4.3935,-4.4317,-4.4552,-4.3252,-4.2996,-4.3115,-4.325,-4.3155,-4.3115,-4.325,-4.329,-4.329,-4.329,-4.2467,-4.2003,-4.2633,-4.1225,-3.9885,-3.9563,-3.8854,-3.8296,-3.8069,-3.7348,-3.7163,-3.7978,-3.8206,-3.8599,-3.9373,-4.0617,-4.1757,-4.2688,-4.2769,-4.297,-4.329,-4.329,-4.329,-4.329,-4.329,-4.329,-4.329,-4.329,-4.329,-4.329,-4.329,-4.321,-4.3036,-4.3036,-4.2915,-4.2809,-4.2769,-4.2769,-4.2729,-4.2541,-4.2433,-4.2392,-4.2175,-4.2092,-4.2092,0.0,0.0,0.0,0.0,0.0,0.0,0.0,-5.4512,-5.396,-5.2394,-5.1877,-5.1269,-5.0131,-5.0011,-4.9801,0.0,0.0,0.0,0.0,0.0,0.0,0.0,0.0,0.0,-4.4971,-4.3894,-4.3205,-4.2928,0.0,-4.1619,-4.1619,-4.126,-4.1055,-4.1055,-4.1055,-4.1055,-4.1055,-4.0901,-4.0799,-4.0799,-4.0593,-4.0489,0.0,0.0,0.0,0.0,0.0,-3.9874,-3.9696,-3.9589,-3.9481,-3.9448,-3.9828,-4.0831,-4.2126,-4.309,-4.446,-4.5483,-4.473,-4.4816,-4.4825,-4.3363,-4.3076,-4.317,-4.329,-4.325,-4.317,-4.329,-4.329,-4.329,-4.329,-4.2765,-4.2426,-4.2648,-4.1728,-4.0774,-4.0029,-3.9549,-3.9077,-3.8599,-3.8147,-3.8056,-3.8464,-3.8554,-3.8899,-3.9855,-4.0475,-4.131,-4.25,-4.2729,-4.2996,-4.329,-4.329,-4.329,-4.329,-4.329,-4.329,-4.329,-4.329,-4.329,-4.329,-4.321,-4.3076,-4.2996,-4.2769,-4.2688,-4.2688,-4.2581,-4.2541,-4.2541,-4.2433,-4.2325,-4.2242,-4.2133,-4.2092,-4.2092,0.0,0.0,0.0,0.0,0.0,0.0,0.0,-5.4512,-5.396,-5.2394,-5.2188,-5.1649,-5.0166,-5.0011,-4.983,0.0,0.0,0.0,0.0,0.0,0.0,0.0,0.0,0.0,0.0,0.0,0.0,-4.4034,-4.3389,0.0,0.0,0.0,0.0,0.0,-4.2031,-4.1952,-4.181,-4.1543,-4.1297,0.0,0.0,-4.0558,0.0,0.0,0.0,0.0,0.0,-4.0086,-3.9839,-3.9732,-3.9784,-3.9999,-4.0621,-4.1624,-4.286,-4.4137,-4.5484,-4.6309,-4.532,-4.518,-4.4934,-4.3443,-4.317,-4.329,-4.329,-4.329,-4.329,-4.329,-4.329,-4.329,-4.329,-4.3155,-4.2996,-4.2809,-4.2581,-4.1978,-4.0546,-4.0332,-3.9899,-3.8765,-3.8585,-3.8585,-3.8585,-3.8585,-3.9064,-4.0202,-4.0703,-4.1366,-4.2351,-4.2729,-4.2996,-4.317,-4.321,-4.325,-4.325,-4.329,-4.329,-4.329,-4.329,-4.329,-4.329,-4.3155,-4.3036,-4.2915,-4.2622,-4.2514,-4.2541,-4.2392,-4.2325,-4.2325,-4.2325,-4.2242,-4.2092,-4.2092,-4.2092,-4.2092,0.0,0.0,0.0,0.0,0.0,0.0,0.0,-5.4512,-5.396,-5.2394,-5.2188,-5.1649,-5.0166,-5.0011,-4.9982,0.0,0.0,0.0,0.0,0.0,0.0,0.0,0.0,0.0,0.0,0.0,0.0,-4.5163,-4.4598,0.0,0.0,0.0,0.0,0.0,0.0,-4.3171,-4.262,-4.2586,0.0,0.0,0.0,0.0,0.0,0.0,0.0,0.0,0.0,-4.0277,-4.0191,-3.9839,-4.051,-4.1566,-4.2059,-4.2671,-4.3469,-4.4825,-4.6157,-4.6935,-4.5607,-4.5304,-4.4975,-4.3618,-4.329,-4.329,-4.329,-4.329,-4.329,-4.329,-4.329,-4.329,-4.329,-4.329,-4.321,-4.2996,-4.2795,-4.1935,-3.9901,-3.9448,-3.8662,-3.6849,-3.6675,-3.6675,-3.6675,-3.6675,-3.7381,-3.9197,-4.0958,-4.2078,-4.2392,-4.2622,-4.2729,-4.2729,-4.2915,-4.3036,-4.3036,-4.321,-4.329,-4.329,-4.329,-4.329,-4.329,-4.329,-4.309,-4.2729,-4.2688,-4.2474,-4.2133,-4.2133,-4.2133,-4.2133,-4.2133,-4.2133,-4.2092,-4.2092,-4.2092,-4.2092,0.0,0.0,0.0,0.0,0.0,0.0,-5.4512,-5.4512,-5.396,-5.2394,-5.2188,-5.1649,-5.0166,-5.0011,-5.0011,-5.0011,0.0,0.0,0.0,0.0,0.0,0.0,0.0,0.0,0.0,0.0,-4.7711,-4.7177,-4.6225,0.0,0.0,0.0,0.0,0.0,0.0,-4.3858,-4.3604,-4.3653,0.0,0.0,0.0,0.0,0.0,0.0,0.0,0.0,0.0,0.0,-4.0277,-3.9996,-4.0674,-4.1859,-4.2734,-4.3688,-4.4706,-4.5633,-4.6576,-4.71,-4.6172,-4.5618,-4.5065,-4.4152,-4.3589,-4.329,-4.329,-4.329,-4.329,-4.329,-4.329,-4.329,-4.329,-4.329,-4.325,-4.3036,-4.285,-4.217,-4.0603,-4.0202,-3.9329,-3.7487,-3.7222,-3.7036,-3.6452,-3.6405,-3.6943,-3.8251,-4.01,-4.124,-4.131,-4.2061,-4.2581,-4.2703,-4.2769,-4.2795,-4.2795,-4.289,-4.293,-4.293,-4.293,-4.301,-4.3115,-4.285,-4.2743,-4.2688,-4.2433,-4.2242,-4.2092,-4.2092,-4.2092,-4.2092,-4.2092,-4.2092,-4.2092,-4.2092,-4.2092,-4.2092,0.0,0.0,0.0,0.0,0.0,-5.4512,-5.4512,-5.4512,-5.4046,-5.2735,-5.2356,-5.1705,-5.0476,-5.0131,-5.0011,-5.0011,-5.0011,0.0,0.0,0.0,0.0,0.0,0.0,0.0,0.0,0.0,-4.8872,-4.8193,-4.7469,-4.6979,0.0,0.0,-4.5151,-4.5016,0.0,0.0,0.0,0.0,0.0,0.0,0.0,0.0,0.0,0.0,0.0,0.0,0.0,0.0,0.0,0.0,0.0,-4.2221,-4.3094,-4.4392,-4.5738,-4.6411,-4.6935,-4.716,-4.6459,-4.5978,-4.5439,-4.4766,-4.4107,-4.3589,-4.3589,-4.3424,-4.329,-4.329,-4.329,-4.329,-4.329,-4.325,-4.3155,0.0,0.0,-4.2225,-4.117,-4.0788,-4.0029,-3.8419,-3.8206,-3.7841,-3.6909,-3.6815,-3.7083,-3.7763,-3.9549,-4.0603,-4.0603,-4.1688,-4.2392,-4.25,-4.2581,-4.2622,-4.2622,-4.2648,-4.2688,-4.2688,-4.2688,-4.2769,-4.2915,-4.2622,-4.2541,-4.2581,-4.2325,-4.2133,-4.2092,-4.2092,-4.2092,-4.2092,-4.2092,-4.2092,-4.2092,-4.2092,-4.2092,-4.2092,0.0,0.0,0.0,0.0,0.0,0.0,-5.4512,-5.4512,-5.4236,-5.3494,-5.2701,-5.1912,-5.1183,-5.0442,-5.0011,-5.0011,-5.0011,0.0,0.0,0.0,0.0,0.0,0.0,0.0,0.0,0.0,-4.8717,-4.7704,-4.8161,-4.7852,-4.6911,-4.7404,-4.7371,-4.686,0.0,0.0,0.0,0.0,0.0,0.0,0.0,0.0,0.0,0.0,0.0,0.0,0.0,0.0,0.0,0.0,0.0,0.0,0.0,-4.4665,-4.6399,-4.71,-4.7294,-4.716,-4.6459,-4.6279,-4.6157,-4.5454,-4.4796,-4.4302,-4.4302,-4.3768,-4.329,-4.329,-4.329,-4.329,-4.329,-4.3155,-4.2981,-4.2981,-4.2648,0.0,-4.1128,-4.0788,-4.0246,-3.9285,-3.921,-3.881,-3.79,-3.7808,-3.7808,-3.7808,-3.9549,-4.0603,-4.0603,-4.1577,-4.2092,-4.2092,-4.2325,-4.2392,-4.2392,-4.2622,-4.2688,-4.2688,-4.2688,-4.2688,-4.2688,-4.2688,-4.2581,-4.2392,-4.2392,-4.2284,-4.2092,-4.2092,-4.2092,-4.2092,-4.2092,-4.2092,-4.2092,-4.2092,-4.2092,-4.2092,0.0,0.0,0.0,0.0,0.0,0.0,0.0,-5.4512,-5.4253,-5.3494,-5.3184,-5.2546,-5.1252,-5.0907,-5.0562,-5.0045,-5.0011,0.0,0.0,0.0,0.0,0.0,0.0,0.0,0.0,0.0,-4.9026,-4.8717,-4.8194,-4.7754,-4.7437,-4.6963,-4.6512,-4.6156,-4.6372,-4.6067,0.0,0.0,0.0,0.0,0.0,0.0,-4.1217,0.0,0.0,0.0,0.0,0.0,0.0,0.0,0.0,0.0,0.0,0.0,0.0,-4.6441,-4.695,-4.7249,-4.7055,-4.6666,-4.6277,-4.6052,-4.5484,-4.499,-4.499,-4.4825,-4.4676,-4.4676,-4.4195,-4.3775,-4.3775,-4.3227,-4.2795,-4.2795,-4.2581,-4.231,-4.1993,-4.1184,-4.0246,-3.9285,-3.8056,-3.7163,-3.6862,-3.6862,-3.6862,-3.6862,-3.7978,-3.8988,-3.9593,-4.0532,-4.1395,-4.2092,-4.2175,-4.2201,-4.2201,-4.2242,-4.2284,-4.2284,-4.2284,-4.2351,-4.2514,-4.2351,-4.231,-4.2392,-4.2242,-4.2175,-4.2092,-4.2092,-4.2092,-4.2092,-4.2092,-4.2092,-4.2092,-4.2092,-4.2092,-4.2092,0.0,0.0,0.0,0.0,0.0,0.0,0.0,-5.4512,-5.4339,-5.3891,-5.358,-5.3028,-5.208,-5.1718,-5.1235,-5.0493,-5.0424,0.0,0.0,0.0,0.0,0.0,0.0,0.0,-5.0011,-4.9453,-4.9087,-4.8886,-4.8097,-4.7605,-4.737,-4.6636,-4.6195,-4.5997,-4.6052,-4.5853,0.0,0.0,0.0,0.0,0.0,0.0,-4.1524,0.0,0.0,0.0,0.0,0.0,0.0,0.0,0.0,0.0,0.0,0.0,0.0,0.0,-4.6785,-4.7309,-4.7309,-4.701,-4.6696,-4.6696,-4.6187,-4.5678,-4.5678,-4.54,-4.5105,-4.4851,-4.4329,-4.3823,-4.3556,-4.3009,-4.2581,-4.2581,-4.2433,-4.2146,-4.1771,-4.1085,-4.0246,-3.9285,-3.7841,-3.6956,-3.6956,-3.6593,-3.6405,-3.6405,-3.7268,-3.8069,-3.8644,-3.9899,-4.0873,-4.1535,-4.1912,-4.2092,-4.2092,-4.2092,-4.2092,-4.2092,-4.2092,-4.2175,-4.2284,-4.2175,-4.2175,-4.2284,-4.2133,-4.2092,0.0,-4.2092,-4.2092,-4.2092,-4.2092,-4.2092,-4.2092,-4.2092,-4.1856,-4.1535,0.0,0.0,0.0,0.0,0.0,0.0,0.0,-5.4512,-5.4512,-5.4512,-5.3908,-5.346,-5.3408,-5.2735,-5.1981,-5.1252,0.0,0.0,0.0,0.0,0.0,0.0,0.0,0.0,-4.9935,-4.9453,-4.8934,-4.84,-4.7967,-4.7488,-4.6961,-4.6582,-4.6356,-4.6301,-4.5997,-4.5868,0.0,0.0,0.0,0.0,0.0,0.0,0.0,0.0,0.0,0.0,0.0,0.0,0.0,0.0,0.0,0.0,0.0,0.0,0.0,0.0,0.0,0.0,0.0,-4.7309,-4.7309,-4.7309,-4.6845,-4.6354,-4.6354,-4.5734,0.0,-4.4288,-4.3918,-4.3531,-4.288,-4.2529,-4.2392,-4.2392,-4.2201,-4.1758,-4.0731,-4.0504,-4.0073,-3.921,-3.8283,-3.7717,-3.7808,-3.6956,-3.6405,-3.6405,-3.7222,-3.7717,-3.7808,-3.9461,-4.0461,-4.0603,-4.1535,-4.2051,-4.2092,-4.2092,-4.2092,-4.2092,-4.2092,-4.2092,-4.2092,-4.2092,-4.2092,-4.2092,-4.2092,-4.2092,-4.2092,-4.2092,-4.2092,-4.2092,-4.2092,-4.2092,-4.2092,-4.2092,-4.1479,-4.0603,0.0,0.0,0.0,0.0,0.0,0.0,0.0,0.0,0.0,0.0,-5.4356,-5.4029,-5.346,-5.3235,-5.2804,0.0,0.0,0.0,0.0,0.0,0.0,0.0,0.0,0.0,-4.9394,-4.9256,-4.8934,-4.84,-4.8289,-4.7983,-4.7504,-4.7421,-4.6997,-4.6285,-4.6528,-4.6458,0.0,0.0,0.0,0.0,0.0,0.0,0.0,0.0,0.0,0.0,-4.0489,-4.0489,0.0,0.0,0.0,0.0,0.0,0.0,0.0,0.0,-4.5633,-4.6666,-4.7174,0.0,-4.7309,-4.7309,-4.7189,-4.707,0.0,-4.6763,-4.6278,-4.5682,-4.4809,-4.3969,-4.3365,-4.2646,-4.2175,-4.2175,-4.2133,-4.1758,-4.0731,-3.9373,-3.8373,-3.816,-3.7302,-3.6989,-3.7717,-3.6956,-3.6405,-3.6405,-3.6581,-3.7036,-3.7763,-3.8206,-3.9121,-4.0546,-4.0831,-4.1339,-4.2092,-4.2092,-4.2092,-4.2092,-4.2092,-4.2092,-4.2092,-4.2092,-4.2092,-4.2092,-4.2092,-4.2092,-4.2092,-4.2092,-4.2092,-4.2092,-4.2092,-4.2092,-4.2092,-4.2092,-4.1479,-4.0603,0.0,0.0,0.0,0.0,0.0,0.0,0.0,0.0,0.0,0.0,0.0,0.0,0.0,0.0,0.0,0.0,0.0,0.0,0.0,0.0,0.0,0.0,0.0,-4.986,-4.956,-4.9316,-4.9209,-4.9251,-4.879,-4.8597,-4.8693,-4.8058,-4.7493,-4.6971,-4.6507,-4.6029,0.0,0.0,0.0,0.0,-4.3621,0.0,0.0,0.0,0.0,0.0,-4.0489,-4.0489,0.0,-4.0401,-4.0242,-4.0082,0.0,0.0,0.0,0.0,-4.4586,-4.5618,-4.6591,-4.707,-4.7309,-4.7309,-4.7309,-4.7309,-4.7309,-4.678,-4.6105,-4.5526,-4.4479,-4.3538,-4.2911,-4.2016,-4.1577,-4.2009,-4.1367,-4.0589,-4.0029,-3.872,-3.7808,-3.7808,-3.7361,-3.7083,-3.7129,-3.6675,-3.6405,-3.6405,-3.6405,-3.6628,-3.7129,-3.7592,-3.8283,-3.9285,-4.0159,-4.1057,-4.2092,-4.1633,-4.1395,-4.1395,-4.1001,-4.1001,-4.1395,-4.1395,-4.1675,-4.2092,-4.2092,-4.2092,-4.2092,-4.2092,-4.1814,-4.1395,-4.1395,-4.1395,-4.1353,-4.0916,-4.0403,-3.9899,0.0,0.0,0.0,0.0,0.0,0.0,0.0,0.0,0.0,0.0,0.0,0.0,0.0,0.0,0.0,0.0,0.0,0.0,0.0,0.0,0.0,0.0,0.0,-5.0309,-5.0221,-4.9765,-4.9794,-5.036,-4.936,-4.9185,-4.9776,-4.8508,-4.7868,-4.7738,-4.6493,-4.5549,0.0,0.0,-4.4793,-4.4593,-4.3393,0.0,0.0,0.0,0.0,0.0,0.0,0.0,0.0,-4.0489,-4.0261,-4.0102,-4.0663,0.0,0.0,0.0,0.0,0.0,-4.5813,-4.6651,-4.7174,-4.7279,-4.7309,-4.7279,-4.7174,-4.6352,-4.5414,-4.4706,-4.3723,-4.2761,-4.2013,-4.1296,-4.1057,-4.1773,-4.0374,-3.9166,-3.9033,-3.8192,-3.7625,-3.7763,-3.7671,-3.7315,-3.6675,-3.6499,-3.6405,-3.6405,-3.6405,-3.6405,-3.6405,-3.7129,-3.7625,-3.7808,-3.9329,-4.066,-4.1647,-4.0972,-4.0504,-4.0375,-3.9593,-3.9637,-4.0375,-4.0375,-4.093,-4.1856,-4.1856,-4.1953,-4.2092,-4.1953,-4.1395,-4.0603,-4.0418,-4.0375,-4.0289,-3.9505,-3.9121,-3.8854,0.0,0.0,0.0,0.0,0.0,0.0,0.0,0.0,0.0,0.0,0.0,0.0,0.0,0.0,0.0,0.0,0.0,0.0,0.0,0.0,0.0,-5.1895,-5.1843,-5.1691,-5.1273,-5.1131,-5.0911,-5.0557,-4.9991,-4.9595,-4.9303,-4.8695,-4.8196,-4.7792,-4.7568,-4.7089,-4.6444,-4.6106,-4.5628,-4.5046,-4.4507,0.0,0.0,0.0,0.0,0.0,0.0,0.0,0.0,-4.0489,-4.0261,-4.0026,-4.0132,0.0,0.0,0.0,0.0,0.0,-4.5095,-4.5948,-4.6606,-4.7174,-4.7309,-4.716,-4.6563,-4.6025,-4.5281,-4.4101,-4.3401,-4.2564,-4.1086,-4.1395,-4.1633,-4.0916,-3.9899,-3.8899,-3.8115,-3.7222,-3.6909,-3.7717,-3.7083,-3.6862,-3.7533,-3.6862,-3.6405,-3.6405,-3.6405,-3.6405,-3.6405,-3.6546,-3.6989,-3.7763,-3.8069,-3.8689,-3.9651,-4.0303,-4.0202,-3.9417,-3.9285,-3.9285,-3.9417,-3.9417,-3.9942,-4.0831,-4.0831,-4.1296,-4.2051,-4.1156,-4.0731,-4.0504,-3.9724,-3.9417,-3.9417,-3.9241,-3.8675,-3.7887,0.0,0.0,0.0,0.0,0.0,0.0,0.0,0.0,0.0,0.0,0.0,0.0,0.0,0.0,0.0,0.0,0.0,0.0,0.0,0.0,-5.3839,-5.3477,-5.346,-5.2815,-5.1473,-5.1182,-5.0992,-5.0874,-5.0112,-4.9823,-5.0008,-4.9273,-4.8482,-4.7683,-4.7683,-4.731,-4.6671,-4.6478,-4.6052,-4.5347,0.0,0.0,0.0,0.0,0.0,0.0,0.0,0.0,0.0,0.0,-4.0331,-4.0137,-4.0031,0.0,0.0,0.0,0.0,0.0,-4.3808,-4.4751,-4.5484,-4.6516,-4.6895,-4.6898,-4.6286,-4.5513,-4.464,-4.3742,-4.2996,-4.2132,-4.083,-4.0575,-4.0057,-3.8572,-3.8405,-3.8283,-3.7854,-3.7441,-3.7315,-3.7763,-3.7394,-3.7129,-3.7036,-3.6628,-3.6405,-3.6405,-3.6405,-3.6405,-3.6405,-3.6405,-3.6593,-3.7049,-3.7546,-3.775,-3.7704,-3.863,-3.8854,-3.8419,-3.7919,-3.7965,-3.8464,-3.8988,-3.9724,-4.0603,-4.0603,-4.0873,-4.1198,-4.026,-3.9549,-3.9033,-3.8599,-3.8419,-3.8419,-3.8419,-3.7841,-3.6989,0.0,0.0,0.0,0.0,0.0,0.0,0.0,0.0,0.0,0.0,0.0,0.0,0.0,0.0,0.0,0.0,0.0,0.0,0.0,0.0,-5.4512,-5.4512,-5.4448,-5.369,-5.2096,-5.1444,-5.1194,-5.1274,-5.0117,-4.9764,-5.0197,-4.947,-4.867,-4.7835,-4.7835,-4.7465,-4.6834,-4.6834,-4.6357,-4.5541,0.0,0.0,0.0,0.0,0.0,0.0,0.0,0.0,0.0,0.0,0.0,0.0,0.0,0.0,0.0,-4.0081,-4.0277,-4.0801,-4.2641,-4.3718,-4.4601,-4.5783,-4.639,-4.653,-4.5919,-4.4884,-4.3899,-4.3297,-4.2397,-4.1451,-4.0475,-3.9505,-3.8405,-3.6943,-3.7315,-3.7717,-3.75,-3.7487,-3.7487,-3.7487,-3.7487,-3.7176,-3.6452,-3.6405,-3.6405,-3.6405,-3.6405,-3.6405,-3.6405,-3.6405,-3.6405,-3.6405,-3.7083,-3.7129,-3.6405,-3.7129,-3.7487,-3.7441,-3.6722,-3.6769,-3.7487,-3.8464,-3.9241,-3.9942,-4.0159,-4.0289,-4.0202,-3.9241,-3.8464,-3.7763,-3.7579,-3.7487,-3.7487,-3.7487,-3.7002,-3.6405,0.0,0.0,0.0,0.0,0.0,0.0,0.0,0.0,0.0,0.0,0.0,0.0,0.0,0.0,0.0,0.0,0.0,0.0,0.0,0.0,-5.4512,-5.4512,-5.4335,-5.4139,-5.4004,-5.2756,-5.2023,-5.1839,-5.0149,-4.9132,-4.8769,-4.8687,-4.8589,-4.8543,-4.8543,-4.8173,-4.7527,-4.7527,-4.6788,-4.5588,-4.5541,0.0,0.0,0.0,0.0,0.0,0.0,0.0,0.0,0.0,0.0,0.0,0.0,0.0,-3.9661,-3.9505,-3.9918,-4.0696,-4.2096,-4.3359,-4.4481,-4.5185,-4.5704,-4.589,-4.5194,-4.4263,-4.3282,-4.2597,-4.1521,-4.0432,-3.9461,-3.8554,-3.7854,-3.7717,-3.7763,-3.75,-3.6628,-3.6499,-3.6499,-3.6499,-3.6499,-3.6452,-3.6405,-3.6405,-3.6405,-3.6405,-3.6405,-3.6405,-3.6405,-3.6405,-3.6405,-3.6405,-3.6452,-3.6452,-3.6405,-3.6452,-3.6499,-3.6499,-3.6452,-3.6452,-3.6546,-3.7487,-3.7946,-3.8069,-3.8899,-3.9285,-3.9241,-3.8283,-3.7854,-3.7717,-3.6862,-3.6499,-3.6499,-3.6499,-3.6452,-3.6405,0.0,0.0,0.0,0.0,0.0,0.0,0.0,0.0,0.0,0.0,0.0,0.0,0.0,0.0,0.0,0.0,0.0,0.0,0.0,-5.4512,-5.4512,-5.4512,-5.411,-5.3716,-5.3332,-5.2227,-5.1171,-5.0267,-4.9325,-4.8785,-4.862,-4.862,-4.862,-4.862,-4.862,-4.8481,-4.8235,-4.8235,-4.7696,-4.6803,-4.6388,-4.5003,0.0,0.0,0.0,0.0,0.0,0.0,0.0,0.0,-4.047,-4.0366,-4.0101,-3.996,-3.9818,-3.9496,-3.9589,-4.0083,-4.1384,-4.2701,-4.3828,-4.4526,-4.5019,-4.5179,-4.4386,-4.3629,-4.2958,-4.2332,-4.1324,-4.0116,-3.8599,-3.7579,-3.6956,-3.6956,-3.6956,-3.6815,-3.6452,-3.6405,-3.6405,-3.6405,-3.6405,-3.6405,-3.6405,-3.6405,-3.6405,-3.6405,-3.6405,-3.6405,-3.6405,-3.6405,-3.6405,-3.6405,-3.6405,-3.6405,-3.6405,-3.6405,-3.6405,-3.6405,-3.6405,-3.6405,-3.6452,-3.7361,-3.7808,-3.7808,-3.8206,-3.8328,-3.8251,-3.7315,-3.6956,-3.6909,-3.6546,-3.6405,-3.6405,-3.6405,-3.6405,-3.6405,0.0,0.0,0.0,0.0,0.0,0.0,0.0,0.0,0.0,0.0,0.0,0.0,0.0,0.0,0.0,0.0,0.0,0.0,-5.4512,-5.4512,-5.4399,-5.4239,-5.3716,-5.3026,-5.2156,-5.1283,-5.0422,-4.9501,-4.8893,-4.862,-4.862,-4.862,-4.862,-4.862,-4.862,-4.862,-4.862,-4.862,-4.8219,-4.7542,-4.6865,-4.5387,0.0,0.0,0.0,0.0,0.0,0.0,0.0,0.0,-4.0489,-4.042,-4.0101,-4.0011,-3.9925,-3.9532,-3.9388,-3.9709,-4.1025,-4.2177,-4.318,-4.3838,-4.4307,-4.4288,-4.318,-4.2882,-4.2571,-4.1803,-4.0589,-3.9241,-3.7671,-3.6815,-3.6405,-3.6405,-3.6405,-3.6405,-3.6405,-3.6405,-3.6405,-3.6405,-3.6405,-3.6405,-3.6405,-3.6405,-3.6405,-3.6405,-3.6405,-3.6405,-3.6405,-3.6405,-3.6405,-3.6405,-3.6405,-3.6405,-3.6405,-3.6405,-3.6405,-3.6405,-3.6405,-3.6405,-3.6452,-3.7361,-3.7625,-3.7361,-3.7671,-3.7625,-3.7315,-3.6675,-3.6405,-3.6405,-3.6405,-3.6405,-3.6405,-3.6405,-3.6405,-3.6405,0.0,0.0,0.0,0.0,0.0,0.0,0.0,0.0,0.0,0.0,0.0,0.0,0.0,0.0,0.0,0.0,0.0,0.0,-5.4512,-5.448,-5.4239,-5.37,-5.3094,-5.212,-5.0719,-5.0151,-4.9884,-4.9884,-4.9,-4.862,-4.862,-4.862,-4.862,-4.862,-4.862,-4.862,-4.862,-4.862,-4.8235,-4.7558,-4.6865,-4.5387,-4.3547,0.0,0.0,0.0,0.0,0.0,0.0,0.0,-4.0489,-4.042,-4.0101,-4.0011,-3.9925,-3.9532,-3.9388,-3.9709,-4.1025,-4.1901,-4.2545,-4.3125,-4.35,-4.3263,-4.1663,-4.184,-4.2034,-4.0817,-3.9077,-3.7487,-3.6593,-3.6405,-3.6405,-3.6405,-3.6405,-3.6405,-3.6405,-3.6405,-3.6405,-3.6405,-3.6405,-3.6405,-3.6405,-3.6405,-3.6405,-3.6405,-3.6405,-3.6405,-3.6405,-3.6405,-3.6405,-3.6405,-3.6405,-3.6405,-3.6405,-3.6405,-3.6405,-3.6405,-3.6405,-3.6405,-3.6452,-3.7361,-3.7268,-3.6452,-3.7361,-3.7268,-3.6405,-3.6417,-3.6417,-3.6417,-3.6417,-3.6417,-3.6405,-3.6405,-3.6405,-3.6405,0.0,0.0,0.0,0.0,0.0,0.0,0.0,0.0,0.0,0.0,0.0,0.0,0.0,0.0,0.0,0.0,0.0,0.0,-5.3948,-5.3533,-5.3094,-5.2647,-5.2117,-5.1352,-5.0313,-4.9414,-4.8975,-4.8975,-4.8728,-4.862,-4.862,-4.862,-4.862,-4.862,-4.862,-4.862,-4.862,-4.862,-4.8496,-4.8204,-4.7065,-4.5664,-4.4194,0.0,0.0,0.0,0.0,0.0,0.0,0.0,0.0,0.0,-4.0261,-4.0101,-3.994,-3.9696,-3.9517,-3.9709,-4.1025,-4.1901,-4.2545,-4.3125,-4.3242,-4.2858,-4.1607,-4.1212,-4.066,-3.8988,-3.8206,-3.7487,-3.6593,-3.6405,-3.6405,-3.6405,-3.6405,-3.6405,-3.6405,-3.6405,-3.6405,-3.6405,-3.6405,-3.6405,-3.6405,-3.6405,-3.6405,-3.6405,-3.6405,-3.6405,-3.6405,-3.6405,-3.6405,-3.6405,-3.6405,-3.6405,-3.6405,-3.6405,-3.6405,-3.6405,-3.6405,-3.6405,-3.6405,-3.6675,-3.6675,-3.6417,-3.6675,-3.6675,-3.6443,-3.6832,-3.6935,-3.6935,-3.6935,-3.6757,-3.6405,-3.6405,-3.6405,-3.6405,0.0,0.0,0.0,0.0,0.0,0.0,0.0,0.0,0.0,0.0,0.0,0.0,0.0,0.0,0.0,0.0,0.0,0.0,0.0,-5.2854,-5.2366,-5.1902,-5.1241,-5.0445,-4.9519,-4.8918,-4.862,-4.862,-4.862,-4.862,-4.862,-4.862,-4.862,-4.862,-4.862,-4.862,-4.862,-4.862,-4.862,-4.8496,-4.7142,-4.5788,-4.4433,0.0,0.0,0.0,0.0,0.0,0.0,0.0,0.0,0.0,-4.0331,-4.0172,-3.996,-3.9768,-3.9553,-3.9709,-4.1025,-4.1707,-4.2192,-4.3065,-4.2887,-4.2035,-4.0443,-3.9782,-3.9166,-3.8024,-3.75,-3.7083,-3.6499,-3.6405,-3.6405,-3.6405,-3.6405,-3.6405,-3.6405,-3.6405,-3.6405,-3.6405,-3.6405,-3.6405,-3.6405,-3.6405,-3.6405,-3.6405,-3.6405,-3.6405,-3.6405,-3.6405,-3.6405,-3.6405,-3.6405,-3.6405,-3.6405,-3.6405,-3.6405,-3.6405,-3.6405,-3.6405,-3.6405,-3.6405,-3.6405,-3.6417,-3.6644,-3.6857,-3.7048,-3.7374,-3.7513,-3.7513,-3.7513,-3.7312,-3.6985,-3.682,-3.6732,-3.6707,0.0,0.0,0.0,0.0,0.0,0.0,0.0,0.0,0.0,0.0,0.0,0.0,0.0,0.0,0.0,0.0,0.0,0.0,0.0,0.0,-5.1776,-5.1236,-5.0422,-4.9534,-4.862,-4.862,-4.862,-4.862,-4.862,-4.862,-4.862,-4.862,-4.862,-4.862,-4.862,-4.862,-4.862,-4.8543,-4.8558,-4.8496,-4.7065,-4.5726,-4.4433,-4.311,0.0,0.0,0.0,0.0,0.0,0.0,0.0,0.0,-4.0381,-4.0172,-3.996,-3.9768,-3.9553,-3.9709,-4.1025,-4.1422,-4.1698,-4.2882,-4.2307,-4.0859,-3.8639,-3.7913,-3.7671,-3.7671,-3.6989,-3.6405,-3.6405,-3.6405,-3.6405,-3.6405,-3.6405,-3.6405,-3.6405,-3.6405,-3.6405,-3.6405,-3.6405,-3.6405,-3.6405,-3.6405,-3.6405,-3.6405,-3.6405,-3.6405,-3.6405,-3.6405,-3.6405,-3.6405,-3.6405,-3.6405,-3.6405,-3.6405,-3.6405,-3.6405,-3.6405,-3.6405,-3.6405,-3.6405,-3.643,-3.6518,-3.7023,-3.7575,-3.809,-3.809,-3.809,-3.809,-3.809,-3.8052,-3.7952,-3.745,-3.7262,-3.7186,0.0,0.0,0.0,0.0,0.0,0.0,0.0,0.0,0.0,0.0,0.0,0.0,0.0,0.0,0.0,0.0,0.0,0.0,0.0,0.0,-5.0531,-4.9765,-4.9203,-4.8795,-4.8604,-4.862,-4.862,-4.862,-4.862,-4.862,-4.862,-4.862,-4.862,-4.862,-4.862,-4.862,-4.8573,-4.805,-4.8127,-4.845,-4.6557,-4.5311,-4.4433,-4.311,-4.174,0.0,0.0,0.0,0.0,0.0,0.0,0.0,-4.047,-4.0242,-3.9996,-3.996,-3.9676,-3.9709,-4.1025,-4.1422,-4.153,-4.2133,-4.0873,-3.9162,-3.7939,-3.7294,-3.6896,-3.6722,-3.6546,-3.6405,-3.6405,-3.6405,-3.6405,-3.6405,-3.6405,-3.6405,-3.6405,-3.6405,-3.6405,-3.6405,-3.6405,-3.6405,-3.6405,-3.6405,-3.6405,-3.6405,-3.6405,-3.6405,-3.6405,-3.6405,-3.6405,-3.6405,-3.6405,-3.6405,-3.6405,-3.6405,-3.6405,-3.6405,-3.6405,-3.6405,-3.6405,-3.6405,-3.6644,-3.7036,-3.7588,-3.8153,-3.873,-3.873,-3.873,-3.873,-3.873,-3.8404,-3.799,-3.7877,-3.7826,-3.7751,0.0,0.0,0.0,0.0,0.0,0.0,0.0,0.0,0.0,0.0,0.0,0.0,0.0,0.0,0.0,0.0,0.0,0.0,0.0,0.0,-4.9622,-4.8975,-4.8744,-4.862,-4.862,-4.862,-4.862,-4.862,-4.862,-4.862,-4.862,-4.862,-4.862,-4.862,-4.862,-4.862,-4.8573,-4.7896,-4.7804,-4.7973,-4.6265,-4.5187,-4.4433,-4.311,-4.1955,-4.1001,-4.0612,0.0,0.0,0.0,0.0,0.0,0.0,0.0,-4.0137,-4.0031,-3.9783,-3.9802,-4.1063,-4.1422,-4.1415,-4.1313,-4.0518,-3.9326,-3.7848,-3.7261,-3.6968,-3.664,-3.6452,-3.6405,-3.6405,-3.6405,-3.6405,-3.6405,-3.6405,-3.6405,-3.6405,-3.6405,-3.6405,-3.6405,-3.6405,-3.6405,-3.6405,-3.6405,-3.6405,-3.6405,-3.6405,-3.6405,-3.6405,-3.6405,-3.6405,-3.6405,-3.6405,-3.6405,-3.6405,-3.6405,-3.6405,-3.6405,-3.6405,-3.6543,-3.6807,-3.6807,-3.7109,-3.7613,-3.8178,-3.8743,-3.927,-3.927,-3.927,-3.927,-3.927,-3.9082,-3.8781,-3.8517,-3.8417,-3.8341,0.0,0.0,0.0,0.0,0.0,0.0,0.0,0.0,0.0,0.0,0.0,0.0,0.0,0.0,0.0,0.0,0.0,0.0,0.0,0.0,0.0,-4.862,-4.862,-4.862,-4.862,-4.862,-4.862,-4.862,-4.862,-4.862,-4.862,-4.862,-4.862,-4.862,-4.862,-4.8558,-4.8389,-4.7711,-4.7434,-4.7311,-4.5957,-4.508,-4.4486,-4.3233,-4.2279,-4.1524,-4.0889,-4.0597,-4.0489,-4.0489,0.0,0.0,0.0,0.0,-4.0277,-4.0066,-3.9854,-3.9947,-4.11,-4.1458,-4.1396,-4.0941,-4.0603,-3.9913,-3.8187,-3.7631,-3.7353,-3.6922,-3.6628,-3.6452,-3.6405,-3.6405,-3.6405,-3.6405,-3.6405,-3.6405,-3.6405,-3.6405,-3.6405,-3.6405,-3.6405,-3.6405,-3.6405,-3.6405,-3.6405,-3.6405,-3.6405,-3.6405,-3.6405,-3.6405,-3.6405,-3.6405,-3.6405,-3.6405,-3.6405,-3.6405,-3.6405,-3.6405,-3.6405,-3.6694,-3.7186,-3.7287,-3.7626,-3.8191,-3.8768,-3.927,-3.9697,-3.9697,-3.9697,-3.9697,-3.9697,-3.9697,-3.9634,-3.9182,-3.9057,-3.8931,0.0,0.0,0.0,0.0,0.0,0.0,0.0,0.0,0.0,0.0,0.0,0.0,0.0,0.0,0.0,0.0,0.0,0.0,0.0,0.0,0.0,-4.862,-4.862,-4.862,-4.862,-4.862,-4.862,-4.862,-4.862,-4.862,-4.862,-4.862,-4.862,-4.862,-4.862,-4.8296,-4.7696,-4.7019,-4.6726,-4.6619,-4.5249,-4.4702,-4.4533,-4.3762,-4.2679,-4.1586,-4.1494,-4.1047,-4.0489,-4.0489,-4.0489,0.0,0.0,0.0,-4.0277,-4.0066,-3.9854,-3.9947,-4.11,-4.1632,-4.1896,-4.1823,-4.0603,-3.9285,-3.9033,-3.8232,-3.7459,-3.7413,-3.7015,-3.6628,-3.6452,-3.6405,-3.6405,-3.6405,-3.6405,-3.6405,-3.6405,-3.6405,-3.6405,-3.6405,-3.6405,-3.6405,-3.6405,-3.6405,-3.6405,-3.6405,-3.6405,-3.6405,-3.6405,-3.6405,-3.6405,-3.6405,-3.6405,-3.6405,-3.6405,-3.6405,-3.6405,-3.6405,-3.6405,-3.6694,-3.7199,-3.7676,-3.8216,-3.8831,-3.9346,-3.9622,-3.9697,-3.9697,-3.9697,-3.9697,-3.9697,-3.9697,-3.9685,-3.9609,-3.9584,-3.9509,0.0,0.0,0.0,0.0,0.0,0.0,0.0,0.0,0.0,0.0,0.0,0.0,0.0,0.0,0.0,0.0,0.0,0.0,0.0,0.0,0.0,-4.862,-4.862,-4.862,-4.862,-4.862,-4.8435,-4.805,-4.8435,-4.8419,-4.8065,-4.8435,-4.862,-4.862,-4.862,-4.8235,-4.7558,-4.688,-4.6372,-4.5942,-4.501,-4.461,-4.4548,-4.387,-4.3239,-4.2663,-4.2294,-4.1709,-4.1124,-4.1124,-4.0828,-4.0489,-4.0489,0.0,0.0,0.0,-4.0031,-4.0105,-4.1138,-4.2054,-4.2618,-4.2114,-4.138,-4.0504,-3.9417,-3.8823,-3.8264,-3.7631,-3.7307,-3.7015,-3.6628,-3.6581,-3.6534,-3.6405,-3.6405,-3.6405,-3.6405,-3.6405,-3.6405,-3.6405,-3.6405,-3.6405,-3.6405,-3.6405,-3.6405,-3.6405,-3.6405,-3.6405,-3.6405,-3.6405,-3.6405,-3.6405,-3.6405,-3.6405,-3.6405,-3.6405,-3.6405,-3.6405,-3.6405,-3.6857,-3.7651,-3.7902,-3.8329,-3.8957,-3.9459,-3.9697,-3.9697,-3.9697,-3.9697,-3.9697,-3.9697,-3.9697,-3.9697,-3.9697,-3.9697,-3.9659,0.0,0.0,0.0,0.0,0.0,0.0,0.0,0.0,0.0,0.0,0.0,0.0,0.0,0.0,0.0,0.0,0.0,0.0,0.0,0.0,0.0,-4.8358,-4.8358,-4.8281,-4.8112,-4.8096,-4.785,-4.7357,-4.8019,-4.8096,-4.7619,-4.8296,-4.862,-4.862,-4.862,-4.8142,-4.7311,-4.6803,-4.6095,-4.528,-4.4825,-4.461,-4.4564,-4.4055,-4.3762,-4.3531,-4.3017,-4.2417,-4.1848,-4.1848,-4.1386,-4.0766,-4.0766,-4.0643,0.0,0.0,0.0,-4.058,-4.1228,-4.2342,-4.313,-4.2496,-4.2155,-4.1561,-3.9942,-3.9373,-3.8912,-3.7815,-3.7598,-3.7459,-3.7015,-3.6815,-3.6675,-3.6499,-3.6452,-3.6405,-3.6405,-3.6405,-3.6405,-3.6405,-3.6405,-3.6405,-3.6405,-3.6405,-3.6405,-3.6405,-3.6405,-3.6405,-3.6405,-3.6405,-3.6405,-3.6405,-3.6405,-3.6405,-3.6405,-3.6405,-3.6405,-3.6405,-3.6556,-3.7073,-3.8015,-3.8165,-3.8542,-3.9158,-3.9521,-3.9697,-3.9697,-3.9697,-3.9697,-3.9697,-3.9697,-3.9697,-3.9697,-3.9697,-3.9697,-3.9697,0.0,0.0,0.0,0.0,0.0,0.0,0.0,0.0,0.0,0.0,0.0,0.0,-4.9316,-4.9637,-4.9517,-4.8646,0.0,0.0,0.0,0.0,0.0,-4.7681,-4.765,0.0,-4.6711,-4.6696,-4.668,-4.665,-4.7327,-4.7635,-4.7619,-4.8296,-4.862,-4.862,-4.862,-4.7881,-4.665,-4.6603,-4.5834,-4.4671,-4.4625,-4.461,-4.461,-4.4579,-4.4163,-4.3608,-4.3562,-4.311,-4.2556,-4.2556,-4.2109,-4.154,-4.154,-4.1078,-4.0455,0.0,0.0,0.0,-4.1445,-4.2342,-4.329,-4.325,-4.2618,-4.1728,-4.0774,-3.9855,-3.8957,-3.807,-3.7854,-3.7808,-3.7505,-3.7062,-3.6709,-3.6675,-3.6546,-3.6405,-3.6405,-3.6405,-3.6405,-3.6405,-3.6405,-3.6405,-3.6405,-3.6405,-3.6405,-3.6405,-3.6405,-3.6405,-3.6405,-3.6405,-3.6405,-3.6405,-3.6405,-3.6405,-3.6405,-3.6405,-3.6405,-3.6417,-3.6933,-3.745,-3.8027,-3.858,-3.9132,-3.9647,-3.9685,-3.9697,-3.9697,-3.9697,-3.9697,-3.9697,-3.9697,-3.9697,-3.9697,-3.9697,-3.9697,-3.9697,0.0,0.0,0.0,0.0,0.0,0.0,0.0,0.0,0.0,0.0,0.0,0.0,0.0,-4.8602,-4.8283,-4.8014,-4.7735,0.0,0.0,0.0,0.0,-4.6973,-4.6957,-4.685,-4.6603,-4.6603,-4.6603,-4.6603,-4.7281,-4.7604,-4.7619,-4.8296,-4.862,-4.862,-4.862,-4.7784,-4.6404,-4.6404,-4.5544,-4.4243,-4.4358,-4.4396,-4.4435,-4.4549,-4.4471,-4.4255,-4.4255,-4.3824,-4.3217,-4.3217,-4.2786,-4.2248,-4.2248,-4.2063,-4.1827,-4.1633,-4.2034,-4.2486,-4.2296,-4.2749,-4.329,-4.329,-4.309,-4.2441,-4.0944,-4.0332,-3.9664,-3.8194,-3.79,-3.7854,-3.7749,-3.7459,-3.7168,-3.6968,-3.6769,-3.6581,-3.6581,-3.6499,-3.6405,-3.6405,-3.6405,-3.6405,-3.6405,-3.6405,-3.6405,-3.6405,-3.6405,-3.6405,-3.6405,-3.6405,-3.6405,-3.6405,-3.6405,-3.6405,-3.6405,-3.6405,-3.6405,-3.6417,-3.6923,-3.7475,-3.8027,-3.8605,-3.917,-3.9697,-3.9697,-3.9697,-3.9697,-3.9697,-3.9697,-3.9697,-3.9697,-3.9697,-3.9697,-3.9697,-3.9697,-3.9697,0.0,0.0,0.0,0.0,0.0,0.0,0.0,0.0,0.0,-4.8266,0.0,0.0,0.0,0.0,-4.7265,-4.7265,-4.6865,-4.6603,-4.6603,-4.6603,-4.6496,-4.6265,-4.6249,-4.6157,-4.5926,-4.6142,-4.6249,-4.6249,-4.7157,-4.7604,-4.7619,-4.8296,-4.8578,-4.848,-4.8249,-4.7446,-4.6269,-4.6015,-4.5148,-4.4026,-4.4143,-4.4243,-4.432,-4.4473,-4.4549,-4.461,-4.461,-4.4317,-4.3947,-4.3947,-4.3479,-4.2925,-4.2925,-4.2786,-4.2529,-4.2294,-4.2582,-4.2948,-4.268,-4.2929,-4.329,-4.329,-4.329,-4.282,-4.1014,-4.0603,-4.01,-3.8285,-3.79,-3.79,-3.79,-3.7749,-3.7564,-3.7261,-3.6909,-3.6709,-3.6709,-3.6534,-3.6405,-3.6405,-3.6405,-3.6405,-3.6405,-3.6405,-3.6405,-3.6405,-3.6405,-3.6405,-3.6405,-3.6405,-3.6405,-3.6405,-3.6405,-3.6405,-3.6405,-3.6405,-3.6405,-3.6417,-3.7111,-3.7651,-3.804,-3.8793,-3.9346,-3.9697,-3.9697,-3.9697,-3.9697,-3.9697,-3.9697,-3.9697,-3.9697,-3.9697,-3.9697,-3.9697,-3.9697,-3.9697,0.0,0.0,0.0,0.0,0.0,0.0,0.0,0.0,-4.7573,-4.7573,0.0,0.0,0.0,0.0,0.0,-4.6542,-4.6542,-4.6542,-4.6542,-4.6542,-4.6249,-4.5618,0.0,0.0,-4.4687,-4.528,-4.5634,-4.5649,-4.6957,-4.7619,-4.765,-4.8312,-4.848,-4.8225,-4.7553,-4.688,-4.6207,-4.5327,-4.4595,-4.3988,-4.3988,-4.4104,-4.4281,-4.4281,-4.4396,-4.4572,-4.4572,-4.4572,-4.4572,-4.4572,-4.4141,-4.3639,-4.3639,-4.3171,-4.2554,-4.2171,-4.2515,-4.294,0.0,0.0,0.0,-4.329,-4.329,-4.282,-4.1071,-4.0646,-4.0144,-3.833,-3.7946,-3.7946,-3.79,-3.79,-3.7808,-3.7551,-3.7062,-3.6709,-3.6709,-3.6534,-3.6405,-3.6405,-3.6405,-3.6405,-3.6405,-3.6405,-3.6405,-3.6405,-3.6405,-3.6405,-3.6405,-3.6405,-3.6405,-3.6405,-3.6405,-3.6405,-3.6405,-3.6405,-3.6405,-3.6417,-3.7475,-3.8002,-3.8052,-3.9182,-3.9697,-3.9697,-3.9697,-3.9697,-3.9697,-3.9697,-3.9697,-3.9697,-3.9697,-3.9697,-3.9697,-3.9697,-3.9697,-3.9697,0.0,0.0,0.0,0.0,0.0,0.0,-4.7234,-4.7004,-4.688,0.0,0.0,0.0,-4.6603,-4.6157,-4.5664,-4.5187,-4.5126,-4.5126,-4.5126,-4.5126,-4.528,-4.5572,-4.5588,-4.5726,-4.6034,-4.6219,-4.6557,-4.705,-4.7419,-4.785,-4.8343,-4.8361,-4.811,-4.7537,-4.6553,-4.5763,-4.5127,-4.4866,-4.4278,-4.3503,-4.3714,-4.3832,-4.3871,-4.4026,-4.4127,-4.4181,-4.4181,-4.4181,-4.4181,-4.4181,-4.4121,-4.4121,-4.4121,-4.3884,-4.3594,-4.3479,-4.3501,-4.3482,-4.3365,0.0,0.0,0.0,0.0,0.0,-4.1852,-4.1603,-4.1085,-3.9224,-3.8836,-3.8639,-3.8024,-3.79,-3.7854,-3.7808,-3.7505,-3.7261,-3.7261,-3.6922,-3.6628,-3.6628,-3.6499,-3.6405,-3.6405,-3.6405,-3.6405,-3.6405,-3.6405,-3.6405,-3.6405,-3.6405,-3.6405,-3.6405,-3.6405,-3.6405,-3.6405,-3.6405,-3.6405,-3.6417,-3.7475,-3.8002,-3.8052,-3.9182,-3.9697,-3.9697,-3.9697,-3.9697,-3.9697,-3.9697,-3.9697,-3.9697,-3.9697,-3.9697,-3.9697,-3.9697,-3.9697,-3.9697,0.0,0.0,0.0,0.0,0.0,-4.705,-4.6665,-4.6357,-4.6172,0.0,0.0,0.0,-4.5757,-4.5403,-4.5041,-4.4618,-4.461,-4.4733,-4.4987,-4.5041,-4.5295,-4.5972,-4.6003,-4.6188,-4.6588,-4.6865,-4.7219,-4.7604,-4.7881,-4.8178,-4.8453,-4.8079,-4.7577,-4.6943,-4.5787,-4.4991,-4.4519,-4.4248,-4.3808,-4.329,-4.3463,-4.3596,-4.3729,-4.3847,-4.391,-4.3988,-4.3988,-4.3988,-4.3988,-4.3988,-4.4065,-4.4166,-4.4166,-4.4089,-4.3988,-4.391,-4.3808,-4.369,-4.3557,-4.3423,-4.329,-4.329,0.0,0.0,-4.2211,-4.199,-4.1463,-3.9593,-3.921,-3.8912,-3.807,-3.79,-3.79,-3.79,-3.7762,-3.7611,-3.7505,-3.7108,-3.6815,-3.6709,-3.6581,-3.6499,-3.6405,-3.6405,-3.6405,-3.6405,-3.6405,-3.6405,-3.6405,-3.6405,-3.6405,-3.6405,-3.6405,-3.6405,-3.6405,-3.6405,-3.6405,-3.6417,-3.7475,-3.8002,-3.8052,-3.9182,-3.9697,-3.9697,-3.9697,-3.9697,-3.9697,-3.9697,-3.9697,-3.9697,-3.9697,-3.9697,-3.9697,-3.9697,-3.9697,-3.9697,0.0,0.0,-4.6573,-4.6496,-4.648,-4.6449,-4.6388,-4.5865,-4.548,0.0,-4.4957,-4.461,-4.461,-4.461,-4.4641,-4.4718,-4.4733,-4.4987,-4.5649,-4.5695,-4.6003,-4.668,-4.6711,-4.6742,-4.6819,-4.7404,-4.7711,-4.7671,-4.8271,-4.8423,-4.8122,-4.7526,-4.6898,-4.6328,-4.5182,-4.4489,-4.4167,-4.3544,-4.329,-4.329,-4.329,-4.3423,-4.3651,-4.3651,-4.3754,-4.391,-4.391,-4.391,-4.3949,-4.3949,-4.3949,-4.3949,-4.3949,-4.3949,-4.391,-4.3714,-4.3651,-4.3596,-4.3384,-4.329,-4.329,-4.329,-4.329,0.0,-4.2319,-4.2155,-4.163,-3.9855,-3.9505,-3.9224,-3.8362,-3.8194,-3.8194,-3.8194,-3.8116,-3.7933,-3.7598,-3.7307,-3.7062,-3.6815,-3.6722,-3.6628,-3.6452,-3.6405,-3.6405,-3.6405,-3.6405,-3.6405,-3.6405,-3.6405,-3.6405,-3.6405,-3.6405,-3.6405,-3.6405,-3.6405,-3.6405,-3.6417,-3.7475,-3.8002,-3.8052,-3.9182,-3.9697,-3.9697,-3.9697,-3.9697,-3.9697,-3.9697,-3.9697,-3.9697,-3.9697,-3.9697,-3.9697,-3.9697,-3.9697,-3.9697,0.0,0.0,-4.6419,-4.588,-4.5788,-4.5603,-4.5049,-4.4902,-4.4825,-4.4825,-4.4702,-4.461,-4.461,-4.461,-4.4841,-4.5341,-4.5387,-4.568,-4.6357,-4.6388,-4.6696,-4.7388,-4.7404,-4.7665,-4.8204,-4.8358,-4.8337,-4.8171,-4.8309,-4.7969,-4.7243,-4.6925,-4.6124,-4.5031,-4.4614,-4.4058,-4.3484,-4.3349,-4.329,-4.329,-4.329,-4.3329,-4.3384,-4.3384,-4.3423,-4.3448,-4.3448,-4.3448,-4.3463,-4.3675,-4.3636,-4.3463,-4.3675,-4.3596,-4.3409,-4.3384,-4.3384,-4.3384,-4.329,-4.329,-4.329,-4.329,-4.329,0.0,-4.309,-4.3036,-4.2739,-4.1686,-4.1463,-4.1169,-4.0216,-4.0057,-4.0057,-4.0057,-3.9445,-3.8671,-3.7933,-3.7598,-3.74,-3.7353,-3.6956,-3.6675,-3.6675,-3.6499,-3.6405,-3.6405,-3.6405,-3.6405,-3.6405,-3.6405,-3.6405,-3.6405,-3.6405,-3.6405,-3.6405,-3.6405,-3.6405,-3.6417,-3.7475,-3.8002,-3.8052,-3.9182,-3.9697,-3.9697,-3.9697,-3.9697,-3.9697,-3.9697,-3.9697,-3.9697,-3.9697,-3.9697,-3.9697,-3.9697,-3.9697,-3.9697,0.0,-4.5818,-4.548,-4.5141,-4.5003,-4.4818,-4.4519,-4.4358,-4.4281,-4.4281,-4.4281,-4.4281,-4.4281,-4.4281,-4.4419,-4.4755,-4.4786,-4.5076,-4.5734,-4.5779,-4.6085,-4.6758,-4.691,-4.7063,-4.7277,-4.7416,-4.7359,-4.7128,-4.7128,-4.6878,-4.6353,-4.5882,-4.5247,-4.4479,-4.4013,-4.3604,-4.329,-4.329,-4.329,-4.329,-4.329,-4.329,-4.329,-4.329,-4.329,-4.329,-4.329,-4.329,-4.3329,-4.3463,-4.3423,-4.3329,-4.3463,-4.3423,-4.329,-4.329,-4.329,-4.329,-4.329,-4.329,-4.329,-4.329,-4.329,0.0,0.0,-4.329,-4.3036,-4.2155,-4.199,-4.1728,-4.0774,-4.0603,-4.0603,-4.0603,-3.9812,-3.921,-3.9251,-3.8349,-3.7657,-3.7505,-3.7261,-3.7062,-3.6909,-3.6675,-3.6499,-3.6405,-3.6405,-3.6405,-3.6405,-3.6405,-3.6405,-3.6405,-3.6405,-3.6405,-3.6405,-3.6405,-3.6405,-3.6417,-3.7475,-3.8002,-3.8052,-3.9182,-3.9697,-3.9697,-3.9697,-3.9697,-3.9697,-3.9697,-3.9697,-3.9697,-3.9697,-3.9697,-3.9697,-3.9697,-3.9697,-3.9697,-4.5271,-4.4841,-4.4458,-4.4458,-4.4358,-4.4243,-4.4243,-4.4089,-4.3988,-4.3988,-4.3988,-4.3988,-4.3988,-4.3988,-4.4033,-4.417,-4.417,-4.4458,-4.5166,-4.5211,-4.5414,-4.6001,-4.6178,-4.6178,-4.6017,-4.6178,-4.6123,-4.5935,-4.5935,-4.5753,-4.5413,-4.4886,-4.4434,-4.4067,-4.3529,-4.329,-4.329,-4.3115,-4.313,-4.3305,-4.313,-4.317,-4.329,-4.329,-4.329,-4.329,-4.329,-4.329,-4.329,-4.329,-4.329,-4.329,-4.329,-4.329,-4.329,-4.329,-4.329,-4.329,-4.329,-4.329,-4.329,-4.329,-4.329,-4.329,0.0,0.0,0.0,-4.2415,-4.2237,-4.2017,-4.1239,-4.1113,-4.1141,-4.127,-4.0416,-4.0071,-4.0929,-3.9363,-3.8044,-3.7848,-3.7631,-3.74,-3.7214,-3.6909,-3.6628,-3.6452,-3.6405,-3.6405,-3.6405,-3.6405,-3.6405,-3.6405,-3.6405,-3.6405,-3.6405,-3.6405,-3.6405,-3.6417,-3.7475,-3.8002,-3.8052,-3.9182,-3.9697,-3.9697,-3.9697,-3.9697,-3.9697,-3.9697,-3.9697,-3.9697,-3.9697,-3.9697,-3.9697,-3.9697,-3.9697,-3.9697,-4.4172,-4.4111,-4.4065,-4.4065,-4.4065,-4.4011,-4.4011,-4.4026,-4.3988,-4.3988,-4.3988,-4.3988,-4.3988,-4.3988,-4.423,-4.4807,-4.4908,-4.5156,-4.5849,-4.591,-4.5941,-4.6017,-4.6017,-4.6017,-4.6017,-4.6017,-4.5935,-4.5746,-4.5746,-4.5307,-4.4462,-4.4387,-4.4003,-4.3409,-4.3319,-4.329,-4.325,-4.2496,-4.2578,-4.325,-4.2456,-4.2618,-4.329,-4.329,-4.329,-4.329,-4.329,-4.329,-4.329,-4.329,-4.329,-4.329,-4.329,-4.329,-4.329,-4.329,-4.329,-4.329,-4.329,-4.329,-4.329,-4.329,-4.329,-4.329,-4.329,0.0,-4.325,-4.317,0.0,-4.3115,-4.2996,0.0,0.0,-4.3794,-4.2643,-4.193,-4.2619,-4.0594,-3.9033,-3.8988,-3.8109,-3.7505,-3.7459,-3.7015,-3.6675,-3.6675,-3.6499,-3.6405,-3.6405,-3.6405,-3.6405,-3.6405,-3.6405,-3.6405,-3.6405,-3.6405,-3.6405,-3.6417,-3.7475,-3.8002,-3.8052,-3.9182,-3.9697,-3.9697,-3.9697,-3.9697,-3.9697,-3.9697,-3.9697,-3.9697,-3.9697,-3.9697,-3.9697,-3.9697,-3.9697,-3.9697,-4.3949,-4.3988,-4.3988,-4.3988,-4.391,-4.3847,-4.3847,-4.3699,-4.3566,-4.3566,-4.3566,-4.3566,-4.3566,-4.3566,-4.3726,-4.4012,-4.4027,-4.4108,-4.4419,-4.4449,-4.4449,-4.4449,-4.4584,-4.4584,-4.4449,-4.4584,-4.4544,-4.4288,-4.4288,-4.4113,-4.3708,-4.3708,-4.3559,-4.329,-4.2795,-4.2537,-4.2496,-4.1589,-4.1407,-4.1713,-4.1323,-4.1421,-4.1838,-4.29,-4.329,-4.329,-4.329,-4.329,-4.329,-4.329,-4.329,-4.329,-4.329,-4.329,-4.329,-4.329,-4.329,-4.329,-4.329,-4.329,-4.329,-4.329,-4.329,-4.329,-4.329,-4.329,-4.329,-4.329,0.0,0.0,0.0,0.0,0.0,0.0,-4.2754,-4.2257,-4.3068,-4.1354,-3.9812,-3.9241,-3.8778,-3.8445,-3.8336,-3.7618,-3.7062,-3.6709,-3.6628,-3.6546,-3.6405,-3.6405,-3.6405,-3.6405,-3.6405,-3.6405,-3.6405,-3.6405,-3.6405,-3.6417,-3.7475,-3.8002,-3.8052,-3.9182,-3.9697,-3.9697,-3.9697,-3.9697,-3.9697,-3.9697,-3.9697,-3.9697,-3.9697,-3.9697,-3.9697,-3.9697,-3.9697,-3.9697,-4.3738,-4.3817,-4.3817,-4.3817,-4.3675,-4.3596,-4.3596,-4.3423,-4.329,-4.329,-4.329,-4.329,-4.329,-4.329,-4.329,-4.329,-4.329,-4.329,-4.329,-4.329,-4.329,-4.329,-4.3503,-4.3518,-4.329,-4.3503,-4.3503,-4.329,-4.329,-4.329,-4.329,-4.3036,-4.2955,-4.2915,-4.2017,-4.1603,-4.1561,-4.0603,-4.0375,-4.0589,-4.0332,-4.0375,-4.0717,-4.2058,-4.2563,-4.2603,-4.2875,-4.2955,-4.2996,-4.321,-4.329,-4.329,-4.329,-4.329,-4.329,-4.329,-4.329,-4.329,-4.329,-4.329,-4.329,-4.329,-4.329,-4.329,-4.329,-4.329,-4.329,-4.329,-4.329,0.0,0.0,0.0,-4.3349,-4.3529,0.0,-4.2637,-4.3449,-4.2078,-4.0731,-4.0029,-3.9724,-3.9431,-3.9015,-3.8336,-3.7572,-3.6862,-3.6722,-3.6628,-3.6405,-3.6405,-3.6405,-3.6405,-3.6405,-3.6405,-3.6405,-3.6405,-3.6405,-3.6417,-3.7475,-3.8002,-3.8052,-3.9182,-3.9697,-3.9697,-3.9697,-3.9697,-3.9697,-3.9697,-3.9697,-3.9697,-3.9697,-3.9697,-3.9697,-3.9697,-3.9697,-3.9697,-4.3329,-4.3329,-4.3329,-4.3329,-4.3329,-4.329,-4.329,-4.329,-4.329,-4.329,-4.329,-4.329,-4.329,-4.329,-4.329,-4.329,-4.329,-4.329,-4.329,-4.329,-4.329,-4.329,-4.329,-4.329,-4.329,-4.329,-4.329,-4.329,-4.329,-4.329,-4.329,-4.2456,-4.2032,-4.199,-4.1071,-4.0646,-4.0589,-3.9637,-3.9768,-4.0504,-3.9593,-3.9768,-4.0603,-4.0675,-4.0689,-4.0817,-4.1728,-4.2032,-4.2155,-4.301,-4.329,-4.329,-4.329,-4.329,-4.329,-4.329,-4.329,-4.329,-4.329,-4.329,-4.329,-4.329,-4.329,-4.329,-4.329,-4.329,-4.329,-4.329,-4.329,-4.329,-4.329,-4.329,0.0,0.0,0.0,0.0,0.0,-4.2934,-4.1949,-4.1908,-4.1113,-4.0216,-3.9285,-3.897,-3.8368,-3.7155,-3.6862,-3.6628,-3.6405,-3.6405,-3.6405,-3.6405,-3.6405,-3.6405,-3.6405,-3.6405,-3.6405,-3.6417,-3.7475,-3.8002,-3.8052,-3.9182,-3.9697,-3.9697,-3.9697,-3.9697,-3.9697,-3.9697,-3.9697,-3.9697,-3.9697,-3.9697,-3.9697,-3.9697,-3.9697,-3.9697,-4.329,-4.329,-4.329,-4.329,-4.329,-4.329,-4.329,-4.329,-4.329,-4.329,-4.329,-4.329,-4.329,-4.329,-4.329,-4.329,-4.329,-4.329,-4.329,-4.329,-4.329,-4.329,-4.329,-4.329,-4.329,-4.329,-4.329,-4.329,-4.329,-4.2996,-4.2456,-4.2155,-4.1686,-4.1029,-4.0073,-3.9681,-3.9593,-3.8729,-3.853,-3.8787,-3.8485,-3.853,-3.8953,-4.013,-4.0603,-4.0646,-4.0944,-4.1071,-4.1113,-4.1407,-4.1491,-4.1616,-4.2237,-4.2456,-4.2537,-4.313,-4.329,-4.329,-4.329,-4.329,-4.329,-4.329,-4.329,-4.329,-4.329,-4.329,-4.329,-4.329,-4.329,-4.329,-4.329,-4.329,0.0,0.0,0.0,0.0,0.0,-4.3184,-4.2875,-4.2875,-4.1532,-4.0461,-4.0159,-3.9519,-3.8612,-3.7446,-3.7108,-3.6875,-3.6628,-3.6452,-3.6405,-3.6405,-3.6405,-3.6405,-3.6405,-3.6405,-3.6405,-3.6417,-3.7475,-3.8002,-3.8052,-3.9182,-3.9697,-3.9697,-3.9697,-3.9697,-3.9697,-3.9697,-3.9697,-3.9697,-3.9697,-3.9697,-3.9697,-3.9697,-3.9697,-3.9697,-4.329,-4.329,-4.329,-4.329,-4.329,-4.329,-4.329,-4.329,-4.329,-4.329,-4.329,-4.329,-4.329,-4.329,-4.329,-4.329,-4.329,-4.329,-4.329,-4.329,-4.329,-4.329,-4.329,-4.329,-4.329,-4.329,-4.329,-4.329,-4.2996,-4.2537,-4.199,-4.1338,-4.0689,-4.0073,-3.9135,-3.876,-3.8715,-3.8148,-3.79,-3.79,-3.79,-3.79,-3.8024,-3.922,-3.9634,-3.9664,-4.0,-4.0116,-4.0159,-4.0504,-4.0603,-4.0731,-4.1296,-4.1505,-4.1686,-4.2578,-4.2603,-4.2482,-4.313,-4.3076,-4.2915,-4.321,-4.329,-4.329,-4.329,-4.329,-4.329,-4.329,-4.329,-4.329,-4.329,-4.329,0.0,0.0,0.0,0.0,0.0,-4.329,-4.329,-4.329,-4.2263,-4.1323,-4.0646,-4.0332,-3.9431,-3.7644,-3.7572,-3.7315,-3.6709,-3.6499,-3.6405,-3.6405,-3.6405,-3.6405,-3.6405,-3.6405,-3.6405,-3.6417,-3.7475,-3.8002,-3.8052,-3.9182,-3.9697,-3.9697,-3.9697,-3.9697,-3.9697,-3.9697,-3.9697,-3.9697,-3.9697,-3.9697,-3.9697,-3.9697,-3.9697,-3.9697,-4.329,-4.329,-4.329,-4.325,-4.325,-4.329,-4.329,-4.329,-4.329,-4.329,-4.329,-4.329,-4.329,-4.329,-4.329,-4.329,-4.329,-4.329,-4.329,-4.329,-4.329,-4.329,-4.329,-4.329,-4.329,-4.329,-4.329,-4.325,-4.2415,-4.1949,-4.1811,-4.0029,-3.9166,-3.9077,-3.8272,-3.79,-3.79,-3.79,-3.79,-3.79,-3.79,-3.79,-3.79,-3.79,-3.79,-3.8024,-3.8836,-3.9121,-3.9254,-4.0159,-4.0475,-4.0461,-4.0504,-4.0504,-4.0731,-4.1645,-4.1296,-4.0986,-4.2684,-4.2578,-4.2114,-4.2955,-4.321,-4.325,-4.325,-4.325,-4.329,-4.329,-4.329,-4.329,-4.329,-4.329,-4.329,0.0,0.0,0.0,-4.329,-4.329,-4.329,-4.329,-4.325,-4.2563,-4.0859,-4.1421,-4.0731,-3.7802,-3.8128,-3.7919,-3.6756,-3.6546,-3.6405,-3.6405,-3.6405,-3.6405,-3.6405,-3.6405,-3.6405,-3.6417,-3.7475,-3.8002,-3.8052,-3.9182,-3.9697,-3.9697,-3.9697,-3.9697,-3.9697,-3.9697,-3.9697,-3.9697,-3.9697,-3.9697,-3.9697,-3.9697,-3.9697,-3.9697,-4.329,-4.329,-4.309,-4.2456,-4.2875,-4.329,-4.329,-4.329,-4.329,-4.329,-4.329,-4.329,-4.329,-4.329,-4.329,-4.329,-4.329,-4.329,-4.329,-4.329,-4.329,-4.329,-4.329,-4.329,-4.329,-4.329,-4.2996,-4.2319,-4.2114,-4.1296,-3.9899,-3.9417,-3.8836,-3.8226,-3.7979,-3.79,-3.79,-3.79,-3.79,-3.79,-3.79,-3.79,-3.79,-3.79,-3.79,-3.7946,-3.8148,-3.8226,-3.8272,-3.8485,-3.8575,-3.8711,-3.9356,-3.9549,-3.9724,-4.0689,-4.0774,-4.0675,-4.1155,-4.1113,-4.1029,-4.1239,-4.1811,-4.2319,-4.2319,-4.2835,-4.329,-4.329,-4.329,-4.329,-4.329,-4.329,-4.329,0.0,0.0,0.0,-4.329,-4.329,-4.329,-4.329,-4.2754,-4.2155,-4.1686,-4.1254,-4.0346,-3.8868,-3.8141,-3.7526,-3.7002,-3.6769,-3.6534,-3.6405,-3.6405,-3.6405,-3.6405,-3.6405,-3.6405,-3.6417,-3.7475,-3.8002,-3.8052,-3.9182,-3.9697,-3.9697,-3.9697,-3.9697,-3.9697,-3.9697,-3.9697,-3.9697,-3.9697,-3.9697,-3.9697,-3.9697,-3.9697,-3.9697,-4.2739,-4.2304,-4.1823,-4.1463,-4.2058,-4.2603,-4.2699,-4.2739,-4.2739,-4.2739,-4.3076,-4.317,-4.2795,-4.309,-4.329,-4.329,-4.329,-4.329,-4.329,-4.329,-4.329,-4.329,-4.329,-4.329,-4.329,-4.329,-4.2875,-4.199,-4.1603,-4.0646,-3.921,-3.8792,-3.8349,-3.79,-3.79,-3.79,-3.79,-3.79,-3.79,-3.79,-3.79,-3.79,0.0,-3.79,-3.79,-3.79,-3.79,-3.79,-3.79,-3.79,-3.79,-3.7992,-3.8472,-3.8639,-3.8805,-3.9738,-3.9708,-3.959,-4.0389,-4.0289,-4.0073,-4.0504,-4.0986,-4.138,-4.138,-4.1755,-4.2126,-4.2126,-4.2441,-4.2739,-4.2739,-4.3036,-4.329,-4.329,-4.329,-4.329,-4.329,-4.329,-4.329,-4.329,-4.2875,-4.2578,-4.2578,-4.1365,-4.0375,-3.9855,-3.876,-3.7972,-3.773,-3.7083,-3.6628,-3.6405,-3.6405,-3.6405,-3.6405,-3.6405,-3.6531,-3.6782,-3.76,-3.814,-3.8417,-3.9295,-3.9697,-3.9697,-3.9697,-3.9697,-3.9697,-3.9697,-3.9697,-3.9697,-3.9697,-3.9697,-3.9697,-3.9697,-3.9697,-3.9697,-4.1769,-4.0873,-4.0218,-4.0332,-4.0916,-4.1518,-4.1713,-4.199,-4.2155,-4.2155,-4.2835,-4.2996,-4.2237,-4.2835,-4.329,-4.329,-4.329,-4.329,-4.329,-4.329,-4.329,-4.329,-4.329,-4.329,-4.329,-4.329,-4.282,-4.1811,-4.0986,-4.0073,-3.9002,-3.8272,-3.79,-3.79,-3.79,-3.79,-3.79,-3.79,-3.79,-3.79,-3.79,-3.79,-3.79,-3.79,-3.79,-3.79,-3.79,-3.79,-3.79,-3.79,-3.79,-3.79,-3.79,-3.79,-3.807,-3.8792,-3.8472,-3.8239,-3.9796,-3.9651,-3.9224,-4.0043,-4.0346,-4.0418,-4.0418,-4.0504,-4.0603,-4.0603,-4.1254,-4.1811,-4.1811,-4.2537,-4.317,-4.329,-4.329,-4.329,-4.329,-4.329,-4.329,-4.329,-4.321,0.0,-4.329,-4.1755,-4.0774,-4.0774,-3.9621,-3.8792,-3.8509,-3.7394,-3.6628,-3.6405,-3.6405,-3.6405,-3.6405,-3.6405,-3.6681,-3.7199,-3.7739,-3.8316,-3.8944,-3.9446,-3.9697,-3.9697,-3.9697,-3.9697,-3.9697,-3.9697,-3.9697,-3.9697,-3.9697,-3.9697,-3.9697,-3.9697,-3.9697,-3.9697,-4.0461,-4.0116,-3.9711,-3.8975,-3.9741,-4.0462,-4.0518,-4.1947,-4.309,-4.309,-4.321,-4.325,-4.309,-4.321,-4.329,-4.329,-4.329,-4.329,-4.329,-4.329,-4.329,-4.329,-4.329,-4.329,-4.329,-4.329,-4.2482,-4.0859,-4.0689,-3.9752,-3.8103,-3.7992,-3.79,-3.79,-3.79,-3.79,-3.79,-3.79,-3.79,-3.79,-3.79,-3.79,-3.79,-3.79,-3.79,-3.79,-3.79,-3.79,-3.79,-3.79,-3.79,-3.79,-3.79,-3.79,-3.7946,-3.807,-3.8024,-3.7992,-3.8285,-3.8239,-3.8148,-3.8317,-3.8895,-3.9461,-3.9461,-4.0029,-4.0603,-4.0603,-4.0731,-4.0859,-4.0859,-4.1589,-4.2456,-4.317,-4.329,-4.329,-4.329,-4.329,-4.329,-4.329,-4.2659,-4.2496,-4.321,-4.236,-4.1728,-4.1728,-4.013,-3.8944,-3.8509,-3.7592,-3.6828,-3.6405,-3.6405,-3.6405,-3.6405,-3.6405,-3.6681,-3.7199,-3.7739,-3.8316,-3.8944,-3.9446,-3.9697,-3.9697,-3.9697,-3.9697,-3.9697,-3.9697,-3.9697,-3.9697,-3.9697,-3.9697,-3.9697,-3.9697,-3.9697,-3.9697,-3.863,-3.8328,-3.836,-3.8657,-3.9461,-4.0304,-4.1,-4.2386,-4.313,-4.2699,-4.3036,-4.313,-4.2659,-4.3036,-4.329,-4.329,-4.329,-4.329,-4.329,-4.329,-4.329,-4.329,-4.329,-4.329,-4.329,-4.329,-4.2386,-4.0603,-4.0603,-3.9664,-3.79,-3.79,-3.79,-3.79,-3.79,-3.79,-3.79,-3.79,-3.79,-3.79,-3.79,-3.7808,-3.7703,-3.7703,-3.7611,-3.7505,-3.7657,-3.7703,-3.7703,-3.7854,-3.79,-3.79,-3.79,-3.79,-3.79,-3.79,-3.79,-3.79,-3.79,-3.79,-3.79,-3.79,-3.8239,-3.8517,-3.8517,-3.8863,-3.9206,-3.9206,-3.9577,-4.0029,-4.0504,-4.138,-4.2155,-4.2578,-4.301,-4.329,-4.329,-4.329,-4.329,-4.329,-4.2915,-4.2835,-4.325,-4.2915,-4.2441,-4.1838,-4.0189,-3.893,-3.8302,-3.7533,-3.6875,-3.6405,-3.6405,-3.6405,-3.6405,-3.6405,-3.6832,-3.7613,-3.7889,-3.8454,-3.9308,-3.9572,-3.9697,-3.9697,-3.9697,-3.9697,-3.9697,-3.9697,-3.9697,-3.9697,-3.9697,-3.9697,-3.9697,-3.9697,-3.9697,-3.9697,-3.7407,-3.7116,-3.7428,-3.8792,-3.9724,-4.0632,-4.1686,-4.2537,-4.2795,-4.2073,-4.2578,-4.2739,-4.2073,-4.2618,-4.309,-4.329,-4.329,-4.329,-4.329,-4.313,-4.3036,-4.3036,-4.3036,-4.3036,-4.3036,-4.3036,-4.2222,-4.0603,-4.0375,-3.9502,-3.79,-3.79,-3.79,-3.79,-3.79,-3.79,-3.79,-3.79,-3.79,-3.79,-3.79,-3.7749,-3.7505,-3.7505,-3.7307,-3.7108,-3.7353,-3.74,-3.7459,-3.7657,-3.7762,-3.7808,-3.7808,-3.7808,-3.7808,-3.79,-3.79,-3.79,-3.79,-3.79,-3.79,-3.79,-3.79,-3.79,-3.79,-3.79,-3.79,-3.79,-3.8427,-3.9224,-4.0116,-4.0901,-4.1561,-4.1949,-4.2578,-4.309,-4.325,-4.329,-4.329,-4.329,-4.329,-4.321,-4.3036,-4.3036,-4.2563,-4.1378,-4.0131,-3.9139,-3.8514,-3.7625,-3.6875,-3.6405,-3.6452,-3.6452,-3.6405,-3.6518,-3.7023,-3.8002,-3.8128,-3.8718,-3.9697,-3.9697,-3.9697,-3.9697,-3.9697,-3.9697,-3.9697,-3.9697,-3.9697,-3.9697,-3.9697,-3.9697,-3.9697,-3.9697,-3.9697,-3.9697,-3.7848,-3.7984,-3.8289,-3.9244,-4.0547,-4.1435,-4.138,-4.1811,-4.2073,-4.199,-4.2073,-4.2073,-4.199,-4.2073,-4.2456,-4.325,-4.329,-4.329,-4.329,-4.2578,-4.2114,-4.2114,-4.2114,-4.2114,-4.2114,-4.2114,-4.163,-4.0603,-3.9768,-3.885,-3.79,-3.79,-3.79,-3.79,-3.79,-3.79,-3.79,-3.79,-3.79,-3.79,-3.79,-3.7749,-3.7505,-3.7505,-3.7307,-3.7108,-3.7108,-3.7155,-3.7155,-3.7168,-3.7353,-3.7551,-3.7551,-3.7551,-3.7611,-3.7854,-3.79,-3.79,-3.79,-3.79,-3.79,-3.79,-3.79,-3.79,-3.79,-3.79,-3.79,-3.79,-3.7946,-3.8272,-3.9166,-3.9417,-4.0029,-4.1728,-4.2073,-4.2415,-4.321,-4.329,-4.329,-4.329,-4.329,-4.2996,-4.2211,-4.2114,-4.1616,-4.0419,-4.0204,-4.0002,-3.9754,-3.8069,-3.6875,-3.6405,-3.6581,-3.6581,-3.6405,-3.6908,-3.7412,-3.8015,-3.8542,-3.9107,-3.9697,-3.9697,-3.9697,-3.9697,-3.9697,-3.9697,-3.9697,-3.9697,-3.9697,-3.9697,-3.9697,-3.9697,-3.9697,-3.9697,-3.9697,-3.9697,-3.8845,-3.8814,-3.9108,-4.0216,-4.0361,-4.0561,-4.1197,-4.0986,-4.0546,-3.9986,-4.049,-4.0958,-4.1155,-4.0901,-4.093,-4.142,-4.1462,-4.1462,-4.1462,-4.1267,-4.1169,-4.1169,-4.1169,-4.1169,-4.1169,-4.1169,-4.0689,-3.9768,-3.9373,-3.876,-3.79,-3.79,-3.79,-3.79,-3.79,-3.79,-3.79,-3.79,-3.79,-3.79,-3.7703,-3.7505,-3.7261,-3.7062,-3.6875,-3.6687,-3.6815,-3.6862,-3.6862,-3.6862,-3.7062,-3.7261,-3.7261,-3.7261,-3.7307,-3.7564,-3.7657,-3.7703,-3.7854,-3.79,-3.79,-3.79,-3.79,-3.79,-3.79,-3.79,-3.79,-3.79,-3.79,-3.8037,-3.8349,-3.8836,-3.9461,-4.0202,-4.0774,-4.1281,-4.1616,-4.1672,-4.1672,-4.1672,-4.1672,-4.1532,-4.1197,-4.1686,-4.1547,-4.0532,-3.9929,-3.9448,-3.9077,-3.7808,-3.6922,-3.6581,-3.6534,-3.6499,-3.6405,-3.6958,-3.7462,-3.8015,-3.8592,-3.9157,-3.9697,-3.9697,-3.9697,-3.9697,-3.9697,-3.9697,-3.9697,-3.9697,-3.9697,-3.9697,-3.9697,-3.9697,-3.9697,-3.9697,-3.9697,-3.9697,-3.9871,-3.9812,-4.0014,-4.0859,-4.0461,-4.0218,-4.0703,-4.0029,-3.9241,-3.8599,-3.8872,-3.939,-3.9942,-3.9681,-3.9667,-4.0088,-4.0131,-4.0131,-4.0131,-4.0116,-4.0087,-4.0087,-4.0159,-4.0202,-4.0202,-4.0202,-3.9855,-3.921,-3.8912,-3.8517,-3.79,-3.79,-3.79,-3.79,-3.79,-3.7854,-3.7762,-3.7762,-3.7749,-3.7657,-3.7459,-3.7214,-3.6956,-3.6769,-3.6581,-3.6405,-3.6534,-3.6628,-3.6628,-3.6628,-3.6722,-3.6922,-3.6968,-3.6968,-3.7062,-3.7413,-3.7505,-3.7564,-3.7854,-3.79,-3.79,-3.79,-3.79,-3.79,-3.79,-3.79,-3.79,-3.79,-3.79,-3.79,-3.79,-3.8395,-3.8912,-3.9166,-3.9768,-4.0289,-4.0546,-4.0603,-4.0603,-4.0603,-4.0603,-4.0504,-4.0202,-4.0774,-4.0859,-4.0173,-3.9224,-3.8644,-3.8509,-3.7592,-3.6968,-3.6628,-3.6534,-3.6528,-3.6644,-3.7149,-3.7701,-3.8266,-3.8843,-3.932,-3.9697,-3.9697,-3.9697,-3.9697,-3.9697,-3.9697,-3.9697,-3.9697,-3.9697,-3.9697,-3.9697,-3.9697,-3.9697,-3.9697,-3.9697,-3.9697,-4.0731,-4.1001,-4.1001,-4.1001,-4.1141,-4.0887,-3.9683,-3.8961,-3.8509,-3.8509,-3.7474,-3.7209,-3.8419,-3.8509,-3.8899,-3.9812,-3.9899,-3.9899,-3.9899,-3.9282,-3.8908,-3.8908,-3.9135,-3.9197,-3.9197,-3.9197,-3.921,-3.921,-3.8362,-3.79,-3.79,-3.79,-3.79,-3.79,-3.79,-3.7749,-3.7505,-3.7505,-3.7353,-3.7108,-3.7121,-3.6956,-3.6709,-3.6709,-3.6581,-3.6405,-3.6405,-3.6405,-3.6405,-3.6405,-3.6405,-3.6452,-3.6628,-3.6709,-3.6815,-3.7353,-3.7505,-3.7564,-3.7854,-3.79,-3.79,-3.79,-3.79,-3.79,-3.79,-3.79,-3.79,-3.79,-3.79,-3.79,-3.79,-3.79,-3.8194,-3.9033,-3.921,-3.9549,-4.0461,-4.0603,-4.0603,-4.0603,-4.0603,-4.0246,-3.9285,-3.9241,-3.9135,-3.8953,-3.8031,-3.7802,-3.8464,-3.7592,-3.6875,-3.6405,-3.6581,-3.6846,-3.7174,-3.7713,-3.8278,-3.8919,-3.9421,-3.9685,-3.9697,-3.9697,-3.9697,-3.9697,-3.9697,-3.9697,-3.9697,-3.9697,-3.9697,-3.9697,-3.9697,-3.9697,-3.9697,-3.9697,-3.9697,-3.9697,-3.9885,-3.9855,-3.9782,-3.9782,-3.9299,-3.8765,-3.8405,-3.7612,-3.7083,-3.7083,-3.6722,-3.6628,-3.7036,-3.7083,-3.7256,-3.7691,-3.7736,-3.7736,-3.7736,-3.7671,-3.7651,-3.7651,-3.773,-3.7763,-3.7763,-3.7763,-3.7763,-3.7763,-3.7479,-3.7459,-3.7611,-3.7808,-3.7808,-3.7611,-3.7611,-3.7459,-3.7214,-3.7214,-3.7168,-3.7062,-3.6909,-3.6769,-3.6675,-3.6534,-3.6452,-3.6405,-3.6405,-3.6405,-3.6405,-3.6405,-3.6405,-3.6405,-3.6499,-3.6499,-3.6546,-3.6875,-3.6956,-3.7062,-3.7505,-3.7611,-3.7657,-3.7854,-3.79,-3.79,-3.79,-3.79,-3.79,-3.79,-3.79,-3.79,-3.79,-3.79,-3.7992,-3.8272,-3.8304,-3.8395,-3.8711,-3.8742,-3.8742,-3.8742,-3.8742,-3.8562,-3.8109,-3.8626,-3.8626,-3.773,-3.8004,-3.8251,-3.8509,-3.7441,-3.6769,-3.6628,-3.6534,-3.6716,-3.7174,-3.7726,-3.8304,-3.8932,-3.9433,-3.9697,-3.9697,-3.9697,-3.9697,-3.9697,-3.9697,-3.9697,-3.9697,-3.9697,-3.9697,-3.9697,-3.9697,-3.9697,-3.9697,-3.9697,-3.9697,-3.9697,-3.939,-3.9285,-3.9077,-3.872,-3.8206,-3.7671,-3.7315,-3.6769,-3.6405,-3.6405,-3.6405,-3.6405,-3.6405,-3.6405,-3.6452,-3.6581,-3.6581,-3.6581,-3.6581,-3.6815,-3.6956,-3.6956,-3.7062,-3.7108,-3.7108,-3.7108,-3.7108,-3.7108,-3.7108,-3.7214,-3.7353,-3.7505,-3.7505,-3.7353,-3.7353,-3.7201,-3.6956,-3.6956,-3.6922,-3.6828,-3.6628,-3.6581,-3.6581,-3.6452,-3.6405,-3.6405,-3.6405,-3.6405,-3.6405,-3.6405,-3.6405,-3.6405,-3.6405,-3.6405,-3.6452,-3.6628,-3.6709,-3.6815,-3.7353,-3.7505,-3.7551,-3.7854,-3.79,-3.79,-3.79,-3.79,-3.79,-3.79,-3.79,-3.79,-3.79,-3.79,-3.79,-3.79,-3.79,-3.79,-3.79,-3.79,-3.7854,-3.7749,-3.7749,-3.7657,-3.7366,-3.788,-3.7867,-3.7002,-3.7487,-3.7795,-3.7704,-3.707,-3.6675,-3.6581,-3.6653,-3.6935,-3.7487,-3.8052,-3.8617,-3.9182,-3.9534,-3.9697,-3.9697,-3.9697,-3.9697,-3.9697,-3.9697,-3.9697,-3.9697,-3.9697,-3.9697,-3.9697,-3.9697,-3.9697,-3.9697,-3.9697,-3.9697,-3.9697,-3.9033,-3.9033,-3.872,-3.7854,-3.7717,-3.7407,-3.6546,-3.6405,-3.6405,-3.6405,-3.6405,-3.6405,-3.6405,-3.6405,-3.6405,-3.6405,-3.6405,-3.6405,-3.6405,-3.6581,-3.6675,-3.6675,-3.6922,-3.7062,-3.7062,-3.7062,-3.7062,-3.7062,-3.7062,-3.7062,-3.7062,-3.7108,-3.7108,-3.7062,-3.7062,-3.6922,-3.6675,-3.6675,-3.6581,-3.6405,-3.6405,-3.6405,-3.6405,-3.6405,-3.6405,-3.6405,-3.6405,-3.6405,-3.6405,-3.6405,-3.6405,-3.6405,-3.6405,-3.6405,-3.6452,-3.6628,-3.6675,-3.6769,-3.7307,-3.7459,-3.7505,-3.7762,-3.7854,-3.7854,-3.7854,-3.7854,-3.7854,-3.79,-3.79,-3.79,-3.79,-3.79,-3.79,-3.79,-3.79,-3.79,-3.7854,-3.7854,-3.7762,-3.7505,-3.7459,-3.7366,-3.7108,-3.7062,-3.6956,-3.6722,-3.6675,-3.6581,-3.6405,-3.6619,-3.6644,-3.6468,-3.6958,-3.7462,-3.8065,-3.8605,-3.9145,-3.9697,-3.9697,-3.9697,-3.9697,-3.9697,-3.9697,-3.9697,-3.9697,-3.9697,-3.9697,-3.9697,-3.9697,-3.9697,-3.9697,-3.9697,-3.9697,-3.9697,-3.9697,-3.9697,-3.707,-3.707,-3.6989,-3.6769,-3.6722,-3.6675,-3.6452,-3.6405,-3.6405,-3.6405,-3.6405,-3.6405,-3.6405,-3.6405,-3.6405,-3.6405,-3.6405,-3.6405,-3.6405,-3.6452,-3.6452,-3.6452,-3.6546,-3.6546,-3.6546,-3.6546,-3.6546,-3.6546,-3.6722,-3.6815,-3.6815,-3.7015,-3.7015,-3.6815,-3.6815,-3.6675,-3.6452,-3.6452,-3.6452,-3.6405,-3.6405,-3.6405,-3.6405,-3.6405,-3.6405,-3.6405,-3.6405,-3.6405,-3.6405,-3.6405,-3.6405,-3.6405,-3.6405,-3.6405,-3.6405,-3.6452,-3.6452,-3.6534,-3.6815,-3.6909,-3.6956,-3.7214,-3.7307,-3.7353,-3.7551,-3.7598,-3.7657,-3.7854,-3.79,-3.79,-3.79,-3.79,-3.79,-3.79,-3.79,-3.7854,-3.7611,-3.7598,-3.7505,-3.7214,-3.7201,-3.7108,-3.6815,-3.6815,-3.6722,-3.6499,-3.6452,-3.6452,-3.6405,-3.6855,-3.7081,-3.6985,-3.7111,-3.7663,-3.8655,-3.8856,-3.9145,-3.9697,-3.9697,-3.9697,-3.9697,-3.9697,-3.9697,-3.9697,-3.9697,-3.9697,-3.9697,-3.9697,-3.9697,-3.9697,-3.9697,-3.9697,-3.9697,-3.9697,-3.9697,-3.9697,-3.6405,-3.6405,-3.6405,-3.6405,-3.6405,-3.6405,-3.6405,-3.6405,-3.6405,-3.6405,-3.6405,-3.6405,-3.6405,-3.6405,-3.6405,-3.6405,-3.6405,-3.6405,-3.6405,-3.6405,-3.6405,-3.6405,-3.6405,-3.6405,-3.6405,-3.6405,-3.6405,-3.6405,-3.6499,-3.6534,-3.6581,-3.6687,-3.6687,-3.6534,-3.6534,-3.6499,-3.6405,-3.6405,-3.6405,-3.6405,-3.6405,-3.6405,-3.6405,-3.6405,-3.6405,-3.6405,-3.6405,-3.6405,-3.6405,-3.6405,-3.6405,-3.6405,-3.6405,-3.6405,-3.6405,-3.6405,-3.6405,-3.6452,-3.6675,-3.6709,-3.6756,-3.7015,-3.7108,-3.7155,-3.7261,-3.7413,-3.7551,-3.7703,-3.7808,-3.79,-3.79,-3.79,-3.79,-3.79,-3.7808,-3.7657,-3.7505,-3.74,-3.7214,-3.6956,-3.6922,-3.6815,-3.6581,-3.6534,-3.6546,-3.6405,-3.6405,-3.6518,-3.6769,-3.7023,-3.7186,-3.7186,-3.7737,-3.8241,-3.8906,-3.912,-3.9396,-3.9697,-3.9697,-3.9697,-3.9697,-3.9697,-3.9697,-3.9697,-3.9697,-3.9697,-3.9697,-3.9697,-3.9697,-3.9697,-3.9697,-3.9697,-3.9697,-3.9697,-3.9697,-3.9697,-3.6405,-3.6405,-3.6405,-3.6405,-3.6405,-3.6405,-3.6405,-3.6405,-3.6405,-3.6405,-3.6405,-3.6405,-3.6405,-3.6405,-3.6405,-3.6405,-3.6405,-3.6405,-3.6405,-3.6405,-3.6405,-3.6405,-3.6405,-3.6405,-3.6405,-3.6405,-3.6405,-3.6405,-3.6405,-3.6405,-3.6405,-3.6405,-3.6405,-3.6405,-3.6405,-3.6405,-3.6405,-3.6405,-3.6405,-3.6405,-3.6405,-3.6405,-3.6405,-3.6405,-3.6405,-3.6405,-3.6405,-3.6405,-3.6405,-3.6405,-3.6405,-3.6405,-3.6405,-3.6405,-3.6405,-3.6405,-3.6405,-3.6452,-3.6628,-3.6675,-3.6722,-3.6922,-3.6968,-3.7015,-3.7015,-3.7261,-3.7459,-3.7505,-3.7703,-3.7854,-3.7854,-3.7808,-3.7808,-3.7854,-3.7598,-3.7459,-3.7459,-3.7214,-3.6956,-3.6675,-3.6675,-3.6581,-3.6405,-3.6405,-3.6405,-3.6405,-3.648,-3.6732,-3.7161,-3.7349,-3.7437,-3.7437,-3.8429,-3.8957,-3.9045,-3.9459,-3.9697,-3.9697,-3.9697,-3.9697,-3.9697,-3.9697,-3.9697,-3.9697,-3.9697,-3.9697,-3.9697,-3.9697,-3.9697,-3.9697,-3.9697,-3.9697,-3.9697,-3.9697,-3.9697,-3.9697,-3.6405,-3.6405,-3.6405,-3.6405,-3.6405,-3.6405,-3.6405,-3.6405,-3.6405,-3.6405,-3.6405,-3.6405,-3.6405,-3.6405,-3.6405,-3.6405,-3.6405,-3.6405,-3.6405,-3.6405,-3.6405,-3.6405,-3.6405,-3.6405,-3.6405,-3.6405,-3.6405,-3.6405,-3.6405,-3.6405,-3.6405,-3.6405,-3.6405,-3.6405,-3.6405,-3.6405,-3.6405,-3.6405,-3.6405,-3.6405,-3.6405,-3.6405,-3.6405,-3.6405,-3.6405,-3.6405,-3.6405,-3.6405,-3.6405,-3.6405,-3.6405,-3.6405,-3.6405,-3.6405,-3.6405,-3.6405,-3.6405,-3.6405,-3.6452,-3.6452,-3.6452,-3.6499,-3.6499,-3.6546,-3.6722,-3.6968,-3.7214,-3.7459,-3.7505,-3.7551,-3.7551,-3.7366,-3.7307,-3.7505,-3.7353,-3.7155,-3.7155,-3.6922,-3.6675,-3.6452,-3.6452,-3.6452,-3.6405,-3.6405,-3.6405,-3.6405,-3.6832,-3.7098,-3.7174,-3.809,-3.8655,-3.8655,-3.8831,-3.9094,-3.9559,-3.9647,-3.9697,-3.9697,-3.9697,-3.9697,-3.9697,-3.9697,-3.9697,-3.9697,-3.9697,-3.9697,-3.9697,-3.9697,-3.9697,-3.9697,-3.9697,-3.9697,-3.9697,-3.9697,-3.9697,-3.9697,-3.6405,-3.6405,-3.6405,-3.6405,-3.6405,-3.6405,-3.6405,-3.6405,-3.6405,-3.6405,-3.6405,-3.6405,-3.6405,-3.6405,-3.6405,-3.6405,-3.6405,-3.6405,-3.6405,-3.6405,-3.6405,-3.6405,-3.6405,-3.6405,-3.6405,-3.6405,-3.6405,-3.6405,-3.6405,-3.6405,-3.6405,-3.6405,-3.6405,-3.6405,-3.6405,-3.6405,-3.6405,-3.6405,-3.6405,-3.6405,-3.6405,-3.6405,-3.6405,-3.6405,-3.6405,-3.6405,-3.6405,-3.6405,-3.6405,-3.6405,-3.6405,-3.6405,-3.6405,-3.6405,-3.6405,-3.6405,-3.6405,-3.6405,-3.6405,-3.6405,-3.6405,-3.6405,-3.6405,-3.6405,-3.6546,-3.6734,-3.6922,-3.7062,-3.7168,-3.7261,-3.7261,-3.7168,-3.7155,-3.7261,-3.7062,-3.6862,-3.6862,-3.6675,-3.6499,-3.6405,-3.6405,-3.6405,-3.6405,-3.6405,-3.6531,-3.6832,-3.7048,-3.745,-3.8065,-3.863,-3.9007,-3.9308,-3.932,-3.9433,-3.9697,-3.9697,-3.9697,-3.9697,-3.9697,-3.9697,-3.9697,-3.9697,-3.9697,-3.9697,-3.9697,-3.9697,-3.9697,-3.9697,-3.9697,-3.9697,-3.9697,-3.9697,-3.9697,-3.9697,-3.9697,-3.9697,-3.6405,-3.6405,-3.6405,-3.6405,-3.6405,-3.6405,-3.6405,-3.6405,-3.6405,-3.6405,-3.6405,-3.6405,-3.6405,-3.6405,-3.6405,-3.6405,-3.6405,-3.6405,-3.6405,-3.6405,-3.6405,-3.6405,-3.6405,-3.6405,-3.6405,-3.6405,-3.6405,-3.6405,-3.6405,-3.6405,-3.6405,-3.6405,-3.6405,-3.6405,-3.6405,-3.6405,-3.6405,-3.6405,-3.6405,-3.6405,-3.6405,-3.6405,-3.6405,-3.6405,-3.6405,-3.6405,-3.6405,-3.6405,-3.6405,-3.6405,-3.6405,-3.6405,-3.6405,-3.6405,-3.6405,-3.6405,-3.6405,-3.6405,-3.6405,-3.6405,-3.6405,-3.6405,-3.6405,-3.6405,-3.6405,-3.6534,-3.6709,-3.6709,-3.6862,-3.7015,-3.7015,-3.6968,-3.6968,-3.7015,-3.6815,-3.6675,-3.6675,-3.6534,-3.6405,-3.6405,-3.6405,-3.6405,-3.6405,-3.6518,-3.6782,-3.7149,-3.7425,-3.8001,-3.8831,-3.9045,-3.9258,-3.9685,-3.9697,-3.9697,-3.9697,-3.9697,-3.9697,-3.9697,-3.9697,-3.9697,-3.9697,-3.9697,-3.9697,-3.9697,-3.9697,-3.9697,-3.9697,-3.9697,-3.9697,-3.9697,-3.9697,-3.9697,-3.9697,-3.9697,-3.9697,-3.9697,-3.6405,-3.6405,-3.6405,-3.6405,-3.6405,-3.6405,-3.6405,-3.6405,-3.6405,-3.6405,-3.6405,-3.6405,-3.6405,-3.6405,-3.6405,-3.6405,-3.6405,-3.6405,-3.6405,-3.6405,-3.6405,-3.6405,-3.6405,-3.6405,-3.6405,-3.6405,-3.6405,-3.6405,-3.6405,-3.6405,-3.6405,-3.6405,-3.6405,-3.6405,-3.6405,-3.6405,-3.6405,-3.6405,-3.6405,-3.6405,-3.6405,-3.6405,-3.6405,-3.6405,-3.6405,-3.6405,-3.6405,-3.6405,-3.6405,-3.6405,-3.6405,-3.6405,-3.6405,-3.6405,-3.6405,-3.6405,-3.6405,-3.6405,-3.6405,-3.6405,-3.6405,-3.6405,-3.6405,-3.6405,-3.6405,-3.6534,-3.6709,-3.6709,-3.6722,-3.6722,-3.6722,-3.6593,-3.6499,-3.6722,-3.6546,-3.6499,-3.6675,-3.6534,-3.6405,-3.6405,-3.6405,-3.6405,-3.6405,-3.687,-3.7149,-3.7186,-3.8202,-3.8831,-3.8919,-3.9358,-3.9647,-3.9697,-3.9697,-3.9697,-3.9697,-3.9697,-3.9697,-3.9697,-3.9697,-3.9697,-3.9697,-3.9697,-3.9697,-3.9697,-3.9697,-3.9697,-3.9697,-3.9697,-3.9697,-3.9697,-3.9697,-3.9697,-3.9697,-3.9697,-3.9697,-3.9697,-3.6405,-3.6405,-3.6405,-3.6405,-3.6405,-3.6405,-3.6405,-3.6405,-3.6405,-3.6405,-3.6405,-3.6405,-3.6405,-3.6405,-3.6405,-3.6405,-3.6405,-3.6405,-3.6405,-3.6405,-3.6405,-3.6405,-3.6405,-3.6405,-3.6405,-3.6405,-3.6405,-3.6405,-3.6405,-3.6405,-3.6405,-3.6405,-3.6405,-3.6405,-3.6405,-3.6405,-3.6405,-3.6405,-3.6405,-3.6405,-3.6405,-3.6405,-3.6405,-3.6405,-3.6405,-3.6405,-3.6405,-3.6405,-3.6405,-3.6405,-3.6405,-3.6405,-3.6405,-3.6405,-3.6405,-3.6405,-3.6405,-3.6405,-3.6405,-3.6405,-3.6405,-3.6405,-3.6405,-3.6405,-3.6405,-3.6452,-3.6499,-3.6499,-3.6499,-3.6499,-3.6499,-3.6452,-3.6452,-3.6499,-3.6452,-3.6452,-3.6499,-3.6452,-3.6405,-3.6405,-3.6405,-3.6543,-3.6835,-3.7061,-3.7475,-3.8178,-3.868,-3.907,-3.9371,-3.9584,-3.9697,-3.9697,-3.9697,-3.9697,-3.9697,-3.9697,-3.9697,-3.9697,-3.9697,-3.9697,-3.9697,-3.9697,-3.9697,-3.9697,-3.9697,-3.9697,-3.9697,-3.9697,-3.9697,-3.9697,-3.9697,-3.9697,-3.9697,-3.9697,-3.9697,-3.9697,-3.6405,-3.6405,-3.6405,-3.6405,-3.6405,-3.6405,-3.6405,-3.6405,-3.6405,-3.6405,-3.6405,-3.6405,-3.6405,-3.6405,-3.6405,-3.6405,-3.6405,-3.6405,-3.6405,-3.6405,-3.6405,-3.6405,-3.6405,-3.6405,-3.6405,-3.6405,-3.6405,-3.6405,-3.6405,-3.6405,-3.6405,-3.6405,-3.6405,-3.6405,-3.6405,-3.6405,-3.6405,-3.6405,-3.6405,-3.6405,-3.6405,-3.6405,-3.6405,-3.6405,-3.6405,-3.6405,-3.6405,-3.6405,-3.6405,-3.6405,-3.6405,-3.6405,-3.6405,-3.6405,-3.6405,-3.6405,-3.6405,-3.6405,-3.6405,-3.6405,-3.6405,-3.6405,-3.6405,-3.6405,-3.6405,-3.6405,-3.6405,-3.6405,-3.6405,-3.6405,-3.6405,-3.6405,-3.6405,-3.6405,-3.6405,-3.6405,-3.6405,-3.6405,-3.6405,-3.6405,-3.6568,-3.682,-3.7149,-3.75,-3.804,-3.8856,-3.9032,-3.9295,-3.9672,-3.9697,-3.9697,-3.9697,-3.9697,-3.9697,-3.9697,-3.9697,-3.9697,-3.9697,-3.9697,-3.9697,-3.9697,-3.9697,-3.9697,-3.9697,-3.9697,-3.9697,-3.9697,-3.9697,-3.9697,-3.9697,-3.9697,-3.9697,-3.9697,-3.9697,-3.9697,-3.9697,-3.6405,-3.6405,-3.6405,-3.6405,-3.6405,-3.6405,-3.6405,-3.6405,-3.6405,-3.6405,-3.6405,-3.6405,-3.6405,-3.6405,-3.6405,-3.6405,-3.6405,-3.6405,-3.6405,-3.6405,-3.6405,-3.6405,-3.6405,-3.6405,-3.6405,-3.6405,-3.6405,-3.6405,-3.6405,-3.6405,-3.6405,-3.6405,-3.6405,-3.6405,-3.6405,-3.6405,-3.6405,-3.6405,-3.6405,-3.6405,-3.6405,-3.6405,-3.6405,-3.6405,-3.6405,-3.6405,-3.6405,-3.6405,-3.6405,-3.6405,-3.6405,-3.6405,-3.6405,-3.6405,-3.6405,-3.6405,-3.6405,-3.6405,-3.6405,-3.6405,-3.6405,-3.6405,-3.6405,-3.6405,-3.6405,-3.6405,-3.6405,-3.6405,-3.6405,-3.6405,-3.6405,-3.6405,-3.6405,-3.6405,-3.6405,-3.6405,-3.6405,-3.6405,-3.6405,-3.6405,-3.6895,-3.7186,-3.7199,-3.8216,-3.8919,-3.8932,-3.9383,-3.9697,-3.9697,-3.9697,-3.9697,-3.9697,-3.9697,-3.9697,-3.9697,-3.9697,-3.9697,-3.9697,-3.9697,-3.9697,-3.9697,-3.9697,-3.9697,-3.9697,-3.9697,-3.9697,-3.9697,-3.9697,-3.9697,-3.9697,-3.9697,-3.9697,-3.9697,-3.9697,-3.9697,-3.9697,-3.6405,-3.6405,-3.6405,-3.6405,-3.6405,-3.6405,-3.6405,-3.6405,-3.6405,-3.6405,-3.6405,-3.6405,-3.6405,-3.6405,-3.6405,-3.6405,-3.6405,-3.6405,-3.6405,-3.6405,-3.6405,-3.6405,-3.6405,-3.6405,-3.6405,-3.6405,-3.6405,-3.6405,-3.6405,-3.6405,-3.6405,-3.6405,-3.6405,-3.6405,-3.6405,-3.6405,-3.6405,-3.6405,-3.6405,-3.6405,-3.6405,-3.6405,-3.6405,-3.6405,-3.6405,-3.6405,-3.6405,-3.6405,-3.6405,-3.6405,-3.6405,-3.6405,-3.6405,-3.6405,-3.6405,-3.6405,-3.6405,-3.6405,-3.6405,-3.6405,-3.6405,-3.6405,-3.6405,-3.6405,-3.6405,-3.6405,-3.6405,-3.6405,-3.6405,-3.6405,-3.6405,-3.6405,-3.6405,-3.6405,-3.6405,-3.6405,-3.6405,-3.6405,-3.6405,-3.6405,-3.6895,-3.7337,-3.7726,-3.8429,-3.9032,-3.9421,-3.9597,-3.9697,-3.9697,-3.9697,-3.9697,-3.9697,-3.9697,-3.9697,-3.9697,-3.9697,-3.9697,-3.9697,-3.9697,-3.9697,-3.9697,-3.9697,-3.9697,-3.9697,-3.9697,-3.9697,-3.9697,-3.9697,-3.9697,-3.9697,-3.9697,-3.9697,-3.9697,-3.9697,-3.9697,-3.9697,-3.6405,-3.6405,-3.6405,-3.6405,-3.6405,-3.6405,-3.6405,-3.6405,-3.6405,-3.6405,-3.6405,-3.6405,-3.6405,-3.6405,-3.6405,-3.6405,-3.6405,-3.6405,-3.6405,-3.6405,-3.6405,-3.6405,-3.6405,-3.6405,-3.6405,-3.6405,-3.6405,-3.6405,-3.6405,-3.6405,-3.6405,-3.6405,-3.6405,-3.6405,-3.6405,-3.6405,-3.6405,-3.6405,-3.6405,-3.6405,-3.6405,-3.6405,-3.6405,-3.6405,-3.6405,-3.6405,-3.6405,-3.6405,-3.6405,-3.6405,-3.6405,-3.6405,-3.6405,-3.6405,-3.6405,-3.6405,-3.6405,-3.6405,-3.6405,-3.6405,-3.6405,-3.6405,-3.6405,-3.6405,-3.6405,-3.6405,-3.6405,-3.6405,-3.6405,-3.6405,-3.6405,-3.6405,-3.6405,-3.6405,-3.6405,-3.6405,-3.6405,-3.6405,-3.6493,-3.6707,-3.7174,-3.7726,-3.8291,-3.8868,-3.9333,-3.9672,-3.9697,-3.9697,-3.9697,-3.9697,-3.9697,-3.9697,-3.9697,-3.9697,-3.9697,-3.9697,-3.9697,-3.9697,-3.9697,-3.9697,-3.9697,-3.9697,-3.9697,-3.9697,-3.9697,-3.9697,-3.9697,-3.9697,-3.9697,-3.9697,-3.9697,-3.9697,-3.9697,-3.9697,-3.9697,-3.9697,-3.6405,-3.6405,-3.6405,-3.6405,-3.6405,-3.6405,-3.6405,-3.6405,-3.6405,-3.6405,-3.6405,-3.6405,-3.6405,-3.6405,-3.6405,-3.6405,-3.6405,-3.6405,-3.6405,-3.6405,-3.6405,-3.6405,-3.6405,-3.6405,-3.6405,-3.6405,-3.6405,-3.6405,-3.6405,-3.6405,-3.6405,-3.6405,-3.6405,-3.6405,-3.6405,-3.6405,-3.6405,-3.6405,-3.6405,-3.6405,-3.6405,-3.6405,-3.6405,-3.6405,-3.6405,-3.6405,-3.6405,-3.6405,-3.6405,-3.6405,-3.6405,-3.6405,-3.6405,-3.6405,-3.6405,-3.6405,-3.6405,-3.6405,-3.6405,-3.6405,-3.6405,-3.6405,-3.6405,-3.6405,-3.6405,-3.6405,-3.6405,-3.6405,-3.6405,-3.6405,-3.6405,-3.6405,-3.6405,-3.6405,-3.6405,-3.6405,-3.6405,-3.6455,-3.6669,-3.7123,-3.7713,-3.8291,-3.8869,-3.9371,-3.9697,-3.9697,-3.9697,-3.9697,-3.9697,-3.9697,-3.9697,-3.9697,-3.9697,-3.9697,-3.9697,-3.9697,-3.9697,-3.9697,-3.9697,-3.9697,-3.9697,-3.9697,-3.9697,-3.9697,-3.9697,-3.9697,-3.9697,-3.9697,-3.9697,-3.9697,-3.9697,-3.9697,-3.9697,-3.9697,-3.9697,-3.9697,-3.6405,-3.6405,-3.6405,-3.6405,-3.6405,-3.6405,-3.6405,-3.6405,-3.6405,-3.6405,-3.6405,-3.6405,-3.6405,-3.6405,-3.6405,-3.6405,-3.6405,-3.6405,-3.6405,-3.6405,-3.6405,-3.6405,-3.6405,-3.6405,-3.6405,-3.6405,-3.6405,-3.6405,-3.6405,-3.6405,-3.6405,-3.6405,-3.6405,-3.6405,-3.6405,-3.6405,-3.6405,-3.6405,-3.6405,-3.6405,-3.6405,-3.6405,-3.6405,-3.6405,-3.6405,-3.6405,-3.6405,-3.6405,-3.6405,-3.6405,-3.6405,-3.6405,-3.6405,-3.6405,-3.6405,-3.6405,-3.6405,-3.6405,-3.6405,-3.6405,-3.6405,-3.6405,-3.6405,-3.6405,-3.6405,-3.6405,-3.6405,-3.6405,-3.6405,-3.6405,-3.6405,-3.6405,-3.6405,-3.6405,-3.6405,-3.6405,-3.6405,-3.6782,-3.7048,-3.7174,-3.8078,-3.8781,-3.8906,-3.9371,-3.9697,-3.9697,-3.9697,-3.9697,-3.9697,-3.9697,-3.9697,-3.9697,-3.9697,-3.9697,-3.9697,-3.9697,-3.9697,-3.9697,-3.9697,-3.9697,-3.9697,-3.9697,-3.9697,-3.9697,-3.9697,-3.9697,-3.9697,-3.9697,-3.9697,-3.9697,-3.9697,-3.9697,-3.9697,-3.9697,-3.9697,-3.9697,-3.6405,-3.6405,-3.6405,-3.6405,-3.6405,-3.6405,-3.6405,-3.6405,-3.6405,-3.6405,-3.6405,-3.6405,-3.6405,-3.6405,-3.6405,-3.6405,-3.6405,-3.6405,-3.6405,-3.6405,-3.6405,-3.6405,-3.6405,-3.6405,-3.6405,-3.6405,-3.6405,-3.6405,-3.6405,-3.6405,-3.6405,-3.6405,-3.6405,-3.6405,-3.6405,-3.6405,-3.6405,-3.6405,-3.6405,-3.6405,-3.6405,-3.6405,-3.6405,-3.6405,-3.6405,-3.6405,-3.6405,-3.6405,-3.6405,-3.6405,-3.6405,-3.6405,-3.6405,-3.6405,-3.6405,-3.6405,-3.6405,-3.6405,-3.6405,-3.6405,-3.6405,-3.6405,-3.6405,-3.6405,-3.6405,-3.6405,-3.6405,-3.6405,-3.6405,-3.6405,-3.6405,-3.6405,-3.6405,-3.6405,-3.6405,-3.6505,-3.6769,-3.6998,-3.7387,-3.7927,-3.8554,-3.8981,-3.9245,-3.9521,-3.9697,-3.9697,-3.9697,-3.9697,-3.9697,-3.9697,-3.9697,-3.9697,-3.9697,-3.9697,-3.9697,-3.9697,-3.9697,-3.9697,-3.9697,-3.9697,-3.9697,-3.9697,-3.9697,-3.9697,-3.9697,-3.9697,-3.9697,-3.9697,-3.9697,-3.9697,-3.9697,-3.9697,-3.9697,-3.9697,-3.9697,-3.9697,-3.6499,-3.6405,-3.6405,-3.6405,-3.6405,-3.6405,-3.6405,-3.6405,-3.6405,-3.6405,-3.6405,-3.6405,-3.6405,-3.6405,-3.6405,-3.6405,-3.6405,-3.6405,-3.6405,-3.6405,-3.6405,-3.6405,-3.6405,-3.6405,-3.6405,-3.6405,-3.6405,-3.6405,-3.6405,-3.6405,-3.6405,-3.6405,-3.6405,-3.6405,-3.6405,-3.6405,-3.6405,-3.6405,-3.6405,-3.6405,-3.6405,-3.6405,-3.6405,-3.6405,-3.6405,-3.6405,-3.6405,-3.6405,-3.6405,-3.6405,-3.6405,-3.6405,-3.6405,-3.6405,-3.6405,-3.6405,-3.6405,-3.6405,-3.6405,-3.6405,-3.6405,-3.6405,-3.6405,-3.6405,-3.6405,-3.6405,-3.6405,-3.6405,-3.6405,-3.6405,-3.6405,-3.6405,-3.6405,-3.6405,-3.6405,-3.6606,-3.7111,-3.7262,-3.7713,-3.8793,-3.9007,-3.9195,-3.9647,-3.9697,-3.9697,-3.9697,-3.9697,-3.9697,-3.9697,-3.9697,-3.9697,-3.9697,-3.9697,-3.9697,-3.9697,-3.9697,-3.9697,-3.9697,-3.9697,-3.9697,-3.9697,-3.9697,-3.9697,-3.9697,-3.9697,-3.9697,-3.9697,-3.9697,-3.9697,-3.9697,-3.9697,-3.9697,-3.9697,-3.9697,-3.9697,-3.9697,-3.6675,-3.6546,-3.6405,-3.6405,-3.6405,-3.6405,-3.6405,-3.6405,-3.6405,-3.6405,-3.6405,-3.6405,-3.6405,-3.6405,-3.6405,-3.6405,-3.6405,-3.6405,-3.6405,-3.6405,-3.6405,-3.6405,-3.6405,-3.6405,-3.6405,-3.6405,-3.6405,-3.6405,-3.6405,-3.6405,-3.6405,-3.6405,-3.6405,-3.6405,-3.6405,-3.6405,-3.6405,-3.6405,-3.6405,-3.6405,-3.6405,-3.6405,-3.6405,-3.6405,-3.6405,-3.6405,-3.6405,-3.6405,-3.6405,-3.6405,-3.6405,-3.6405,-3.6405,-3.6405,-3.6405,-3.6405,-3.6405,-3.6405,-3.6405,-3.6405,-3.6405,-3.6405,-3.6405,-3.6405,-3.6405,-3.6405,-3.6405,-3.6405,-3.6405,-3.6405,-3.6405,-3.6405,-3.6405,-3.6405,-3.6405,-3.6606,-3.7111,-3.76,-3.814,-3.8844,-3.9295,-3.9609,-3.9685,-3.9697,-3.9697,-3.9697,-3.9697,-3.9697,-3.9697,-3.9697,-3.9697,-3.9697,-3.9697,-3.9697,-3.9697,-3.9697,-3.9697,-3.9697,-3.9697,-3.9697,-3.9697,-3.9697,-3.9697,-3.9697,-3.9697,-3.9697,-3.9697,-3.9697,-3.9697,-3.9697,-3.9697,-3.9697,-3.9697,-3.9697,-3.9697,-3.9697,-3.6909,-3.664,-3.6452,-3.6534,-3.6452,-3.6405,-3.6405,-3.6405,-3.6405,-3.6405,-3.6405,-3.6405,-3.6405,-3.6405,-3.6405,-3.6405,-3.6405,-3.6405,-3.6405,-3.6405,-3.6405,-3.6405,-3.6405,-3.6405,-3.6405,-3.6405,-3.6405,-3.6405,-3.6405,-3.6405,-3.6405,-3.6405,-3.6405,-3.6405,-3.6405,-3.6405,-3.6405,-3.6405,-3.6405,-3.6405,-3.6405,-3.6405,-3.6405,-3.6405,-3.6405,-3.6405,-3.6405,-3.6405,-3.6405,-3.6405,-3.6405,-3.6405,-3.6405,-3.6405,-3.6405,-3.6405,-3.6405,-3.6405,-3.6405,-3.6405,-3.6405,-3.6405,-3.6405,-3.6405,-3.6405,-3.6405,-3.6405,-3.6405,-3.6405,-3.6405,-3.6405,-3.6405,-3.6405,-3.6405,-3.6669,-3.701,-3.7563,-3.8128,-3.8693,-3.927,-3.9546,-3.9697,-3.9697,-3.9697,-3.9697,-3.9697,-3.9697,-3.9697,-3.9697,-3.9697,-3.9697,-3.9697,-3.9697,-3.9697,-3.9697,-3.9697,-3.9697,-3.9697,-3.9697,-3.9697,-3.9697,-3.9697,-3.9697,-3.9697,-3.9697,-3.9697,-3.9697,-3.9697,-3.9697,-3.9697,-3.9697,-3.9697,-3.9697,-3.9697,-3.9697,-3.9697]},{"header":{"parameterUnit":"m.s-1","parameterCategory":1,"la1":30.6,"la2":28.766,"lo1":-90.7593,"lo2":-88.6598,"dy":0.0162,"dx":0.0183,"nx":116,"ny":114,"refTime":"2023-04-15T06:00:00:Z","depth":0,"parameterNumber":3,"parameterNumberName":"V-component_of_WINDS"},"data":[0.0,0.0,0.0,0.0,0.0,0.0,0.0,0.0,0.0,0.0,0.0,0.0,0.0,0.0,0.0,0.0,0.0,0.0,0.0,0.0,0.0,0.0,0.0,0.0,0.0,0.0,0.0,0.0,0.0,0.0,0.0,0.0,0.0,0.0,0.0,0.0,0.0,0.0,0.0,0.0,0.0,0.0,0.0,0.0,0.0,0.0,0.0,0.0,0.0,0.0,0.0,0.0,0.0,0.0,0.0,0.0,0.0,0.0,0.0,0.0,0.0,0.0,0.0,0.0,0.0,0.0,0.0,0.0,0.0,0.0,0.0,0.0,0.0,0.0,0.0,0.0,0.0,0.0,0.0,0.0,0.0,0.0,0.0,0.0,0.0,0.0,0.0,0.0,0.0,0.0,0.0,0.0,0.0,0.0,0.0,0.0,0.0,0.0,0.0,0.0,0.0,0.0,0.0,0.0,0.0,0.0,0.0,0.0,0.0,0.0,0.0,0.0,0.0,0.0,0.0,0.0,0.0,0.0,0.0,0.0,0.0,0.0,0.0,0.0,0.0,0.0,0.0,0.0,0.0,0.0,0.0,0.0,0.0,0.0,0.0,0.0,0.0,0.0,0.0,0.0,0.0,0.0,0.0,0.0,0.0,0.0,0.0,0.0,0.0,0.0,0.0,0.0,0.0,0.0,0.0,0.0,0.0,0.0,0.0,0.0,0.0,0.0,0.0,0.0,0.0,0.0,0.0,0.0,0.0,0.0,0.0,0.0,0.0,0.0,0.0,0.0,0.0,0.0,0.0,0.0,0.0,0.0,0.0,0.0,0.0,0.0,0.0,0.0,0.0,0.0,0.0,0.0,0.0,0.0,0.0,0.0,0.0,0.0,0.0,0.0,0.0,0.0,0.0,0.0,0.0,0.0,0.0,0.0,0.0,0.0,0.0,0.0,0.0,0.0,0.0,0.0,0.0,0.0,0.0,0.0,0.0,0.0,0.0,0.0,0.0,0.0,0.0,0.0,0.0,0.0,0.0,0.0,0.0,0.0,0.0,0.0,0.0,0.0,0.0,0.0,0.0,0.0,0.0,0.0,0.0,0.0,0.0,0.0,0.0,0.0,0.0,0.0,0.0,0.0,0.0,0.0,0.0,0.0,0.0,0.0,0.0,0.0,0.0,0.0,0.0,0.0,0.0,0.0,0.0,0.0,0.0,0.0,0.0,0.0,0.0,0.0,0.0,0.0,0.0,0.0,0.0,0.0,0.0,0.0,0.0,0.0,0.0,0.0,0.0,0.0,0.0,0.0,0.0,0.0,0.0,0.0,0.0,0.0,0.0,0.0,0.0,0.0,0.0,0.0,0.0,0.0,0.0,0.0,0.0,0.0,0.0,0.0,0.0,0.0,0.0,0.0,0.0,0.0,0.0,0.0,0.0,0.0,0.0,0.0,0.0,0.0,0.0,0.0,0.0,0.0,0.0,0.0,0.0,0.0,0.0,0.0,0.0,0.0,0.0,0.0,0.0,0.0,0.0,0.0,0.0,0.0,0.0,0.0,0.0,0.0,0.0,0.0,0.0,0.0,0.0,0.0,0.0,0.0,0.0,0.0,0.0,0.0,0.0,0.0,0.0,0.0,0.0,0.0,0.0,0.0,0.0,0.0,0.0,0.0,0.0,0.0,0.0,0.0,0.0,0.0,0.0,0.0,0.0,0.0,0.0,0.0,0.0,0.0,0.0,0.0,0.0,0.0,0.0,0.0,0.0,0.0,0.0,0.0,0.0,0.0,0.0,0.0,0.0,0.0,0.0,0.0,0.0,0.0,0.0,0.0,0.0,0.0,0.0,0.0,0.0,0.0,0.0,0.0,0.0,0.0,0.0,0.0,0.0,0.0,0.0,0.0,0.0,0.0,0.0,0.0,0.0,0.0,0.0,0.0,0.0,0.0,0.0,0.0,0.0,0.0,0.0,0.0,0.0,0.0,0.0,0.0,0.0,0.0,0.0,0.0,0.0,0.0,0.0,0.0,0.0,0.0,0.0,0.0,0.0,0.0,0.0,0.0,0.0,0.0,0.0,0.0,0.0,0.0,0.0,0.0,0.0,0.0,0.0,0.0,0.0,0.0,0.0,0.0,0.0,0.0,0.0,0.0,0.0,0.0,0.0,0.0,0.0,0.0,0.0,0.0,0.0,0.0,0.0,0.0,0.0,0.0,0.0,0.0,0.0,0.0,0.0,0.0,0.0,0.0,0.0,0.0,0.0,0.0,0.0,0.0,0.0,0.0,0.0,0.0,0.0,0.0,0.0,0.0,0.0,0.0,0.0,0.0,0.0,0.0,0.0,0.0,0.0,0.0,0.0,0.0,0.0,0.0,0.0,0.0,0.0,0.0,0.0,0.0,0.0,0.0,0.0,0.0,0.0,0.0,0.0,0.0,0.0,0.0,0.0,0.0,0.0,0.0,0.0,0.0,0.0,0.0,0.0,0.0,0.0,0.0,0.0,0.0,0.0,0.0,0.0,0.0,0.0,0.0,0.0,0.0,0.0,0.0,0.0,0.0,0.0,0.0,0.0,0.0,0.0,0.0,0.0,0.0,0.0,0.0,0.0,0.0,0.0,0.0,0.0,0.0,0.0,0.0,0.0,0.0,0.0,0.0,0.0,0.0,0.0,0.0,0.0,0.0,0.0,0.0,0.0,0.0,0.0,0.0,0.0,0.0,0.0,0.0,0.0,0.0,0.0,0.0,0.0,0.0,0.0,0.0,0.0,0.0,0.0,0.0,0.0,0.0,0.0,0.0,0.0,0.0,0.0,0.0,0.0,0.0,0.0,0.0,0.0,0.0,0.0,0.0,0.0,0.0,0.0,0.0,0.0,0.0,0.0,0.0,0.0,0.0,0.0,0.0,0.0,0.0,0.0,0.0,0.0,0.0,0.0,0.0,0.0,0.0,0.0,0.0,0.0,0.0,0.0,0.0,0.0,0.0,0.0,0.0,0.0,0.0,0.0,0.0,0.0,0.0,0.0,0.0,0.0,0.0,0.0,0.0,0.0,0.0,0.0,0.0,0.0,0.0,0.0,0.0,0.0,0.0,0.0,0.0,0.0,0.0,0.0,0.0,0.0,0.0,0.0,0.0,0.0,0.0,0.0,0.0,0.0,0.0,0.0,0.0,0.0,0.0,0.0,0.0,0.0,0.0,0.0,0.0,0.0,0.0,0.0,0.0,0.0,0.0,0.0,0.0,0.0,0.0,0.0,0.0,0.0,0.0,0.0,0.0,0.0,0.0,0.0,0.0,0.0,0.0,0.0,0.0,0.0,0.0,0.0,0.0,0.0,0.0,0.0,0.0,0.0,0.0,0.0,0.0,0.0,0.0,0.0,0.0,0.0,0.0,0.0,0.0,0.0,0.0,0.0,0.0,0.0,0.0,0.0,0.0,0.0,0.0,0.0,0.0,0.0,0.0,0.0,0.0,0.0,0.0,0.0,0.0,0.0,0.0,0.0,0.0,0.0,0.0,0.0,0.0,0.0,0.0,0.0,0.0,0.0,0.0,0.0,0.0,0.0,0.0,0.0,0.0,0.0,0.0,0.0,0.0,0.0,0.0,0.0,0.0,0.0,0.0,0.0,0.0,0.0,0.0,0.0,0.0,0.0,0.0,0.0,0.0,0.0,0.0,0.0,0.0,0.0,0.0,0.0,0.0,0.0,0.0,0.0,0.0,0.0,0.0,0.0,0.0,0.0,0.0,0.0,0.0,0.0,0.0,0.0,0.0,0.0,0.0,0.0,0.0,0.0,0.0,0.0,0.0,0.0,0.0,0.0,0.0,0.0,0.0,0.0,0.0,0.0,0.0,0.0,0.0,0.0,0.0,0.0,0.0,0.0,0.0,0.0,0.0,0.0,0.0,0.0,0.0,0.0,0.0,0.0,0.0,0.0,0.0,0.0,0.0,0.0,0.0,0.0,0.0,0.0,0.0,0.0,0.0,0.0,0.0,0.0,0.0,0.0,0.0,0.0,0.0,0.0,0.0,0.0,0.0,0.0,0.0,0.0,0.0,0.0,0.0,0.0,0.0,0.0,0.0,0.0,0.0,0.0,0.0,0.0,0.0,0.0,0.0,0.0,0.0,0.0,0.0,0.0,0.0,0.0,0.0,0.0,0.0,0.0,0.0,0.0,0.0,0.0,0.0,0.0,0.0,0.0,0.0,0.0,0.0,0.0,0.0,0.0,0.0,0.0,0.0,0.0,0.0,0.0,0.0,0.0,0.0,0.0,0.0,0.0,0.0,0.0,0.0,0.0,0.0,0.0,0.0,0.0,0.0,0.0,0.0,0.0,0.0,0.0,0.0,0.0,0.0,0.0,0.0,0.0,0.0,0.0,0.0,0.0,0.0,0.0,0.0,0.0,0.0,0.0,0.0,0.0,0.0,0.0,0.0,0.0,0.0,0.0,0.0,0.0,0.0,0.0,0.0,0.0,0.0,0.0,0.0,0.0,0.0,0.0,0.0,0.0,0.0,0.0,0.0,0.0,0.0,0.0,0.0,0.0,0.0,0.0,0.0,0.0,0.0,0.0,0.0,0.0,0.0,0.0,0.0,0.0,0.0,0.0,0.0,0.0,0.0,0.0,0.0,0.0,0.0,0.0,0.0,0.0,0.0,0.0,0.0,0.0,0.0,0.0,0.0,0.0,0.0,0.0,0.0,0.0,0.0,0.0,0.0,0.0,0.0,0.0,0.0,0.0,0.0,0.0,0.0,0.0,0.0,0.0,0.0,0.0,0.0,0.0,0.0,0.0,0.0,0.0,0.0,0.0,0.0,0.0,0.0,0.0,0.0,0.0,0.0,0.0,0.0,0.0,0.0,0.0,0.0,0.0,0.0,0.0,0.0,0.0,0.0,0.0,0.0,0.0,0.0,0.0,0.0,0.0,0.0,0.0,0.0,0.0,0.0,0.0,0.0,0.0,0.0,0.0,0.0,0.0,0.0,0.0,0.0,0.0,0.0,0.0,0.0,0.0,0.0,0.0,0.0,0.0,0.0,0.0,0.0,0.0,0.0,0.0,0.0,0.0,0.0,0.0,0.0,0.0,0.0,0.0,0.0,0.0,0.0,0.0,0.0,0.0,0.0,0.0,0.0,0.0,0.0,0.0,0.0,0.0,0.0,0.0,0.0,0.0,0.0,0.0,0.0,0.0,0.0,0.0,0.0,0.0,0.0,0.0,0.0,0.0,0.0,0.0,0.0,0.0,0.0,0.0,0.0,0.0,0.0,0.0,0.0,0.0,0.0,0.0,0.0,0.0,0.0,0.0,0.0,0.0,0.0,0.0,0.0,0.0,0.0,0.0,0.0,0.0,0.0,0.0,0.0,0.0,0.0,0.0,0.0,0.0,0.0,0.0,0.0,0.0,0.0,0.0,0.0,0.0,0.0,0.0,0.0,0.0,0.0,0.0,0.0,0.0,0.0,0.0,0.0,0.0,0.0,0.0,0.0,0.0,0.0,0.0,0.0,0.0,0.0,0.0,0.0,0.0,0.0,0.0,0.0,0.0,0.0,0.0,0.0,0.0,0.0,0.0,0.0,0.0,0.0,0.0,0.0,0.0,0.0,0.0,0.0,0.0,0.0,0.0,0.0,0.0,0.0,0.0,0.0,0.0,0.0,0.0,0.0,0.0,0.0,0.0,0.0,0.0,0.0,0.0,0.0,0.0,0.0,0.0,0.0,0.0,0.0,0.0,0.0,0.0,0.0,0.0,0.0,0.0,0.0,0.0,0.0,0.0,0.0,0.0,0.0,0.0,0.0,0.0,0.0,0.0,0.0,0.0,0.0,0.0,0.0,0.0,0.0,0.0,0.0,0.0,0.0,0.0,0.0,0.0,0.0,0.0,0.0,0.0,0.0,0.0,0.0,0.0,0.0,0.0,0.0,0.0,0.0,0.0,0.0,0.0,0.0,0.0,0.0,0.0,0.0,0.0,0.0,0.0,0.0,0.0,0.0,0.0,0.0,0.0,0.0,0.0,0.0,0.0,0.0,0.0,0.0,0.0,0.0,0.0,0.0,0.0,0.0,0.0,0.0,0.0,0.0,0.0,0.0,0.0,0.0,0.0,0.0,0.0,0.0,0.0,0.0,3.7986,3.7986,0.0,0.0,0.0,0.0,0.0,0.0,0.0,0.0,0.0,0.0,0.0,0.0,0.0,0.0,0.0,0.0,0.0,0.0,0.0,0.0,0.0,0.0,0.0,0.0,0.0,0.0,0.0,0.0,0.0,0.0,0.0,0.0,0.0,0.0,0.0,0.0,0.0,0.0,3.4981,3.5078,3.5175,3.5175,3.5078,3.4775,0.0,0.0,0.0,0.0,0.0,0.0,0.0,0.0,0.0,0.0,0.0,0.0,0.0,0.0,0.0,0.0,0.0,0.0,0.0,0.0,0.0,0.0,0.0,0.0,0.0,0.0,0.0,0.0,0.0,0.0,0.0,0.0,0.0,0.0,0.0,0.0,0.0,0.0,0.0,0.0,0.0,0.0,0.0,0.0,0.0,0.0,0.0,0.0,0.0,0.0,0.0,0.0,0.0,0.0,0.0,0.0,0.0,0.0,0.0,0.0,0.0,0.0,0.0,0.0,0.0,0.0,0.0,0.0,0.0,0.0,3.8092,3.7986,0.0,0.0,0.0,0.0,0.0,0.0,0.0,0.0,0.0,0.0,0.0,0.0,0.0,0.0,0.0,0.0,0.0,0.0,0.0,0.0,0.0,0.0,0.0,0.0,0.0,0.0,0.0,0.0,0.0,0.0,0.0,0.0,0.0,0.0,0.0,0.0,0.0,3.5223,3.5271,3.5368,3.562,3.562,3.5368,3.4932,3.4872,0.0,0.0,0.0,0.0,0.0,0.0,0.0,0.0,0.0,0.0,0.0,0.0,0.0,0.0,0.0,0.0,0.0,0.0,0.0,0.0,0.0,0.0,0.0,0.0,0.0,0.0,0.0,0.0,0.0,0.0,0.0,0.0,0.0,0.0,0.0,0.0,0.0,0.0,0.0,0.0,0.0,0.0,0.0,0.0,0.0,0.0,0.0,0.0,0.0,0.0,0.0,0.0,0.0,0.0,0.0,0.0,0.0,0.0,0.0,0.0,0.0,0.0,0.0,3.8473,3.8579,3.8788,3.8788,3.8788,3.8788,3.8303,3.8145,3.8145,3.8145,0.0,0.0,0.0,0.0,0.0,0.0,0.0,0.0,0.0,0.0,0.0,0.0,0.0,0.0,0.0,0.0,0.0,0.0,0.0,0.0,0.0,0.0,3.4775,3.4775,3.4775,3.4775,0.0,0.0,0.0,0.0,0.0,0.0,0.0,3.503,3.5175,3.5223,3.5428,3.5572,3.562,3.562,3.5572,3.5476,3.5271,3.5126,3.5126,0.0,0.0,0.0,0.0,0.0,0.0,0.0,0.0,0.0,0.0,0.0,0.0,0.0,0.0,0.0,0.0,0.0,0.0,0.0,0.0,0.0,0.0,0.0,0.0,0.0,0.0,0.0,0.0,0.0,0.0,0.0,0.0,0.0,0.0,0.0,0.0,0.0,0.0,0.0,0.0,0.0,3.5572,3.5572,0.0,0.0,0.0,0.0,0.0,0.0,0.0,0.0,0.0,0.0,0.0,0.0,0.0,3.7817,3.7964,3.8405,3.8662,3.8736,3.8736,3.8788,3.8788,3.8788,3.8788,3.8788,3.8736,0.0,3.8684,3.8684,0.0,0.0,0.0,0.0,0.0,0.0,0.0,0.0,0.0,0.0,0.0,0.0,0.0,0.0,0.0,0.0,0.0,0.0,0.0,0.0,0.0,3.4775,3.4775,3.4775,3.4775,3.4775,3.4775,0.0,0.0,0.0,0.0,0.0,3.503,3.5271,3.5524,3.5668,3.5895,3.6038,3.6038,3.6038,3.6038,3.6038,3.5764,3.5572,3.5428,3.5271,0.0,0.0,0.0,0.0,0.0,0.0,0.0,0.0,0.0,0.0,0.0,0.0,0.0,0.0,0.0,0.0,0.0,0.0,0.0,0.0,0.0,0.0,0.0,0.0,0.0,0.0,0.0,0.0,0.0,0.0,0.0,0.0,0.0,0.0,0.0,0.0,0.0,0.0,0.0,3.5716,3.5668,3.5812,3.5572,3.5416,0.0,0.0,0.0,0.0,0.0,0.0,0.0,0.0,0.0,3.7329,3.7821,3.8214,3.8509,3.8678,3.8733,3.858,3.858,3.8522,3.8326,3.8326,3.8326,3.8326,3.8326,3.8326,3.8376,3.8699,3.8736,3.8631,0.0,0.0,0.0,0.0,3.8436,3.8267,0.0,0.0,0.0,0.0,0.0,0.0,0.0,0.0,0.0,0.0,0.0,0.0,3.4775,3.4775,3.4775,3.4775,3.4775,3.4775,3.4775,0.0,0.0,0.0,0.0,3.532,3.532,3.5572,3.5812,3.6098,3.6323,3.6405,3.6405,3.6405,3.6405,3.6405,3.6193,3.5955,3.5716,3.562,3.562,3.562,0.0,0.0,0.0,0.0,0.0,0.0,0.0,0.0,0.0,0.0,0.0,0.0,0.0,0.0,0.0,0.0,0.0,0.0,0.0,0.0,0.0,0.0,0.0,0.0,0.0,0.0,0.0,0.0,0.0,0.0,0.0,0.0,0.0,0.0,0.0,0.0,0.0,3.5955,3.586,3.6098,3.586,3.5716,0.0,0.0,0.0,0.0,0.0,0.0,3.6493,3.6776,3.7294,3.8036,3.8197,3.8395,3.8578,3.8578,3.8522,3.8303,3.8303,3.8191,3.8002,3.8002,3.8002,3.8002,3.8002,3.8002,3.8015,3.8449,3.8526,3.8487,3.8487,3.8263,3.8079,3.8536,3.8563,3.8455,0.0,0.0,0.0,0.0,0.0,0.0,0.0,0.0,0.0,0.0,0.0,3.4775,3.4775,3.4775,3.4775,3.4775,3.4775,3.4775,3.4775,3.503,3.5175,3.5175,3.5416,3.5572,3.5572,3.5812,3.6098,3.6358,3.6405,3.6405,3.6405,3.6405,3.6405,3.6405,3.6405,3.6228,3.5968,3.5716,3.562,3.562,3.562,0.0,0.0,0.0,0.0,0.0,0.0,0.0,0.0,0.0,0.0,0.0,0.0,0.0,0.0,0.0,0.0,0.0,0.0,0.0,0.0,0.0,0.0,0.0,0.0,0.0,0.0,0.0,0.0,0.0,0.0,0.0,0.0,0.0,0.0,0.0,0.0,0.0,0.0,3.6358,3.6146,0.0,0.0,0.0,0.0,3.562,3.6088,3.648,3.6773,3.7792,3.8241,3.8015,3.858,3.863,3.8041,3.8041,3.8028,3.8003,3.8003,3.8027,3.8002,3.8002,3.8002,3.8002,3.8002,3.8002,3.8015,3.8015,3.7904,3.768,3.768,3.7814,3.803,3.8297,3.8773,3.9285,0.0,0.0,0.0,0.0,0.0,0.0,0.0,0.0,0.0,3.421,3.457,3.4655,3.4306,3.457,3.4775,3.4775,3.4981,3.5078,3.5078,3.5003,3.495,3.495,3.4854,3.5015,3.5503,3.6006,3.6323,3.6405,3.6405,3.6405,3.6405,3.6405,3.6405,3.6405,3.6405,3.637,3.6228,3.6181,3.6133,3.6133,3.6133,3.6133,0.0,0.0,0.0,0.0,0.0,0.0,0.0,0.0,0.0,0.0,0.0,0.0,0.0,0.0,0.0,0.0,0.0,0.0,0.0,0.0,0.0,0.0,0.0,0.0,0.0,0.0,0.0,0.0,0.0,0.0,0.0,0.0,0.0,0.0,0.0,0.0,0.0,3.6405,3.6323,0.0,3.6275,3.6493,3.6507,3.6158,3.6584,3.6944,3.7028,3.7465,3.7753,3.8002,3.8203,3.8216,3.8002,3.8002,3.7826,3.7475,3.7475,3.7287,3.6996,3.6996,3.6996,3.6996,3.6996,3.6996,3.6996,3.6996,3.7539,3.8429,3.8429,3.8491,3.8653,3.9053,3.9129,3.9105,0.0,0.0,0.0,0.0,0.0,0.0,0.0,0.0,0.0,3.4234,3.4402,3.4378,3.403,3.4306,3.4487,3.4414,3.4545,3.4688,3.4783,3.4689,3.4619,3.4619,3.4504,3.4694,3.5219,3.5617,3.5805,3.5805,3.5805,3.5906,3.6094,3.6094,3.6182,3.6405,3.6405,3.6405,3.6405,3.6405,3.6405,3.6405,3.6405,3.6405,3.6367,0.0,0.0,0.0,0.0,0.0,0.0,0.0,0.0,0.0,0.0,0.0,0.0,0.0,0.0,0.0,0.0,0.0,0.0,0.0,0.0,0.0,0.0,0.0,0.0,0.0,0.0,0.0,0.0,0.0,0.0,0.0,0.0,0.0,0.0,3.6405,3.6405,3.6405,3.6568,3.6619,3.643,3.6908,3.7008,3.6455,3.692,3.7186,3.7186,3.7362,3.755,3.7726,3.7726,3.7638,3.745,3.745,3.7262,3.6958,3.6958,3.6757,3.6405,3.6405,3.6405,3.6405,3.6405,3.6405,3.6405,3.6405,3.7172,3.8328,3.8152,3.819,3.8341,3.8718,3.873,3.863,0.0,0.0,0.0,0.0,0.0,0.0,0.0,0.0,3.2969,3.4546,3.4282,3.3958,3.3946,3.3958,3.386,3.3621,3.363,3.3722,3.3998,3.4202,3.4268,3.4243,3.4552,3.47,3.47,3.4668,3.468,3.468,3.468,3.4956,3.547,3.547,3.5805,3.6355,3.6355,3.6355,3.6355,3.6367,3.638,3.638,3.6405,3.6405,3.6405,0.0,0.0,0.0,0.0,0.0,0.0,0.0,0.0,0.0,0.0,0.0,0.0,0.0,0.0,0.0,0.0,0.0,0.0,0.0,0.0,0.0,0.0,0.0,0.0,0.0,0.0,0.0,0.0,0.0,0.0,0.0,0.0,0.0,3.643,3.6417,3.6417,3.643,3.6895,3.6996,3.6455,3.6908,3.7008,3.6455,3.692,3.7174,3.7161,3.7663,3.7713,3.7174,3.7161,3.6958,3.6417,3.6405,3.6405,3.6405,3.6405,3.6405,3.6405,3.6405,3.6405,3.6405,3.6405,3.6405,3.6405,3.6405,3.6719,3.7111,3.6631,3.6769,3.7211,3.7211,3.755,3.8002,0.0,0.0,0.0,0.0,0.0,0.0,0.0,3.2213,3.3005,3.3119,3.3344,3.3344,3.2959,3.326,3.3522,3.3596,3.3768,3.3998,3.4214,3.408,3.3859,3.3458,3.3865,3.4123,3.4123,3.4512,3.468,3.468,3.468,3.4801,3.4906,3.4906,3.5027,3.5177,3.5177,3.5177,3.519,3.5604,3.5768,3.5805,3.6194,3.6405,3.6405,0.0,0.0,0.0,0.0,0.0,0.0,0.0,0.0,0.0,0.0,0.0,0.0,0.0,0.0,0.0,0.0,0.0,0.0,0.0,0.0,0.0,0.0,0.0,0.0,0.0,0.0,0.0,0.0,0.0,0.0,0.0,3.8204,3.829,3.7155,3.6669,3.6556,3.691,3.6782,3.6568,3.6417,3.6908,3.7008,3.6455,3.692,3.701,3.6656,3.6782,3.6795,3.6631,3.6631,3.6568,3.6405,3.6405,3.6405,3.6405,3.6405,3.6405,3.6405,3.6405,3.6405,3.6405,3.6405,3.6405,3.6405,3.6405,3.6505,3.6656,3.6908,3.7299,3.7789,3.7789,3.7877,3.8002,0.0,0.0,0.0,0.0,0.0,0.0,0.0,3.1572,3.232,3.2229,3.2657,3.2839,3.2527,3.2779,3.3001,3.3076,3.3244,3.3456,3.3756,3.3646,3.342,3.3093,3.3382,3.3558,3.3558,3.3872,3.4035,3.4035,3.4035,3.4148,3.4374,3.4374,3.45,3.468,3.468,3.468,3.4705,3.5019,3.5157,3.5182,3.5542,3.5943,3.6405,3.6405,3.6405,3.6405,3.6405,3.6405,3.6405,3.6405,0.0,0.0,0.0,0.0,0.0,0.0,0.0,0.0,0.0,0.0,0.0,0.0,0.0,0.0,0.0,0.0,0.0,0.0,0.0,0.0,0.0,0.0,0.0,0.0,3.8499,3.8252,3.7321,3.7302,3.7231,3.6918,3.6807,3.6669,3.643,3.6908,3.7008,3.6455,3.6707,3.6744,3.643,3.6405,3.6405,3.6405,3.6405,3.6405,3.6405,3.6405,3.6405,3.6405,3.6405,3.6405,3.6405,3.6405,3.6405,3.6405,3.6405,3.6405,3.6405,3.6405,3.6405,3.6443,0.0,0.0,0.0,0.0,3.7312,3.7312,0.0,0.0,0.0,0.0,0.0,0.0,0.0,3.0413,3.1256,3.1559,3.2075,3.2406,3.2406,3.2406,3.2394,3.235,3.2388,3.2605,3.3081,3.3124,3.3124,3.3124,3.3124,3.3124,3.3124,3.3124,3.3124,3.3124,3.3124,3.3319,3.3809,3.3809,3.406,3.4537,3.4537,3.4537,3.4537,3.4555,3.4625,3.4638,3.47,3.5341,3.6317,3.6317,3.6355,3.6405,3.6405,3.6405,3.6405,3.6405,0.0,0.0,0.0,0.0,0.0,0.0,0.0,0.0,0.0,0.0,0.0,0.0,0.0,0.0,0.0,0.0,0.0,0.0,0.0,0.0,0.0,0.0,0.0,0.0,3.8247,3.7539,3.7283,3.808,3.8168,3.6698,3.6966,3.7041,3.6455,3.6857,3.6885,3.6443,3.6405,3.6405,3.6405,3.6405,0.0,0.0,0.0,3.6405,3.6405,3.6405,3.6405,3.6405,3.6405,3.6405,3.6405,3.6405,3.6405,3.6405,3.6405,3.6405,3.6405,3.6405,3.6405,3.6405,3.6405,3.6405,3.6405,3.6405,3.6405,3.6405,0.0,0.0,0.0,0.0,0.0,0.0,0.0,2.9979,3.0822,3.026,3.1137,3.1862,3.1862,3.1862,3.1926,3.2038,3.2257,3.2605,3.3081,3.3124,3.3124,3.3124,3.3124,3.3124,3.3124,3.3124,3.3124,3.3124,3.3124,3.3131,3.3232,3.3232,3.3294,3.3395,3.3395,3.3395,3.342,3.3872,3.406,3.4098,3.455,3.5069,3.5658,3.5658,3.5981,3.6405,3.6405,3.6405,3.6405,3.6405,3.6405,3.6405,3.6405,3.6405,0.0,0.0,0.0,0.0,0.0,0.0,0.0,0.0,0.0,0.0,0.0,0.0,0.0,0.0,0.0,0.0,0.0,0.0,0.0,4.036,4.0332,3.9619,3.7779,3.8247,3.8337,3.7167,3.7407,3.7338,3.6465,3.6505,3.6518,3.6417,3.6405,3.6405,3.6405,3.6405,3.6405,3.6405,3.6405,3.6405,3.6405,3.6405,3.6405,3.6405,3.6405,0.0,3.6405,3.6405,3.6405,3.6405,3.6405,3.6405,3.6405,3.6405,3.6405,3.6405,3.6405,3.6405,3.6405,3.6405,3.6405,3.6405,0.0,0.0,0.0,0.0,0.0,0.0,0.0,2.8925,2.9554,2.9382,3.0274,3.1149,3.1661,3.1705,3.1761,3.1981,3.2332,3.2636,3.2896,3.3038,3.3124,3.3124,3.3124,3.3124,3.3124,3.3124,3.3124,3.3124,3.3124,3.3124,3.3124,3.3124,3.3124,3.3124,3.3124,3.3124,3.3136,3.337,3.3483,3.3508,3.3784,3.4223,3.4776,3.5295,3.5671,3.5994,3.6304,3.6405,3.6405,3.6405,3.6405,3.6405,3.6405,3.6405,3.6405,0.0,0.0,0.0,0.0,0.0,0.0,0.0,0.0,0.0,0.0,0.0,0.0,0.0,0.0,3.9677,4.1005,0.0,4.0362,4.1365,4.0651,3.9462,3.8026,3.8615,3.8556,3.6998,3.6981,3.6909,3.6452,3.6405,3.6405,3.6405,3.6405,3.6405,3.6405,3.6405,3.6405,3.6405,3.6405,3.6405,3.6405,3.6405,3.6405,3.6405,3.6405,3.6405,3.6405,3.6405,3.6405,3.6405,3.6405,3.6405,3.6405,3.6405,3.6405,3.6405,3.6405,3.6405,3.6405,3.6405,3.6405,3.6405,0.0,0.0,0.0,0.0,0.0,0.0,0.0,0.0,0.0,2.8881,2.9648,3.0543,3.1572,3.1705,3.1761,3.1981,3.2332,3.2581,3.2667,3.2896,3.3038,3.3124,3.3124,3.3124,3.3124,3.3124,3.3124,3.3124,3.3124,3.3124,3.3124,3.3124,3.3124,3.3124,3.3124,3.3124,3.3124,3.3124,3.3124,3.3124,3.3124,3.3345,3.3847,3.4806,3.5245,3.5408,3.6006,3.6207,3.6267,3.6367,3.6405,3.6405,3.6405,3.6405,3.6405,3.6405,3.6405,0.0,0.0,0.0,0.0,0.0,0.0,0.0,0.0,3.7123,3.7788,3.8185,3.9164,4.0347,4.1713,4.0831,4.0372,4.1776,4.0374,3.8924,3.8323,3.8859,3.868,3.7036,3.6722,3.6581,3.6405,3.6405,3.6405,3.6405,3.6405,3.6405,3.6405,3.6405,3.6405,3.6405,3.6405,3.6405,3.6405,3.6405,3.6405,3.6405,3.6405,3.6405,3.6405,3.6405,3.6405,3.6405,3.6405,3.6405,3.6405,3.6405,3.6405,3.6405,3.6405,3.6405,3.6405,3.6405,3.6405,3.6405,0.0,0.0,0.0,0.0,0.0,0.0,0.0,0.0,0.0,2.9024,2.9532,3.0317,3.156,3.1705,3.1761,3.1981,3.2038,3.2245,3.2667,3.2723,3.2853,3.3081,3.3124,3.3124,3.3124,3.3124,3.3124,3.3124,3.3124,3.3124,3.3124,3.3124,3.3124,3.3124,3.3124,3.3124,3.3124,3.3124,3.3124,3.3124,3.3124,3.3162,3.3232,3.3847,3.4387,3.4843,3.5395,3.5596,3.5658,3.6194,3.6405,3.6405,3.6405,3.6405,3.6405,3.6405,3.6405,3.6405,3.6405,3.6405,3.6405,3.6405,3.6405,3.6531,0.0,3.6857,3.7096,3.8903,3.8341,3.8405,4.1001,4.0823,4.0566,4.1209,4.0429,3.9543,3.8895,3.8689,3.8541,3.8283,3.7887,3.7315,3.6499,3.6405,3.6405,3.6405,3.6405,3.6405,3.6405,3.6405,3.6405,3.6405,3.6405,3.6405,3.6405,3.6405,3.6405,3.6405,3.6405,3.6405,3.6405,3.6405,3.6405,3.6405,3.6405,3.6405,3.6405,3.6405,3.6405,3.6405,3.6405,3.6405,3.6405,3.6405,3.6405,3.6405,0.0,0.0,0.0,0.0,0.0,0.0,0.0,0.0,0.0,0.0,0.0,2.9336,3.0487,3.125,3.1705,3.1805,3.195,3.2069,3.2288,3.2419,3.2636,3.2853,3.2853,3.2939,3.3124,3.3124,3.3124,3.3124,3.3124,3.3124,3.3124,3.3124,3.3124,3.3124,3.3124,3.3124,3.3124,3.3124,3.3124,3.3124,3.3124,3.3124,3.3106,3.3332,3.3558,3.3872,3.4705,3.5019,0.0,3.5705,3.5893,3.5943,3.6304,3.6405,3.6405,3.6405,3.6405,3.6405,3.6405,3.6405,3.6405,3.6405,3.6405,3.6468,3.6694,3.682,3.7104,3.7932,3.8308,3.8944,4.0663,4.0209,3.9991,4.1426,4.034,3.9401,3.9637,3.9579,3.9227,3.8599,3.8328,3.7965,3.7461,3.7302,3.6989,3.6452,3.6405,3.6405,3.6405,3.6405,3.6405,3.6405,3.6405,3.6405,3.6405,3.6405,3.6405,3.6405,3.6405,3.6405,3.6405,3.6405,3.6405,3.6405,3.6405,3.6405,3.6405,3.6405,3.6405,3.6405,3.6405,3.6405,3.6405,3.6405,3.6405,3.6405,0.0,0.0,0.0,0.0,0.0,0.0,0.0,0.0,0.0,0.0,0.0,0.0,0.0,3.0746,3.1484,3.1484,3.1761,3.1937,3.1994,3.2169,3.2388,3.2593,3.2636,3.2723,3.2982,3.2982,3.3038,3.3124,3.3124,3.3124,3.3124,3.3124,3.3124,3.3124,3.3124,3.3124,3.3124,3.3124,3.3124,3.3124,3.3124,3.3124,3.3124,3.3124,3.3124,3.3206,3.4161,3.45,3.4575,3.5094,3.527,3.5345,3.578,3.5906,3.5943,3.6094,3.6292,3.6405,3.6405,3.6405,3.6405,3.6452,3.6452,3.6443,3.6701,3.688,3.7142,3.7617,3.8152,3.8892,4.0,3.9509,3.9502,4.1296,4.036,3.9664,4.0561,4.0476,4.0002,3.9166,3.9033,3.881,3.836,3.7828,3.7222,3.6534,3.6452,3.6405,3.6405,3.6405,3.6405,3.6405,3.6405,3.6405,3.6405,3.6405,3.6405,3.6405,3.6405,3.6405,3.6405,3.6405,3.6405,3.6405,3.6405,3.6405,3.6405,3.6405,3.6405,3.6405,3.6405,3.6452,3.6499,3.6499,3.6452,3.6405,0.0,0.0,0.0,0.0,0.0,0.0,0.0,0.0,0.0,0.0,0.0,0.0,0.0,0.0,3.0904,3.0904,3.1395,3.1805,3.1994,3.1994,3.2125,3.24,3.2388,3.2519,3.2723,3.2711,3.2853,3.3124,3.3124,3.3124,3.3124,3.3124,3.3124,3.3124,3.3124,3.3124,3.3124,3.3124,3.3124,3.3124,3.3124,3.3124,3.3124,3.3124,3.3124,3.3156,3.3721,3.3922,3.401,3.4562,3.4705,3.4751,3.4763,3.4731,3.4831,3.537,3.5943,3.6405,3.6405,3.6405,3.6452,3.6628,3.6534,3.6603,3.7384,3.695,3.6899,3.8587,3.7795,3.7235,3.8697,3.8908,3.9282,4.0475,4.0603,4.0859,4.1811,4.1169,4.0589,4.0546,4.036,3.9897,3.8939,3.7579,3.6709,3.6675,3.6499,3.6405,3.6405,3.6405,3.6405,3.6405,3.6405,3.6405,3.6405,3.6405,3.6405,3.6405,3.6405,3.6405,3.6405,3.6405,3.6405,3.6405,3.6405,3.6405,3.6405,3.6405,3.6405,3.6405,3.6405,3.6546,3.6675,3.6675,3.6581,3.6452,0.0,0.0,0.0,0.0,0.0,0.0,0.0,0.0,0.0,0.0,0.0,0.0,0.0,0.0,0.0,0.0,3.1083,3.135,3.1749,3.1805,3.1893,3.2125,3.2125,3.2257,3.2519,3.2519,3.2562,3.2649,3.2649,3.2649,3.2649,3.2649,3.2649,3.2649,3.2649,3.2649,3.2649,3.2649,3.2649,3.2649,3.2766,3.2853,3.2853,3.3025,3.3124,3.3106,0.0,3.3357,3.3432,3.3985,3.4173,3.4236,3.4613,3.468,3.4826,3.5332,3.5621,3.5893,3.6304,3.6499,3.6581,3.6546,3.6534,3.6631,3.6786,3.659,3.6597,3.7326,3.707,3.7116,3.8387,3.876,3.9029,3.9414,3.9563,3.9768,4.0116,3.9855,3.9899,4.0504,4.0518,4.013,3.9179,3.8373,3.7566,3.6756,3.6628,3.6534,3.6405,3.6405,3.6405,3.6405,3.6405,3.6405,3.6405,3.6405,3.6405,3.6405,3.6405,3.6405,3.6405,3.6405,3.6405,3.6405,3.6405,3.6405,3.6405,3.6405,3.6405,3.6405,3.6405,3.6546,3.6709,3.6709,3.6769,3.6875,0.0,0.0,0.0,0.0,0.0,0.0,0.0,0.0,0.0,0.0,0.0,0.0,0.0,0.0,0.0,0.0,0.0,3.0476,3.097,3.125,3.1572,3.1893,3.1893,3.1994,3.2257,3.2257,3.23,3.24,3.24,3.24,3.24,3.24,3.24,3.24,3.24,3.24,3.24,3.24,3.24,3.2388,3.2562,3.2636,3.2723,3.2896,3.3025,0.0,3.3124,3.3124,3.3131,3.3483,3.3608,3.3671,3.4022,3.4274,3.45,3.4806,3.5194,3.5617,3.6108,3.6382,3.6581,3.664,3.664,3.6581,3.6546,3.6452,3.6452,3.6675,3.6709,3.6989,3.7854,3.8232,3.8459,3.8715,3.897,3.9299,3.9972,3.9754,3.9929,4.0986,4.0817,4.0375,3.9768,3.9121,3.8238,3.6956,3.6675,3.6534,3.6405,3.6405,3.6405,3.6405,3.6405,3.6405,3.6405,3.6405,3.6405,3.6405,3.6405,3.6405,3.6405,3.6405,3.6405,3.6405,3.6405,3.6405,3.6405,3.6405,3.6405,3.6405,3.6499,3.6628,3.6862,3.6956,3.7168,3.7366,0.0,0.0,0.0,0.0,0.0,0.0,0.0,0.0,0.0,0.0,0.0,0.0,0.0,0.0,0.0,0.0,0.0,0.0,2.984,3.0534,3.1118,3.1665,3.1673,3.1761,3.1981,3.1981,3.2125,3.2344,3.2344,3.2344,3.2344,3.2344,3.2344,3.2344,3.2344,3.2344,3.2344,3.2344,3.2344,3.2344,3.24,3.2463,3.268,3.268,3.2853,3.3081,3.3081,3.3081,3.3124,3.3124,3.3124,3.3124,3.3124,3.3432,3.3872,3.3922,3.47,3.56,3.5877,3.6202,3.6584,3.6981,3.6781,3.6499,3.6675,3.6534,3.6452,3.6675,3.6675,3.6769,3.7015,3.74,3.7802,3.8342,3.8792,3.9621,4.1253,4.076,4.0646,4.1811,4.1169,4.0646,4.0603,3.9768,3.8675,3.7294,3.6734,3.6452,3.6405,3.6405,3.6405,3.6405,3.6405,3.6405,3.6405,3.6405,3.6405,3.6405,3.6405,3.6405,3.6405,3.6405,3.6405,3.6405,3.6405,3.6405,3.6405,3.6405,3.6405,3.6405,3.6628,3.6862,3.7108,3.74,3.7657,3.7854,0.0,0.0,0.0,0.0,0.0,0.0,0.0,0.0,0.0,0.0,0.0,0.0,0.0,0.0,0.0,0.0,0.0,0.0,3.1141,3.1043,3.1158,3.1661,3.1329,3.1306,3.1761,3.1761,3.1805,3.1893,3.1893,3.1893,3.1893,3.1893,3.1893,3.1893,3.1893,3.1893,3.1893,3.1893,3.1893,3.1893,3.2025,3.2113,3.2201,3.2388,3.2593,3.2797,3.2797,3.2939,3.3124,3.3124,3.3124,3.3124,3.3124,3.3169,3.3445,3.4274,3.5138,3.5965,3.6392,3.7032,3.747,3.693,3.6875,3.6828,3.6546,3.6534,3.6628,3.6675,3.6581,3.6534,3.6769,3.8147,3.8912,3.7638,3.9563,4.0859,3.9929,4.0189,4.0632,4.0901,4.138,4.138,4.0689,4.0175,3.9536,3.8535,3.7664,3.7074,3.6628,3.6628,3.6534,3.6405,3.6405,3.6405,3.6405,3.6405,3.6405,3.6405,3.6405,3.6405,3.6405,3.6405,3.6405,3.6405,3.6405,3.6405,3.6405,3.6405,3.6405,3.6405,3.6628,3.6862,3.7108,3.74,3.7657,3.79,0.0,0.0,0.0,0.0,0.0,0.0,0.0,0.0,0.0,0.0,0.0,0.0,0.0,0.0,0.0,0.0,0.0,0.0,0.0,3.0886,3.1118,3.1681,3.1423,3.1368,3.1696,3.1692,3.1705,3.1705,3.1705,3.1705,3.1705,3.1705,3.1705,3.1705,3.1705,3.1705,3.1705,3.1705,3.1705,0.0,0.0,3.1937,3.2038,3.2169,3.2388,3.2593,3.268,3.2853,3.3124,3.3124,3.3124,3.3124,3.3124,3.3244,3.3608,3.4462,3.5382,3.6295,3.6739,3.7235,3.7492,3.7015,3.6828,3.6734,3.6452,3.6499,3.6581,3.6581,3.6499,3.6452,3.6534,3.7736,3.8283,3.7095,3.8689,3.9796,3.9135,3.9533,4.0043,4.0546,4.1071,4.1169,4.0646,4.0102,3.9536,3.906,3.7867,3.7015,3.6722,3.6628,3.6546,3.6405,3.6405,3.6405,3.6405,3.6405,3.6405,3.6405,3.6405,3.6405,3.6405,3.6405,3.6405,3.6405,3.6499,3.6499,3.6405,3.6499,3.6534,3.6534,3.6769,3.7062,3.7307,3.7564,3.7762,3.79,0.0,0.0,0.0,0.0,0.0,0.0,0.0,0.0,0.0,0.0,0.0,0.0,0.0,0.0,0.0,0.0,0.0,0.0,0.0,0.0,0.0,3.1488,3.147,3.153,3.168,3.172,3.1725,3.1725,3.1697,3.1705,3.1705,3.1705,3.1705,3.1705,3.1705,3.1705,3.1705,3.1705,3.1705,3.1705,3.1705,3.1805,3.195,0.0,0.0,3.2388,3.2636,3.2853,3.3038,3.3081,3.3124,3.3124,3.3124,3.3508,3.411,3.4675,3.5713,3.6761,3.7062,3.7254,3.7293,3.7087,3.6734,3.6452,3.6405,3.6405,3.6452,3.6405,3.6405,3.6405,3.6405,3.6875,3.7142,3.6815,3.7374,3.8154,3.9029,3.9237,3.9678,4.0689,4.0901,4.0901,4.0817,4.0029,3.9505,3.9417,3.7919,3.6943,3.6756,3.6593,3.6452,3.6405,3.6405,3.6405,3.6405,3.6405,3.6405,3.6405,3.6405,3.6405,3.6405,3.6405,3.6405,3.6452,3.6628,3.6628,3.6499,3.6675,3.6769,3.6769,3.7062,3.7307,3.7505,3.7808,3.79,3.79,0.0,0.0,0.0,0.0,0.0,0.0,0.0,0.0,0.0,0.0,2.7426,2.7031,0.0,0.0,0.0,0.0,0.0,0.0,0.0,0.0,0.0,0.0,3.0237,3.0567,3.17,3.1704,3.172,3.172,3.1699,3.1705,3.1705,3.1705,3.1705,3.1705,3.1705,3.1705,3.1705,3.1705,3.1705,3.1705,3.1705,3.1705,3.1761,0.0,0.0,0.0,3.255,3.2723,3.2797,3.3038,3.3124,3.3124,3.3124,3.3771,3.4688,3.5194,3.665,3.798,3.7607,3.7851,3.7967,3.7023,3.6722,3.6581,3.6452,3.6534,3.6581,3.6452,3.6405,3.6405,3.6405,3.7243,3.7736,3.7142,3.8527,3.9885,4.026,4.0944,4.1519,4.1728,4.24,4.2563,4.1811,4.1603,4.1212,4.0418,3.9224,3.8096,3.7108,3.7015,3.6781,3.6405,3.6405,3.6405,3.6405,3.6405,3.6405,3.6405,3.6405,3.6405,3.6405,3.6405,3.6499,3.6675,3.6675,3.6815,3.6968,3.7015,3.7015,3.7062,3.7307,3.7459,3.7505,3.7808,3.79,3.79,0.0,0.0,0.0,0.0,0.0,0.0,0.0,2.8984,2.8691,2.7932,2.7656,2.726,2.6655,2.6591,2.6899,0.0,0.0,0.0,0.0,0.0,0.0,0.0,0.0,0.0,3.098,3.1021,3.1247,3.1692,0.0,3.1291,3.1291,3.1021,3.0937,3.0937,3.0937,3.0937,3.0937,3.1172,3.1306,3.1306,3.1572,3.1705,0.0,0.0,0.0,0.0,0.0,3.2506,3.2723,3.2853,3.2982,3.3174,3.342,3.4261,3.527,3.6157,3.7472,3.859,3.8119,3.8108,3.7947,3.6953,3.6628,3.6546,3.6405,3.6452,3.6546,3.6405,3.6405,3.6405,3.6405,3.693,3.7289,3.7155,3.8069,3.9033,3.9768,4.0246,4.0731,4.1212,4.163,4.1713,4.1338,4.1254,4.0901,3.9942,3.9343,3.8522,3.7353,3.7062,3.6722,3.6405,3.6405,3.6405,3.6405,3.6405,3.6405,3.6405,3.6405,3.6405,3.6405,3.6499,3.6628,3.6722,3.7015,3.7108,3.7108,3.7261,3.7307,3.7307,3.7459,3.7611,3.7703,3.7854,3.79,3.79,0.0,0.0,0.0,0.0,0.0,0.0,0.0,2.8984,2.8691,2.7932,2.7822,2.7462,2.6674,2.6591,2.6845,0.0,0.0,0.0,0.0,0.0,0.0,0.0,0.0,0.0,0.0,0.0,0.0,3.17,3.1092,0.0,0.0,0.0,0.0,0.0,3.0537,3.048,3.0376,3.074,3.0908,0.0,0.0,3.1617,0.0,0.0,0.0,0.0,0.0,3.2245,3.255,3.268,3.3015,3.3489,3.4085,3.4926,3.5884,3.7036,3.8165,3.8944,3.8451,3.8163,3.7788,3.6859,3.6546,3.6405,3.6405,3.6405,3.6405,3.6405,3.6405,3.6405,3.6405,3.6534,3.6722,3.6968,3.7261,3.788,3.9241,3.9461,3.9899,4.1029,4.1197,4.1197,4.1197,4.1197,4.0717,3.9593,3.9135,3.849,3.7551,3.7062,3.6722,3.6546,3.6499,3.6452,3.6452,3.6405,3.6405,3.6405,3.6405,3.6405,3.6405,3.6534,3.6675,3.6815,3.7214,3.7366,3.7307,3.7505,3.7611,3.7611,3.7611,3.7703,3.79,3.79,3.79,3.79,0.0,0.0,0.0,0.0,0.0,0.0,0.0,2.8984,2.8691,2.7932,2.7822,2.7462,2.6674,2.6591,2.6646,0.0,0.0,0.0,0.0,0.0,0.0,0.0,0.0,0.0,0.0,0.0,0.0,3.1697,3.0867,0.0,0.0,0.0,0.0,0.0,0.0,3.1294,3.0823,3.087,0.0,0.0,0.0,0.0,0.0,0.0,0.0,0.0,0.0,3.2038,3.2113,3.255,3.3394,3.4417,3.5136,3.5805,3.6556,3.7613,3.873,3.9383,3.8353,3.8015,3.7739,3.6681,3.6405,3.6405,3.6405,3.6405,3.6405,3.6405,3.6405,3.6405,3.6405,3.6405,3.6499,3.6722,3.6956,3.7841,3.9814,4.0318,4.1099,4.286,4.3036,4.3036,4.3036,4.3036,4.2345,4.0589,3.8953,3.7887,3.7505,3.7214,3.7062,3.7062,3.6815,3.6675,3.6675,3.6499,3.6405,3.6405,3.6405,3.6405,3.6405,3.6405,3.664,3.7062,3.7108,3.7413,3.7854,3.7854,3.7854,3.7854,3.7854,3.7854,3.79,3.79,3.79,3.79,0.0,0.0,0.0,0.0,0.0,0.0,2.8984,2.8984,2.8691,2.7932,2.7822,2.7462,2.6674,2.6591,2.6591,2.6591,0.0,0.0,0.0,0.0,0.0,0.0,0.0,0.0,0.0,0.0,2.9237,3.0128,3.0019,0.0,0.0,0.0,0.0,0.0,0.0,3.114,3.0959,3.0923,0.0,0.0,0.0,0.0,0.0,0.0,0.0,0.0,0.0,0.0,3.2038,3.2388,3.338,3.4583,3.5699,3.6659,3.7513,3.8291,3.9082,3.9521,3.8743,3.8278,3.7814,3.7048,3.6656,3.6405,3.6405,3.6405,3.6405,3.6405,3.6405,3.6405,3.6405,3.6405,3.6452,3.6675,3.6922,3.7638,3.921,3.9593,4.0461,4.2278,4.2537,4.2699,4.325,4.329,4.278,4.1561,3.9752,3.8626,3.8522,3.7789,3.7261,3.7121,3.7015,3.6956,3.6956,3.6875,3.6828,3.6828,3.6828,3.6734,3.6581,3.6922,3.7074,3.7108,3.7459,3.7703,3.79,3.79,3.79,3.79,3.79,3.79,3.79,3.79,3.79,3.79,0.0,0.0,0.0,0.0,0.0,2.8984,2.8984,2.8984,2.8737,2.804,2.7838,2.7564,2.6839,2.6655,2.6591,2.6591,2.6591,0.0,0.0,0.0,0.0,0.0,0.0,0.0,0.0,0.0,2.8359,2.946,2.9518,2.9785,0.0,0.0,3.0959,3.1156,0.0,0.0,0.0,0.0,0.0,0.0,0.0,0.0,0.0,0.0,0.0,0.0,0.0,0.0,0.0,0.0,0.0,3.4727,3.6,3.7249,3.8379,3.8944,3.9383,3.9572,3.907,3.858,3.8128,3.7563,3.701,3.6656,3.6656,3.6518,3.6405,3.6405,3.6405,3.6405,3.6405,3.6452,3.6534,0.0,0.0,3.7605,3.8729,3.9046,3.9768,4.138,4.1603,4.1935,4.2835,4.2915,4.2659,4.2032,4.0246,3.921,3.921,3.82,3.7505,3.7353,3.7261,3.7214,3.7214,3.7155,3.7108,3.7108,3.7108,3.7015,3.6815,3.7214,3.7307,3.7261,3.7611,3.7854,3.79,3.79,3.79,3.79,3.79,3.79,3.79,3.79,3.79,3.79,0.0,0.0,0.0,0.0,0.0,0.0,2.8984,2.8984,2.8838,2.8443,2.8022,2.7675,2.7215,2.682,2.6591,2.6591,2.6591,0.0,0.0,0.0,0.0,0.0,0.0,0.0,0.0,0.0,2.8625,3.0391,2.9513,2.9974,3.1567,3.0785,3.0836,3.1607,0.0,0.0,0.0,0.0,0.0,0.0,0.0,0.0,0.0,0.0,0.0,0.0,0.0,0.0,0.0,0.0,0.0,0.0,0.0,3.7561,3.902,3.9521,3.9685,3.9572,3.907,3.8919,3.873,3.814,3.7588,3.7174,3.7174,3.6807,3.6405,3.6405,3.6405,3.6405,3.6405,3.6534,3.6709,3.6709,3.7155,0.0,3.8774,3.9046,3.9549,4.0504,4.0603,4.0986,4.1908,4.199,4.199,4.199,4.0246,3.921,3.921,3.8349,3.79,3.79,3.7611,3.7505,3.7505,3.7214,3.7108,3.7108,3.7108,3.7108,3.7108,3.7108,3.7261,3.7505,3.7505,3.7657,3.79,3.79,3.79,3.79,3.79,3.79,3.79,3.79,3.79,3.79,0.0,0.0,0.0,0.0,0.0,0.0,0.0,2.8984,2.8847,2.8443,2.8278,2.7939,2.7251,2.7068,2.6885,2.6609,2.6591,0.0,0.0,0.0,0.0,0.0,0.0,0.0,0.0,0.0,2.8092,2.8625,2.9533,3.0276,3.0806,3.1454,3.2117,3.2695,3.2319,3.2482,0.0,0.0,0.0,0.0,0.0,0.0,3.2202,0.0,0.0,0.0,0.0,0.0,0.0,0.0,0.0,0.0,0.0,0.0,0.0,3.8969,3.9396,3.9647,3.9484,3.9157,3.8831,3.8642,3.8165,3.7751,3.7751,3.7613,3.7487,3.7487,3.7331,3.7222,3.7222,3.7082,3.6956,3.6956,3.7261,3.7598,3.7893,3.8657,3.9549,4.0504,4.1713,4.2563,4.2875,4.2875,4.2875,4.2875,4.1811,4.0817,4.0202,3.9312,3.8517,3.79,3.7808,3.7749,3.7749,3.7703,3.7657,3.7657,3.7657,3.7551,3.7366,3.7551,3.7598,3.7505,3.7703,3.7808,3.79,3.79,3.79,3.79,3.79,3.79,3.79,3.79,3.79,3.79,0.0,0.0,0.0,0.0,0.0,0.0,0.0,2.8984,2.8893,2.8654,2.8489,2.8196,2.7691,2.7499,2.7242,2.6848,2.6811,0.0,0.0,0.0,0.0,0.0,0.0,0.0,2.6591,2.7413,2.7985,2.8295,2.9691,3.0547,3.0909,3.1902,3.2572,3.2885,3.2773,3.3085,0.0,0.0,0.0,0.0,0.0,0.0,3.2442,0.0,0.0,0.0,0.0,0.0,0.0,0.0,0.0,0.0,0.0,0.0,0.0,0.0,3.9258,3.9697,3.9697,3.9446,3.9182,3.9182,3.8755,3.8329,3.8329,3.8265,3.81,3.7886,3.7777,3.7677,3.7448,3.7305,3.7261,3.7261,3.7459,3.7782,3.8109,3.8734,3.9549,4.0504,4.1935,4.2795,4.2795,4.313,4.329,4.329,4.2496,4.1728,4.1169,3.9899,3.8957,3.8395,3.807,3.79,3.79,3.79,3.79,3.79,3.79,3.7808,3.7657,3.7808,3.7808,3.7657,3.7854,3.79,0.0,3.79,3.79,3.79,3.79,3.79,3.79,3.79,3.8103,3.8395,0.0,0.0,0.0,0.0,0.0,0.0,0.0,2.8984,2.8984,2.8984,2.8663,2.8425,2.8397,2.804,2.7711,2.7251,0.0,0.0,0.0,0.0,0.0,0.0,0.0,0.0,2.6691,2.7413,2.8252,2.9081,2.99,3.0692,3.1527,3.2015,3.2308,3.242,3.2885,3.3097,0.0,0.0,0.0,0.0,0.0,0.0,0.0,0.0,0.0,0.0,0.0,0.0,0.0,0.0,0.0,0.0,0.0,0.0,0.0,0.0,0.0,0.0,0.0,3.9697,3.9697,3.9697,3.9308,3.8982,3.8982,3.8717,0.0,3.7825,3.7926,3.7925,3.7275,3.7379,3.7505,3.7505,3.7749,3.8181,3.9077,3.9285,3.9724,4.0603,4.1505,4.2073,4.199,4.2795,4.329,4.329,4.2537,4.2073,4.199,4.0332,3.9329,3.921,3.8395,3.7946,3.79,3.79,3.79,3.79,3.79,3.79,3.79,3.79,3.79,3.79,3.79,3.79,3.79,3.79,3.79,3.79,3.79,3.79,3.79,3.79,3.8427,3.921,0.0,0.0,0.0,0.0,0.0,0.0,0.0,0.0,0.0,0.0,2.8902,2.8728,2.8425,2.8306,2.8077,0.0,0.0,0.0,0.0,0.0,0.0,0.0,0.0,0.0,2.752,2.7726,2.8252,2.9081,2.9303,2.9838,3.0703,3.0795,3.1403,3.2409,3.2128,3.2229,0.0,0.0,0.0,0.0,0.0,0.0,0.0,0.0,0.0,0.0,3.1705,3.1705,0.0,0.0,0.0,0.0,0.0,0.0,0.0,0.0,3.8291,3.9157,3.9584,0.0,3.9697,3.9697,3.9597,3.9496,0.0,3.9588,3.9525,3.893,3.8866,3.8729,3.8114,3.7896,3.7808,3.7808,3.7854,3.8181,3.9077,4.0418,4.1421,4.1645,4.2441,4.2739,4.2073,4.2795,4.329,4.329,4.3115,4.2699,4.2032,4.1603,4.0689,3.9241,3.9002,3.8549,3.79,3.79,3.79,3.79,3.79,3.79,3.79,3.79,3.79,3.79,3.79,3.79,3.79,3.79,3.79,3.79,3.79,3.79,3.79,3.79,3.8427,3.921,0.0,0.0,0.0,0.0,0.0,0.0,0.0,0.0,0.0,0.0,0.0,0.0,0.0,0.0,0.0,0.0,0.0,0.0,0.0,0.0,0.0,0.0,0.0,2.6791,2.726,2.7618,2.8125,2.8794,2.9606,3.0367,3.1021,3.196,3.2794,3.3504,3.348,3.3442,0.0,0.0,0.0,0.0,3.3851,0.0,0.0,0.0,0.0,0.0,3.1705,3.1705,0.0,3.1849,3.2081,3.253,0.0,0.0,0.0,0.0,3.7412,3.8278,3.9094,3.9496,3.9697,3.9697,3.9697,3.9697,3.9697,3.9778,3.9726,3.9141,3.9007,3.8774,3.8215,3.8333,3.8349,3.7992,3.8575,3.9282,3.9768,4.1071,4.199,4.199,4.2415,4.2659,4.2618,4.3036,4.329,4.329,4.329,4.3076,4.2618,4.2211,4.1505,4.0504,3.9637,3.8792,3.79,3.8317,3.8517,3.8517,3.8908,3.8908,3.8517,3.8517,3.8272,3.79,3.79,3.79,3.79,3.79,3.8148,3.8517,3.8517,3.8517,3.8562,3.8997,3.9445,3.9899,0.0,0.0,0.0,0.0,0.0,0.0,0.0,0.0,0.0,0.0,0.0,0.0,0.0,0.0,0.0,0.0,0.0,0.0,0.0,0.0,0.0,0.0,0.0,2.682,2.6985,2.7656,2.8244,2.871,3.0322,3.141,3.1864,3.3729,3.4698,3.4843,3.5274,3.5189,0.0,0.0,3.4761,3.4605,3.3826,0.0,0.0,0.0,0.0,0.0,0.0,0.0,0.0,3.1705,3.2025,3.2474,3.2929,0.0,0.0,0.0,0.0,0.0,3.8442,3.9145,3.9584,3.9672,3.9697,3.9672,3.9584,3.9588,3.9391,3.8777,3.8683,3.8587,3.8162,3.8594,3.8792,3.8194,3.9502,4.0646,4.0774,4.1589,4.2155,4.2032,4.2114,4.2456,4.3036,4.321,4.329,4.329,4.329,4.329,4.329,4.2618,4.2155,4.199,4.0461,3.9179,3.833,3.8881,3.9285,3.9417,4.0202,4.0159,3.9417,3.9417,3.8926,3.8103,3.8103,3.8024,3.79,3.8024,3.8517,3.921,3.9373,3.9417,3.9505,4.0289,4.0689,4.0944,0.0,0.0,0.0,0.0,0.0,0.0,0.0,0.0,0.0,0.0,0.0,0.0,0.0,0.0,0.0,0.0,0.0,0.0,0.0,0.0,0.0,2.7666,2.7638,2.792,2.8641,2.8855,2.9319,3.0078,3.0936,3.1748,3.2556,3.3389,3.414,3.4803,3.4878,3.4606,3.4132,3.4586,3.4539,3.4176,3.4461,0.0,0.0,0.0,0.0,0.0,0.0,0.0,0.0,3.1705,3.2025,3.2412,3.2498,0.0,0.0,0.0,0.0,0.0,3.7839,3.8555,3.9107,3.9584,3.9697,3.9572,3.9158,3.9309,3.9276,3.8252,3.8398,3.8747,3.8989,3.8517,3.8317,3.8912,3.9899,4.0901,4.1686,4.2537,4.2835,4.2073,4.2659,4.2875,4.2237,4.2875,4.329,4.329,4.329,4.329,4.329,4.317,4.2739,4.2032,4.1728,4.1127,4.0173,3.9519,3.9593,4.0375,4.0504,4.0504,4.0375,4.0375,3.9855,3.9002,3.9002,3.8594,3.7946,3.8715,3.9077,3.9285,4.0073,4.0375,4.0375,4.0546,4.1113,4.1893,0.0,0.0,0.0,0.0,0.0,0.0,0.0,0.0,0.0,0.0,0.0,0.0,0.0,0.0,0.0,0.0,0.0,0.0,0.0,0.0,2.8627,2.8434,2.8425,2.8676,2.9122,2.9475,3.0187,3.1252,3.2388,3.3291,3.389,3.4984,3.5711,3.6095,3.6095,3.5812,3.5329,3.5583,3.5337,3.4875,0.0,0.0,0.0,0.0,0.0,0.0,0.0,0.0,0.0,0.0,3.1937,3.2213,3.2344,0.0,0.0,0.0,0.0,0.0,3.6759,3.755,3.8165,3.9032,3.9612,3.979,3.9184,3.9216,3.9149,3.8277,3.8207,3.8438,3.9087,3.9268,3.9796,4.1183,4.1365,4.1505,4.1949,4.2319,4.2456,4.2032,4.236,4.2618,4.2699,4.3076,4.329,4.329,4.329,4.329,4.329,4.329,4.313,4.2714,4.2252,4.2017,4.2058,4.1155,4.0944,4.138,4.1838,4.1796,4.1338,4.0817,4.0073,3.921,3.921,3.8957,3.8671,3.9563,4.0246,4.0774,4.1212,4.138,4.138,4.138,4.1935,4.2739,0.0,0.0,0.0,0.0,0.0,0.0,0.0,0.0,0.0,0.0,0.0,0.0,0.0,0.0,0.0,0.0,0.0,0.0,0.0,0.0,2.8984,2.8984,2.9103,2.9151,2.925,3.0152,3.1142,3.2274,3.4043,3.517,3.564,3.6773,3.7346,3.7372,3.7372,3.7084,3.6591,3.6591,3.6218,3.5581,0.0,0.0,0.0,0.0,0.0,0.0,0.0,0.0,0.0,0.0,0.0,0.0,0.0,0.0,0.0,3.3483,3.3796,3.4236,3.578,3.6684,3.7425,3.8417,3.9272,3.9741,3.9132,3.9017,3.8838,3.8222,3.8174,3.8485,3.9343,4.0289,4.1365,4.278,4.2456,4.2073,4.2293,4.2278,4.2278,4.2278,4.2278,4.2578,4.325,4.329,4.329,4.329,4.329,4.329,4.329,4.329,4.329,4.329,4.2659,4.2618,4.329,4.2618,4.2278,4.2319,4.2996,4.2955,4.2278,4.1338,4.0546,3.9855,3.9637,3.9505,3.9593,4.0546,4.1338,4.2032,4.2196,4.2278,4.2278,4.2278,4.2754,4.329,0.0,0.0,0.0,0.0,0.0,0.0,0.0,0.0,0.0,0.0,0.0,0.0,0.0,0.0,0.0,0.0,0.0,0.0,0.0,0.0,2.8984,2.8984,2.9272,2.9471,2.9474,3.1387,3.2587,3.3025,3.5606,3.7192,3.7761,3.7868,3.7962,3.7926,3.7926,3.7637,3.7132,3.7132,3.6555,3.5617,3.5581,0.0,0.0,0.0,0.0,0.0,0.0,0.0,0.0,0.0,0.0,0.0,0.0,0.0,3.2766,3.3075,3.3495,3.4148,3.5245,3.6383,3.7324,3.7914,3.8692,3.9107,3.8599,3.8393,3.8209,3.7686,3.8381,3.9387,4.0332,4.1254,4.1949,4.2073,4.2032,4.2293,4.3076,4.321,4.321,4.321,4.321,4.325,4.329,4.329,4.329,4.329,4.329,4.329,4.329,4.329,4.329,4.329,4.325,4.325,4.329,4.325,4.321,4.321,4.325,4.325,4.317,4.2278,4.1867,4.1728,4.0901,4.0504,4.0546,4.1505,4.1949,4.2073,4.2875,4.321,4.321,4.321,4.325,4.329,0.0,0.0,0.0,0.0,0.0,0.0,0.0,0.0,0.0,0.0,0.0,0.0,0.0,0.0,0.0,0.0,0.0,0.0,0.0,2.8984,2.8984,2.8984,2.9686,3.0314,3.0869,3.2556,3.4191,3.5608,3.7,3.7773,3.7986,3.7986,3.7986,3.7986,3.7986,3.7878,3.7685,3.7685,3.7264,3.6567,3.6242,3.516,0.0,0.0,0.0,0.0,0.0,0.0,0.0,0.0,3.1761,3.1893,3.2257,3.2431,3.2605,3.2995,3.3219,3.3633,3.4726,3.583,3.6857,3.7362,3.8111,3.8586,3.8161,3.8346,3.8426,3.7866,3.8535,3.9681,4.1212,4.2196,4.2795,4.2795,4.2795,4.2915,4.325,4.329,4.329,4.329,4.329,4.329,4.329,4.329,4.329,4.329,4.329,4.329,4.329,4.329,4.329,4.329,4.329,4.329,4.329,4.329,4.329,4.329,4.329,4.329,4.325,4.2415,4.199,4.199,4.1603,4.1463,4.1561,4.2456,4.2795,4.2835,4.317,4.329,4.329,4.329,4.329,4.329,0.0,0.0,0.0,0.0,0.0,0.0,0.0,0.0,0.0,0.0,0.0,0.0,0.0,0.0,0.0,0.0,0.0,0.0,2.8984,2.8984,2.9153,2.945,3.0314,3.1391,3.267,3.4024,3.5388,3.6796,3.7601,3.7986,3.7986,3.7986,3.7986,3.7986,3.7986,3.7986,3.7986,3.7986,3.7673,3.7144,3.6615,3.5461,0.0,0.0,0.0,0.0,0.0,0.0,0.0,0.0,3.1705,3.1793,3.2257,3.24,3.2475,3.2952,3.3124,3.3319,3.4424,3.5391,3.6232,3.6784,3.7592,3.8245,3.8118,3.8189,3.8331,3.8305,3.9282,4.0546,4.2114,4.2915,4.329,4.329,4.329,4.329,4.329,4.329,4.329,4.329,4.329,4.329,4.329,4.329,4.329,4.329,4.329,4.329,4.329,4.329,4.329,4.329,4.329,4.329,4.329,4.329,4.329,4.329,4.329,4.329,4.325,4.2415,4.2155,4.2415,4.2114,4.2155,4.2456,4.3036,4.329,4.329,4.329,4.329,4.329,4.329,4.329,4.329,0.0,0.0,0.0,0.0,0.0,0.0,0.0,0.0,0.0,0.0,0.0,0.0,0.0,0.0,0.0,0.0,0.0,0.0,2.8984,2.9044,2.945,3.0382,3.1275,3.2727,3.4858,3.5772,3.6243,3.6243,3.7429,3.7986,3.7986,3.7986,3.7986,3.7986,3.7986,3.7986,3.7986,3.7986,3.7685,3.7156,3.6615,3.5461,3.3946,0.0,0.0,0.0,0.0,0.0,0.0,0.0,3.1705,3.1793,3.2257,3.24,3.2475,3.2952,3.3124,3.3319,3.4424,3.5082,3.5621,3.6267,3.7153,3.8024,3.8429,3.8004,3.7848,3.8988,4.0731,4.2278,4.313,4.329,4.329,4.329,4.329,4.329,4.329,4.329,4.329,4.329,4.329,4.329,4.329,4.329,4.329,4.329,4.329,4.329,4.329,4.329,4.329,4.329,4.329,4.329,4.329,4.329,4.329,4.329,4.329,4.329,4.325,4.2415,4.2496,4.325,4.2415,4.2496,4.329,4.3305,4.3305,4.3305,4.3305,4.3305,4.329,4.329,4.329,4.329,0.0,0.0,0.0,0.0,0.0,0.0,0.0,0.0,0.0,0.0,0.0,0.0,0.0,0.0,0.0,0.0,0.0,0.0,2.9981,3.0597,3.1275,3.1947,3.2804,3.3989,3.5476,3.6815,3.7495,3.7495,3.7814,3.7986,3.7986,3.7986,3.7986,3.7986,3.7986,3.7986,3.7986,3.7986,3.789,3.7661,3.6771,3.5677,3.445,0.0,0.0,0.0,0.0,0.0,0.0,0.0,0.0,0.0,3.2025,3.2257,3.2487,3.2723,3.2939,3.3319,3.4424,3.5082,3.5621,3.6267,3.7424,3.8421,3.8461,3.8599,3.9179,4.0817,4.1603,4.2278,4.313,4.329,4.329,4.329,4.329,4.329,4.329,4.329,4.329,4.329,4.329,4.329,4.329,4.329,4.329,4.329,4.329,4.329,4.329,4.329,4.329,4.329,4.329,4.329,4.329,4.329,4.329,4.329,4.329,4.329,4.329,4.3036,4.3036,4.3305,4.3036,4.3036,4.3334,4.3798,4.4018,4.4018,4.4018,4.3708,4.329,4.329,4.329,4.329,0.0,0.0,0.0,0.0,0.0,0.0,0.0,0.0,0.0,0.0,0.0,0.0,0.0,0.0,0.0,0.0,0.0,0.0,0.0,3.168,3.2405,3.3145,3.4157,3.5322,3.6642,3.7536,3.7986,3.7986,3.7986,3.7986,3.7986,3.7986,3.7986,3.7986,3.7986,3.7986,3.7986,3.7986,3.7986,3.789,3.6831,3.5773,3.4715,0.0,0.0,0.0,0.0,0.0,0.0,0.0,0.0,0.0,3.1937,3.2169,3.2431,3.2636,3.2896,3.3319,3.4424,3.4919,3.5403,3.6216,3.7445,3.8687,3.9571,4.0043,4.0646,4.1769,4.2293,4.2659,4.321,4.329,4.329,4.329,4.329,4.329,4.329,4.329,4.329,4.329,4.329,4.329,4.329,4.329,4.329,4.329,4.329,4.329,4.329,4.329,4.329,4.329,4.329,4.329,4.329,4.329,4.329,4.329,4.329,4.329,4.329,4.329,4.329,4.3305,4.3574,4.3828,4.4152,4.4541,4.4706,4.4706,4.4706,4.4466,4.4077,4.3783,4.3678,4.3648,0.0,0.0,0.0,0.0,0.0,0.0,0.0,0.0,0.0,0.0,0.0,0.0,0.0,0.0,0.0,0.0,0.0,0.0,0.0,0.0,3.3304,3.4235,3.5388,3.6654,3.7986,3.7986,3.7986,3.7986,3.7986,3.7986,3.7986,3.7986,3.7986,3.7986,3.7986,3.7986,3.7986,3.7926,3.7938,3.789,3.6771,3.5725,3.4715,3.3681,0.0,0.0,0.0,0.0,0.0,0.0,0.0,0.0,3.1906,3.2169,3.2431,3.2636,3.2896,3.3319,3.4424,3.468,3.4989,3.6222,3.7513,3.9029,4.1254,4.1922,4.2114,4.2114,4.2739,4.329,4.329,4.329,4.329,4.329,4.329,4.329,4.329,4.329,4.329,4.329,4.329,4.329,4.329,4.329,4.329,4.329,4.329,4.329,4.329,4.329,4.329,4.329,4.329,4.329,4.329,4.329,4.329,4.329,4.329,4.329,4.329,4.329,4.3319,4.3424,4.4122,4.4781,4.5394,4.5394,4.5394,4.5394,4.5394,4.5349,4.5229,4.4631,4.4407,4.4317,0.0,0.0,0.0,0.0,0.0,0.0,0.0,0.0,0.0,0.0,0.0,0.0,0.0,0.0,0.0,0.0,0.0,0.0,0.0,0.0,3.53,3.6406,3.7162,3.7696,3.7974,3.7986,3.7986,3.7986,3.7986,3.7986,3.7986,3.7986,3.7986,3.7986,3.7986,3.7986,3.795,3.7541,3.7601,3.7853,3.6374,3.54,3.4715,3.3681,3.2611,0.0,0.0,0.0,0.0,0.0,0.0,0.0,3.1761,3.2081,3.2388,3.2431,3.2779,3.3319,3.4424,3.468,3.5158,3.7031,3.8957,4.0731,4.1951,4.2526,4.282,4.2996,4.317,4.329,4.329,4.329,4.329,4.329,4.329,4.329,4.329,4.329,4.329,4.329,4.329,4.329,4.329,4.329,4.329,4.329,4.329,4.329,4.329,4.329,4.329,4.329,4.329,4.329,4.329,4.329,4.329,4.329,4.329,4.329,4.329,4.329,4.3574,4.4137,4.4796,4.5469,4.6055,4.6055,4.6055,4.6055,4.6055,4.5768,4.5274,4.514,4.508,4.499,0.0,0.0,0.0,0.0,0.0,0.0,0.0,0.0,0.0,0.0,0.0,0.0,0.0,0.0,0.0,0.0,0.0,0.0,0.0,0.0,3.6634,3.7495,3.7826,3.7986,3.7986,3.7986,3.7986,3.7986,3.7986,3.7986,3.7986,3.7986,3.7986,3.7986,3.7986,3.7986,3.795,3.7421,3.7348,3.7481,3.6146,3.5304,3.4715,3.3681,3.2779,3.2034,3.1801,0.0,0.0,0.0,0.0,0.0,0.0,0.0,3.2213,3.2344,3.2649,3.3177,3.4379,3.468,3.5294,3.7857,3.9299,4.0546,4.2034,4.2581,4.2809,4.309,4.325,4.329,4.329,4.329,4.329,4.329,4.329,4.329,4.329,4.329,4.329,4.329,4.329,4.329,4.329,4.329,4.329,4.329,4.329,4.329,4.329,4.329,4.329,4.329,4.329,4.329,4.329,4.329,4.329,4.329,4.329,4.3454,4.3768,4.3768,4.4127,4.4825,4.5499,4.6172,4.68,4.68,4.68,4.68,4.68,4.6576,4.6217,4.5903,4.5783,4.5693,0.0,0.0,0.0,0.0,0.0,0.0,0.0,0.0,0.0,0.0,0.0,0.0,0.0,0.0,0.0,0.0,0.0,0.0,0.0,0.0,0.0,3.7986,3.7986,3.7986,3.7986,3.7986,3.7986,3.7986,3.7986,3.7986,3.7986,3.7986,3.7986,3.7986,3.7986,3.7938,3.7805,3.7276,3.706,3.6964,3.5905,3.522,3.4679,3.3777,3.3032,3.2442,3.2018,3.1789,3.1705,3.1705,0.0,0.0,0.0,0.0,3.2038,3.23,3.2562,3.3003,3.4335,3.4942,3.5826,3.8345,3.921,3.9913,4.1673,4.2254,4.25,4.285,4.3076,4.325,4.329,4.329,4.329,4.329,4.329,4.329,4.329,4.329,4.329,4.329,4.329,4.329,4.329,4.329,4.329,4.329,4.329,4.329,4.329,4.329,4.329,4.329,4.329,4.329,4.329,4.329,4.329,4.329,4.329,4.3633,4.4317,4.4436,4.484,4.5514,4.6202,4.68,4.7309,4.7309,4.7309,4.7309,4.7309,4.7309,4.7234,4.6696,4.6444,4.6396,0.0,0.0,0.0,0.0,0.0,0.0,0.0,0.0,0.0,0.0,0.0,0.0,0.0,0.0,0.0,0.0,0.0,0.0,0.0,0.0,0.0,3.7986,3.7986,3.7986,3.7986,3.7986,3.7986,3.7986,3.7986,3.7986,3.7986,3.7986,3.7986,3.7986,3.7986,3.7733,3.7264,3.6735,3.6507,3.6423,3.5352,3.4847,3.4715,3.4114,3.3344,3.2491,3.2418,3.207,3.1705,3.1705,3.1705,0.0,0.0,0.0,3.2038,3.23,3.2562,3.3003,3.4335,3.6031,3.7475,3.7906,3.921,4.0504,4.0774,4.1632,4.2433,4.2474,4.2769,4.3076,4.325,4.329,4.329,4.329,4.329,4.329,4.329,4.329,4.329,4.329,4.329,4.329,4.329,4.329,4.329,4.329,4.329,4.329,4.329,4.329,4.329,4.329,4.329,4.329,4.329,4.329,4.329,4.329,4.329,4.3633,4.4332,4.49,4.5544,4.6175,4.689,4.7219,4.7309,4.7309,4.7309,4.7309,4.7309,4.7309,4.7294,4.7204,4.7174,4.7085,0.0,0.0,0.0,0.0,0.0,0.0,0.0,0.0,0.0,0.0,0.0,0.0,0.0,0.0,0.0,0.0,0.0,0.0,0.0,0.0,0.0,3.7986,3.7986,3.7986,3.7986,3.7986,3.7841,3.7541,3.7841,3.7829,3.7553,3.7841,3.7986,3.7986,3.7986,3.7685,3.7156,3.6627,3.623,3.5893,3.5087,3.4775,3.4727,3.4198,3.3706,3.3332,3.3044,3.2587,3.213,3.213,3.197,3.1705,3.1705,0.0,0.0,0.0,3.2344,3.2841,3.429,3.5839,3.7129,3.7671,3.8419,3.9285,4.0375,4.1,4.1576,4.2254,4.2541,4.2769,4.3076,4.3115,4.3155,4.329,4.329,4.329,4.329,4.329,4.329,4.329,4.329,4.329,4.329,4.329,4.329,4.329,4.329,4.329,4.329,4.329,4.329,4.329,4.329,4.329,4.329,4.329,4.329,4.329,4.329,4.3828,4.487,4.517,4.5678,4.6324,4.7025,4.7309,4.7309,4.7309,4.7309,4.7309,4.7309,4.7309,4.7309,4.7309,4.7309,4.7264,0.0,0.0,0.0,0.0,0.0,0.0,0.0,0.0,0.0,0.0,0.0,0.0,0.0,0.0,0.0,0.0,0.0,0.0,0.0,0.0,0.0,3.7781,3.7781,3.7721,3.7589,3.7577,3.7385,3.7,3.7517,3.7577,3.7204,3.7733,3.7986,3.7986,3.7986,3.7613,3.6964,3.6567,3.6014,3.5376,3.4943,3.4775,3.4739,3.4342,3.4114,3.3934,3.3609,3.314,3.2695,3.2695,3.2334,3.1922,3.1922,3.1825,0.0,0.0,0.0,3.3155,3.4365,3.5529,3.6593,3.7268,3.7625,3.8251,3.9855,4.0418,4.0916,4.209,4.231,4.2433,4.2769,4.2915,4.3036,4.321,4.325,4.329,4.329,4.329,4.329,4.329,4.329,4.329,4.329,4.329,4.329,4.329,4.329,4.329,4.329,4.329,4.329,4.329,4.329,4.329,4.329,4.329,4.329,4.329,4.3469,4.4182,4.5304,4.5484,4.5933,4.6563,4.71,4.7309,4.7309,4.7309,4.7309,4.7309,4.7309,4.7309,4.7309,4.7309,4.7309,4.7309,0.0,0.0,0.0,0.0,0.0,0.0,0.0,0.0,0.0,0.0,0.0,0.0,3.7078,3.6646,3.6808,3.7921,0.0,0.0,0.0,0.0,0.0,3.7252,3.7228,0.0,3.6495,3.6483,3.6471,3.6447,3.6976,3.7216,3.7204,3.7733,3.7986,3.7986,3.7986,3.7409,3.6447,3.6411,3.5809,3.4823,3.4787,3.4775,3.4775,3.4751,3.4426,3.3994,3.3958,3.3681,3.3248,3.3248,3.2899,3.2454,3.2454,3.2094,3.1749,0.0,0.0,0.0,3.4623,3.5529,3.6405,3.6452,3.7129,3.8069,3.9033,3.9942,4.0873,4.1912,4.2133,4.2175,4.2392,4.2729,4.2981,4.3036,4.317,4.329,4.329,4.329,4.329,4.329,4.329,4.329,4.329,4.329,4.329,4.329,4.329,4.329,4.329,4.329,4.329,4.329,4.329,4.329,4.329,4.329,4.329,4.3305,4.3917,4.4631,4.5319,4.5978,4.6636,4.7249,4.7294,4.7309,4.7309,4.7309,4.7309,4.7309,4.7309,4.7309,4.7309,4.7309,4.7309,4.7309,0.0,0.0,0.0,0.0,0.0,0.0,0.0,0.0,0.0,0.0,0.0,0.0,0.0,3.721,3.7049,3.7428,3.696,0.0,0.0,0.0,0.0,3.6699,3.6687,3.6603,3.6411,3.6411,3.6411,3.6411,3.694,3.7192,3.7204,3.7733,3.7986,3.7986,3.7986,3.7501,3.6664,3.6664,3.6146,3.5271,3.5126,3.5078,3.503,3.4884,3.4667,3.4498,3.4498,3.4162,3.3765,3.3765,3.3428,3.3008,3.3008,3.2863,3.2753,3.2968,3.3811,3.4712,3.4943,3.5712,3.6405,3.6405,3.664,3.7302,3.8854,3.9461,4.0187,4.1773,4.2092,4.2133,4.2201,4.2433,4.2662,4.2809,4.2955,4.3115,4.3115,4.321,4.329,4.329,4.329,4.329,4.329,4.329,4.329,4.329,4.329,4.329,4.329,4.329,4.329,4.329,4.329,4.329,4.329,4.329,4.329,4.3305,4.4003,4.4661,4.5319,4.6007,4.6681,4.7309,4.7309,4.7309,4.7309,4.7309,4.7309,4.7309,4.7309,4.7309,4.7309,4.7309,4.7309,4.7309,0.0,0.0,0.0,0.0,0.0,0.0,0.0,0.0,0.0,3.7709,0.0,0.0,0.0,0.0,3.6928,3.6928,3.6615,3.6411,3.6411,3.6411,3.6326,3.6146,3.6134,3.6062,3.5881,3.605,3.6134,3.6134,3.6843,3.7192,3.7204,3.7733,3.8039,3.8133,3.7951,3.7488,3.6804,3.6684,3.6235,3.5572,3.5428,3.5271,3.5175,3.4981,3.4884,3.4775,3.4775,3.4546,3.4258,3.4258,3.397,3.3537,3.3537,3.3428,3.3377,3.3642,3.4252,3.4856,3.5183,3.5862,3.6405,3.6405,3.6405,3.6896,3.8751,3.921,3.9752,4.1689,4.2092,4.2092,4.2092,4.2201,4.2366,4.2581,4.2835,4.2981,4.2981,4.3155,4.329,4.329,4.329,4.329,4.329,4.329,4.329,4.329,4.329,4.329,4.329,4.329,4.329,4.329,4.329,4.329,4.329,4.329,4.329,4.3305,4.4227,4.487,4.5334,4.6232,4.689,4.7309,4.7309,4.7309,4.7309,4.7309,4.7309,4.7309,4.7309,4.7309,4.7309,4.7309,4.7309,4.7309,0.0,0.0,0.0,0.0,0.0,0.0,0.0,0.0,3.7168,3.7168,0.0,0.0,0.0,0.0,0.0,3.6362,3.6362,3.6362,3.6362,3.6362,3.6134,3.5641,0.0,0.0,3.4835,3.5376,3.5653,3.5665,3.6687,3.7204,3.7228,3.7745,3.8133,3.836,3.7825,3.729,3.6755,3.6542,3.6112,3.562,3.562,3.5476,3.5223,3.5223,3.5078,3.4823,3.4823,3.4823,3.4823,3.4823,3.4487,3.4018,3.4018,3.3729,3.3472,3.3922,3.4428,3.4928,0.0,0.0,0.0,3.6405,3.6405,3.6896,3.872,3.9166,3.9708,4.1647,4.2051,4.2051,4.2092,4.2092,4.2175,4.2351,4.2729,4.2981,4.2981,4.3155,4.329,4.329,4.329,4.329,4.329,4.329,4.329,4.329,4.329,4.329,4.329,4.329,4.329,4.329,4.329,4.329,4.329,4.329,4.329,4.3305,4.4661,4.5289,4.5349,4.6696,4.7309,4.7309,4.7309,4.7309,4.7309,4.7309,4.7309,4.7309,4.7309,4.7309,4.7309,4.7309,4.7309,4.7309,0.0,0.0,0.0,0.0,0.0,0.0,3.6904,3.6723,3.6627,0.0,0.0,0.0,3.6411,3.6062,3.5677,3.5304,3.5256,3.5256,3.5256,3.5256,3.5376,3.5605,3.5617,3.5725,3.5966,3.611,3.6374,3.6759,3.7048,3.7385,3.7769,3.8125,3.8097,3.7813,3.7698,3.7307,3.6788,3.6738,3.65,3.6181,3.5955,3.5812,3.5764,3.5572,3.5416,3.538,3.538,3.538,3.538,3.538,3.5174,3.486,3.486,3.4907,3.4988,3.5131,3.5384,3.5685,3.5827,0.0,0.0,0.0,0.0,0.0,3.7933,3.8206,3.8734,4.0617,4.1015,4.1254,4.1953,4.2092,4.2133,4.2175,4.2392,4.2581,4.2581,4.285,4.3076,4.3076,4.321,4.329,4.329,4.329,4.329,4.329,4.329,4.329,4.329,4.329,4.329,4.329,4.329,4.329,4.329,4.329,4.329,4.3305,4.4661,4.5289,4.5349,4.6696,4.7309,4.7309,4.7309,4.7309,4.7309,4.7309,4.7309,4.7309,4.7309,4.7309,4.7309,4.7309,4.7309,4.7309,0.0,0.0,0.0,0.0,0.0,3.6759,3.6459,3.6218,3.6074,0.0,0.0,0.0,3.5749,3.5473,3.5111,3.4859,3.4775,3.4871,3.5148,3.5111,3.5388,3.5918,3.5942,3.6086,3.6398,3.6615,3.6892,3.7192,3.7409,3.7726,3.8198,3.8073,3.8014,3.7929,3.7493,3.717,3.6944,3.6719,3.6516,3.6405,3.6228,3.6098,3.5968,3.5824,3.5716,3.562,3.562,3.562,3.562,3.562,3.5524,3.5368,3.5368,3.5464,3.562,3.5716,3.5872,3.6015,3.6146,3.6275,3.6405,3.6405,0.0,0.0,3.7592,3.7808,3.8328,4.0202,4.0603,4.0916,4.1912,4.2092,4.2092,4.2092,4.2216,4.2325,4.2392,4.2688,4.2915,4.2981,4.3115,4.321,4.329,4.329,4.329,4.329,4.329,4.329,4.329,4.329,4.329,4.329,4.329,4.329,4.329,4.329,4.329,4.3305,4.4661,4.5289,4.5349,4.6696,4.7309,4.7309,4.7309,4.7309,4.7309,4.7309,4.7309,4.7309,4.7309,4.7309,4.7309,4.7309,4.7309,4.7309,0.0,0.0,3.6386,3.6326,3.6314,3.629,3.6242,3.5833,3.5533,0.0,3.5124,3.4775,3.4775,3.4775,3.4799,3.4859,3.4871,3.5148,3.5665,3.5701,3.5942,3.6471,3.6495,3.6519,3.6579,3.7036,3.7276,3.7328,3.7798,3.8173,3.8364,3.7889,3.7892,3.8189,3.7245,3.6919,3.7061,3.6619,3.6405,3.6405,3.6405,3.6275,3.6063,3.6063,3.5908,3.5716,3.5716,3.5716,3.5668,3.5668,3.5668,3.5668,3.5668,3.5668,3.5716,3.5955,3.6063,3.6098,3.6323,3.6405,3.6405,3.6405,3.6405,0.0,3.7441,3.7625,3.8147,3.9942,4.0289,4.0617,4.1591,4.1773,4.1773,4.1773,4.187,4.2036,4.231,4.2541,4.2729,4.2915,4.2996,4.3076,4.325,4.329,4.329,4.329,4.329,4.329,4.329,4.329,4.329,4.329,4.329,4.329,4.329,4.329,4.329,4.3305,4.4661,4.5289,4.5349,4.6696,4.7309,4.7309,4.7309,4.7309,4.7309,4.7309,4.7309,4.7309,4.7309,4.7309,4.7309,4.7309,4.7309,4.7309,0.0,0.0,3.6266,3.5845,3.5773,3.5629,3.5196,3.5003,3.4943,3.4943,3.4847,3.4775,3.4775,3.4775,3.4955,3.5425,3.5461,3.5689,3.6218,3.6242,3.6483,3.7024,3.7036,3.724,3.7661,3.7781,3.7935,3.8146,3.8255,3.8242,3.8086,3.8169,3.7853,3.7121,3.7105,3.6887,3.6568,3.6455,3.6405,3.6405,3.6405,3.6358,3.6323,3.6323,3.6275,3.6216,3.6216,3.6216,3.6228,3.6003,3.6051,3.6228,3.6003,3.6098,3.6263,3.6323,3.6323,3.6323,3.6405,3.6405,3.6405,3.6405,3.6405,0.0,3.664,3.6675,3.6989,3.8115,3.8328,3.8644,3.9607,3.9796,3.9796,3.9796,4.0403,4.1198,4.2036,4.231,4.2459,4.25,4.2795,4.3036,4.3036,4.321,4.329,4.329,4.329,4.329,4.329,4.329,4.329,4.329,4.329,4.329,4.329,4.329,4.329,4.3305,4.4661,4.5289,4.5349,4.6696,4.7309,4.7309,4.7309,4.7309,4.7309,4.7309,4.7309,4.7309,4.7309,4.7309,4.7309,4.7309,4.7309,4.7309,0.0,3.5797,3.5533,3.5268,3.5318,3.5332,3.5017,3.5126,3.5223,3.5223,3.5223,3.5223,3.5223,3.5223,3.5332,3.56,3.5624,3.5855,3.6378,3.6415,3.6658,3.7193,3.7064,3.7185,3.7606,3.7463,3.7503,3.7824,3.7824,3.7792,3.7788,3.7655,3.7382,3.6992,3.6849,3.6669,3.6405,3.6405,3.6405,3.6405,3.6405,3.6405,3.6405,3.6405,3.6405,3.6405,3.6405,3.6405,3.6358,3.6228,3.6275,3.6358,3.6228,3.6275,3.6405,3.6405,3.6405,3.6405,3.6405,3.6405,3.6405,3.6405,3.6405,0.0,0.0,3.6405,3.6675,3.7625,3.7808,3.8069,3.9033,3.921,3.921,3.921,3.9986,4.0603,4.0645,4.1577,4.2284,4.2392,4.2581,4.2729,4.2835,4.3036,4.321,4.329,4.329,4.329,4.329,4.329,4.329,4.329,4.329,4.329,4.329,4.329,4.329,4.3305,4.4661,4.5289,4.5349,4.6696,4.7309,4.7309,4.7309,4.7309,4.7309,4.7309,4.7309,4.7309,4.7309,4.7309,4.7309,4.7309,4.7309,4.7309,3.5609,3.5271,3.4969,3.4969,3.5126,3.5271,3.5271,3.5464,3.562,3.562,3.562,3.562,3.562,3.562,3.5657,3.5768,3.5768,3.6001,3.6493,3.653,3.6776,3.7168,3.6979,3.6979,3.718,3.6979,3.7017,3.7281,3.7281,3.7381,3.7518,3.7083,3.6955,3.7059,3.6606,3.6405,3.6405,3.6581,3.6593,3.6417,3.6593,3.6546,3.6405,3.6405,3.6405,3.6405,3.6405,3.6405,3.6405,3.6405,3.6405,3.6405,3.6405,3.6405,3.6405,3.6405,3.6405,3.6405,3.6405,3.6405,3.6405,3.6405,3.6405,3.6405,0.0,0.0,0.0,3.7361,3.7533,3.775,3.8541,3.8675,3.8702,3.8822,3.9543,3.9809,3.9181,4.0673,4.1883,4.2034,4.2254,4.2459,4.2622,4.2835,4.3076,4.325,4.329,4.329,4.329,4.329,4.329,4.329,4.329,4.329,4.329,4.329,4.329,4.3305,4.4661,4.5289,4.5349,4.6696,4.7309,4.7309,4.7309,4.7309,4.7309,4.7309,4.7309,4.7309,4.7309,4.7309,4.7309,4.7309,4.7309,4.7309,3.561,3.5561,3.5524,3.5524,3.5524,3.556,3.556,3.5572,3.562,3.562,3.562,3.562,3.562,3.562,3.5817,3.6284,3.6284,3.6567,3.7045,3.7095,3.7119,3.718,3.718,3.718,3.718,3.718,3.7281,3.7543,3.7543,3.7431,3.7226,3.7163,3.6923,3.6505,3.643,3.6405,3.6452,3.7268,3.7176,3.6452,3.7315,3.7129,3.6405,3.6405,3.6405,3.6405,3.6405,3.6405,3.6405,3.6405,3.6405,3.6405,3.6405,3.6405,3.6405,3.6405,3.6405,3.6405,3.6405,3.6405,3.6405,3.6405,3.6405,3.6405,3.6405,0.0,3.6452,3.6546,0.0,3.6581,3.6722,0.0,0.0,3.7321,3.7811,3.8254,3.8628,3.9891,4.0774,4.0817,4.1771,4.2392,4.2433,4.2769,4.3036,4.3036,4.321,4.329,4.329,4.329,4.329,4.329,4.329,4.329,4.329,4.329,4.329,4.3305,4.4661,4.5289,4.5349,4.6696,4.7309,4.7309,4.7309,4.7309,4.7309,4.7309,4.7309,4.7309,4.7309,4.7309,4.7309,4.7309,4.7309,4.7309,3.5668,3.562,3.562,3.562,3.5716,3.5824,3.5824,3.5943,3.6073,3.6073,3.6073,3.6073,3.6073,3.6073,3.6125,3.6362,3.6374,3.6522,3.6697,3.6722,3.6722,3.6722,3.6589,3.6589,3.6722,3.6589,3.6638,3.6916,3.6916,3.6851,3.6757,3.6757,3.6631,3.6405,3.6956,3.7222,3.7268,3.8192,3.836,3.8056,3.845,3.8373,3.7919,3.6803,3.6405,3.6405,3.6405,3.6405,3.6405,3.6405,3.6405,3.6405,3.6405,3.6405,3.6405,3.6405,3.6405,3.6405,3.6405,3.6405,3.6405,3.6405,3.6405,3.6405,3.6405,3.6405,3.6405,3.6405,0.0,0.0,0.0,0.0,0.0,0.0,3.733,3.7716,3.7356,3.8732,3.9986,4.0546,4.1043,4.1408,4.1563,4.224,4.2729,4.2981,4.3076,4.317,4.329,4.329,4.329,4.329,4.329,4.329,4.329,4.329,4.329,4.3305,4.4661,4.5289,4.5349,4.6696,4.7309,4.7309,4.7309,4.7309,4.7309,4.7309,4.7309,4.7309,4.7309,4.7309,4.7309,4.7309,4.7309,4.7309,3.5895,3.58,3.58,3.58,3.6003,3.6098,3.6098,3.6275,3.6405,3.6405,3.6405,3.6405,3.6405,3.6405,3.6405,3.6405,3.6405,3.6405,3.6405,3.6405,3.6405,3.6405,3.6181,3.6193,3.6405,3.6181,3.6181,3.6405,3.6405,3.6405,3.6405,3.6675,3.6769,3.6815,3.775,3.8206,3.8251,3.921,3.9417,3.9197,3.9461,3.9417,3.9064,3.7704,3.7163,3.7116,3.6862,3.6769,3.6722,3.6499,3.6405,3.6405,3.6405,3.6405,3.6405,3.6405,3.6405,3.6405,3.6405,3.6405,3.6405,3.6405,3.6405,3.6405,3.6405,3.6405,3.6405,3.6405,3.6405,0.0,0.0,0.0,3.6455,3.6606,0.0,3.7227,3.6701,3.7887,3.9077,3.9768,4.0073,4.0389,4.0845,4.1563,4.2281,4.2875,4.2996,4.3076,4.329,4.329,4.329,4.329,4.329,4.329,4.329,4.329,4.329,4.3305,4.4661,4.5289,4.5349,4.6696,4.7309,4.7309,4.7309,4.7309,4.7309,4.7309,4.7309,4.7309,4.7309,4.7309,4.7309,4.7309,4.7309,4.7309,3.6358,3.6358,3.6358,3.6358,3.6358,3.6405,3.6405,3.6405,3.6405,3.6405,3.6405,3.6405,3.6405,3.6405,3.6405,3.6405,3.6405,3.6405,3.6405,3.6405,3.6405,3.6405,3.6405,3.6405,3.6405,3.6405,3.6405,3.6405,3.6405,3.6405,3.6405,3.7315,3.7763,3.7808,3.872,3.9166,3.9197,4.0159,4.0029,3.9285,4.0202,4.0029,3.921,3.9108,3.9121,3.8988,3.8069,3.7763,3.7625,3.6734,3.6405,3.6405,3.6405,3.6405,3.6405,3.6405,3.6405,3.6405,3.6405,3.6405,3.6405,3.6405,3.6405,3.6405,3.6405,3.6405,3.6405,3.6405,3.6405,3.6405,3.6405,3.6405,0.0,0.0,0.0,0.0,0.0,3.7569,3.7854,3.79,3.8675,3.9607,4.0504,4.0887,4.1506,4.2648,4.2875,4.3076,4.329,4.329,4.329,4.329,4.329,4.329,4.329,4.329,4.329,4.3305,4.4661,4.5289,4.5349,4.6696,4.7309,4.7309,4.7309,4.7309,4.7309,4.7309,4.7309,4.7309,4.7309,4.7309,4.7309,4.7309,4.7309,4.7309,3.6405,3.6405,3.6405,3.6405,3.6405,3.6405,3.6405,3.6405,3.6405,3.6405,3.6405,3.6405,3.6405,3.6405,3.6405,3.6405,3.6405,3.6405,3.6405,3.6405,3.6405,3.6405,3.6405,3.6405,3.6405,3.6405,3.6405,3.6405,3.6405,3.6722,3.7315,3.7625,3.8115,3.8765,3.9724,4.0116,4.0202,4.117,4.1409,4.1142,4.1451,4.1409,4.0958,3.9694,3.921,3.9166,3.8854,3.872,3.8675,3.836,3.827,3.8134,3.7533,3.7315,3.7222,3.6593,3.6405,3.6405,3.6405,3.6405,3.6405,3.6405,3.6405,3.6405,3.6405,3.6405,3.6405,3.6405,3.6405,3.6405,3.6405,3.6405,0.0,0.0,0.0,0.0,0.0,3.6801,3.6862,3.6862,3.8225,3.9329,3.9637,4.0303,4.1226,4.2418,4.2688,4.289,4.3076,4.325,4.329,4.329,4.329,4.329,4.329,4.329,4.329,4.3305,4.4661,4.5289,4.5349,4.6696,4.7309,4.7309,4.7309,4.7309,4.7309,4.7309,4.7309,4.7309,4.7309,4.7309,4.7309,4.7309,4.7309,4.7309,3.6405,3.6405,3.6405,3.6405,3.6405,3.6405,3.6405,3.6405,3.6405,3.6405,3.6405,3.6405,3.6405,3.6405,3.6405,3.6405,3.6405,3.6405,3.6405,3.6405,3.6405,3.6405,3.6405,3.6405,3.6405,3.6405,3.6405,3.6405,3.6722,3.7222,3.7808,3.8464,3.9121,3.9724,4.0703,4.1113,4.1156,4.1814,4.2092,4.2092,4.2092,4.2092,4.1953,4.0702,4.0244,4.0187,3.9826,3.9681,3.9637,3.9285,3.921,3.9077,3.8509,3.8283,3.8115,3.7176,3.7116,3.7256,3.6593,3.6628,3.6815,3.6499,3.6405,3.6405,3.6405,3.6405,3.6405,3.6405,3.6405,3.6405,3.6405,3.6405,0.0,0.0,0.0,0.0,0.0,3.6405,3.6405,3.6405,3.7474,3.845,3.9166,3.9461,4.0389,4.2269,4.2281,4.2456,4.2981,4.321,4.329,4.329,4.329,4.329,4.329,4.329,4.329,4.3305,4.4661,4.5289,4.5349,4.6696,4.7309,4.7309,4.7309,4.7309,4.7309,4.7309,4.7309,4.7309,4.7309,4.7309,4.7309,4.7309,4.7309,4.7309,3.6405,3.6405,3.6405,3.6452,3.6452,3.6405,3.6405,3.6405,3.6405,3.6405,3.6405,3.6405,3.6405,3.6405,3.6405,3.6405,3.6405,3.6405,3.6405,3.6405,3.6405,3.6405,3.6405,3.6405,3.6405,3.6405,3.6405,3.6452,3.7361,3.7854,3.7978,3.9768,4.0646,4.0731,4.1675,4.2092,4.2092,4.2092,4.2092,4.2092,4.2092,4.2092,4.2092,4.2092,4.2092,4.1953,4.1015,4.0689,4.056,3.9637,3.9343,3.9329,3.9285,3.9285,3.9077,3.816,3.8509,3.881,3.7023,3.7176,3.7671,3.6769,3.6499,3.6452,3.6452,3.6452,3.6405,3.6405,3.6405,3.6405,3.6405,3.6405,3.6405,0.0,0.0,0.0,3.6405,3.6405,3.6405,3.6405,3.6452,3.7163,3.8944,3.8373,3.9077,4.2075,4.1701,4.1838,4.2941,4.317,4.329,4.329,4.329,4.329,4.329,4.329,4.329,4.3305,4.4661,4.5289,4.5349,4.6696,4.7309,4.7309,4.7309,4.7309,4.7309,4.7309,4.7309,4.7309,4.7309,4.7309,4.7309,4.7309,4.7309,4.7309,3.6405,3.6405,3.664,3.7315,3.6862,3.6405,3.6405,3.6405,3.6405,3.6405,3.6405,3.6405,3.6405,3.6405,3.6405,3.6405,3.6405,3.6405,3.6405,3.6405,3.6405,3.6405,3.6405,3.6405,3.6405,3.6405,3.6722,3.7441,3.7671,3.8509,3.9899,4.0375,4.1015,4.1717,4.1995,4.2092,4.2092,4.2092,4.2092,4.2092,4.2092,4.2092,4.2092,4.2092,4.2092,4.2051,4.1814,4.1717,4.1675,4.1451,4.1367,4.1241,4.0489,4.0246,4.0073,3.9121,3.9033,3.9108,3.863,3.8675,3.8765,3.8541,3.7978,3.7441,3.7441,3.6909,3.6405,3.6405,3.6405,3.6405,3.6405,3.6405,3.6405,0.0,0.0,0.0,3.6405,3.6405,3.6405,3.6405,3.7002,3.7625,3.8115,3.8554,3.9475,4.0958,4.1715,4.2322,4.2754,4.2955,4.3155,4.329,4.329,4.329,4.329,4.329,4.329,4.3305,4.4661,4.5289,4.5349,4.6696,4.7309,4.7309,4.7309,4.7309,4.7309,4.7309,4.7309,4.7309,4.7309,4.7309,4.7309,4.7309,4.7309,4.7309,3.6989,3.7428,3.7906,3.8328,3.7704,3.7116,3.7036,3.6989,3.6989,3.6989,3.6628,3.6546,3.6956,3.664,3.6405,3.6405,3.6405,3.6405,3.6405,3.6405,3.6405,3.6405,3.6405,3.6405,3.6405,3.6405,3.6862,3.7808,3.8206,3.9166,4.0603,4.1057,4.1577,4.2092,4.2092,4.2092,4.2092,4.2092,4.2092,4.2092,4.2092,4.2092,0.0,4.2092,4.2092,4.2092,4.2092,4.2092,4.2092,4.2092,4.2092,4.2009,4.1437,4.1254,4.1071,4.0087,4.0144,4.0287,3.9431,3.9505,3.9724,3.9285,3.881,3.8419,3.8419,3.8011,3.7599,3.7599,3.7302,3.6989,3.6989,3.6675,3.6405,3.6405,3.6405,3.6405,3.6405,3.6405,3.6405,3.6405,3.6862,3.7176,3.7176,3.8405,3.9417,3.9942,4.1113,4.1895,4.2087,4.2659,4.3076,4.329,4.329,4.329,4.329,4.329,4.3439,4.3738,4.4811,4.5454,4.5783,4.683,4.7309,4.7309,4.7309,4.7309,4.7309,4.7309,4.7309,4.7309,4.7309,4.7309,4.7309,4.7309,4.7309,4.7309,3.8024,3.8872,3.9522,3.9461,3.8827,3.8211,3.8056,3.7808,3.7625,3.7625,3.6909,3.6722,3.7533,3.6909,3.6405,3.6405,3.6405,3.6405,3.6405,3.6405,3.6405,3.6405,3.6405,3.6405,3.6405,3.6405,3.6896,3.7978,3.881,3.9724,4.0831,4.1675,4.2092,4.2092,4.2092,4.2092,4.2092,4.2092,4.2092,4.2092,4.2092,4.2092,4.2092,4.2092,4.2092,4.2092,4.2092,4.2092,4.2092,4.2092,4.2092,4.2092,4.2092,4.2092,4.1912,4.1057,4.1437,4.1731,4.0057,4.0173,4.0617,3.9782,3.9475,3.9373,3.9373,3.9285,3.921,3.921,3.8554,3.7978,3.7978,3.7222,3.6546,3.6405,3.6405,3.6405,3.6405,3.6405,3.6405,3.6405,3.6499,0.0,3.6405,3.8011,3.9033,3.9033,4.023,4.1057,4.1296,4.236,4.3076,4.329,4.329,4.329,4.329,4.329,4.3618,4.4332,4.4975,4.5663,4.6309,4.701,4.7309,4.7309,4.7309,4.7309,4.7309,4.7309,4.7309,4.7309,4.7309,4.7309,4.7309,4.7309,4.7309,4.7309,3.9329,3.9681,4.0059,4.0802,4.0002,3.9244,3.9214,3.7769,3.664,3.664,3.6499,3.6452,3.664,3.6499,3.6405,3.6405,3.6405,3.6405,3.6405,3.6405,3.6405,3.6405,3.6405,3.6405,3.6405,3.6405,3.7256,3.8944,3.9121,4.01,4.1856,4.2009,4.2092,4.2092,4.2092,4.2092,4.2092,4.2092,4.2092,4.2092,4.2092,4.2092,4.2092,4.2092,4.2092,4.2092,4.2092,4.2092,4.2092,4.2092,4.2092,4.2092,4.2092,4.2092,4.2051,4.1912,4.1953,4.2009,4.1689,4.1731,4.1814,4.1633,4.0986,4.0332,4.0332,3.9768,3.921,3.921,3.9077,3.8944,3.8944,3.8192,3.7315,3.6546,3.6405,3.6405,3.6405,3.6405,3.6405,3.6405,3.7083,3.7268,3.6499,3.7394,3.8069,3.8069,3.9694,4.0859,4.1296,4.2211,4.293,4.329,4.329,4.329,4.329,4.329,4.3618,4.4332,4.4975,4.5663,4.6309,4.701,4.7309,4.7309,4.7309,4.7309,4.7309,4.7309,4.7309,4.7309,4.7309,4.7309,4.7309,4.7309,4.7309,4.7309,4.1155,4.1463,4.1407,4.1184,4.0332,3.9434,3.8738,3.7335,3.6593,3.7036,3.6675,3.6593,3.7083,3.6675,3.6405,3.6405,3.6405,3.6405,3.6405,3.6405,3.6405,3.6405,3.6405,3.6405,3.6405,3.6405,3.7335,3.921,3.921,4.0187,4.2092,4.2092,4.2092,4.2092,4.2092,4.2092,4.2092,4.2092,4.2092,4.2092,4.2092,4.2175,4.2242,4.2242,4.2325,4.2392,4.2284,4.2242,4.2242,4.2133,4.2092,4.2092,4.2092,4.2092,4.2092,4.2092,4.2092,4.2092,4.2092,4.2092,4.2092,4.2092,4.1731,4.1395,4.1395,4.1043,4.0688,4.0688,4.0273,3.9768,3.9285,3.8419,3.7625,3.7176,3.6734,3.6405,3.6405,3.6405,3.6405,3.6405,3.6815,3.6909,3.6452,3.6815,3.7302,3.7919,3.9579,4.0845,4.1435,4.2237,4.289,4.329,4.329,4.329,4.329,4.329,4.3798,4.4825,4.5155,4.5828,4.6845,4.716,4.7309,4.7309,4.7309,4.7309,4.7309,4.7309,4.7309,4.7309,4.7309,4.7309,4.7309,4.7309,4.7309,4.7309,4.2374,4.2603,4.2304,4.1057,4.0073,3.9152,3.8115,3.7222,3.6956,3.7717,3.7176,3.6989,3.7717,3.7129,3.664,3.6405,3.6405,3.6405,3.6405,3.6593,3.6675,3.6675,3.6675,3.6675,3.6675,3.6675,3.752,3.921,3.9417,4.0374,4.2092,4.2092,4.2092,4.2092,4.2092,4.2092,4.2092,4.2092,4.2092,4.2092,4.2092,4.2201,4.2392,4.2392,4.2541,4.2688,4.25,4.2459,4.2433,4.2284,4.2216,4.2175,4.2175,4.2175,4.2175,4.2092,4.2092,4.2092,4.2092,4.2092,4.2092,4.2092,4.2092,4.2092,4.2092,4.2092,4.2092,4.2092,4.1479,4.0617,3.9681,3.8899,3.8251,3.7854,3.7176,3.664,3.6452,3.6405,3.6405,3.6405,3.6405,3.6499,3.6675,3.6675,3.7163,3.8334,3.961,4.0618,4.1211,4.2155,4.289,4.329,4.325,4.325,4.329,4.3424,4.4122,4.5289,4.5439,4.6142,4.7309,4.7309,4.7309,4.7309,4.7309,4.7309,4.7309,4.7309,4.7309,4.7309,4.7309,4.7309,4.7309,4.7309,4.7309,4.7309,4.185,4.1726,4.142,4.0462,3.9156,3.8302,3.8419,3.7978,3.7717,3.7808,3.7717,3.7717,3.7808,3.7717,3.7315,3.6452,3.6405,3.6405,3.6405,3.7176,3.7671,3.7671,3.7671,3.7671,3.7671,3.7671,3.8147,3.921,4.0029,4.1029,4.2092,4.2092,4.2092,4.2092,4.2092,4.2092,4.2092,4.2092,4.2092,4.2092,4.2092,4.2201,4.2392,4.2392,4.2541,4.2688,4.2688,4.2648,4.2648,4.2662,4.25,4.2351,4.2351,4.2351,4.2325,4.2133,4.2092,4.2092,4.2092,4.2092,4.2092,4.2092,4.2092,4.2092,4.2092,4.2092,4.2092,4.2092,4.2051,4.1675,4.0646,4.0375,3.9768,3.8069,3.7717,3.7361,3.6499,3.6405,3.6405,3.6405,3.6405,3.6722,3.7592,3.7671,3.8134,3.9288,3.9508,3.9741,4.0015,4.1728,4.289,4.329,4.3115,4.3115,4.329,4.3888,4.4586,4.5304,4.5933,4.6606,4.7309,4.7309,4.7309,4.7309,4.7309,4.7309,4.7309,4.7309,4.7309,4.7309,4.7309,4.7309,4.7309,4.7309,4.7309,4.7309,4.0845,4.0901,4.0675,3.9607,3.9404,3.9169,3.8585,3.881,3.9241,3.9812,3.9271,3.8783,3.863,3.8899,3.8841,3.8289,3.8243,3.8243,3.8243,3.8482,3.8644,3.8644,3.8644,3.8644,3.8644,3.8644,3.9121,4.0029,4.0418,4.1113,4.2092,4.2092,4.2092,4.2092,4.2092,4.2092,4.2092,4.2092,4.2092,4.2092,4.2242,4.2392,4.2581,4.2729,4.289,4.305,4.2915,4.2875,4.2875,4.2875,4.2729,4.2581,4.2581,4.2581,4.2541,4.2366,4.2284,4.2242,4.2133,4.2092,4.2092,4.2092,4.2092,4.2092,4.2092,4.2092,4.2092,4.2092,4.2092,4.1968,4.1577,4.1015,4.0332,3.9593,3.9033,3.8496,3.8134,3.8102,3.8102,3.8102,3.8102,3.8225,3.8585,3.8115,3.8238,3.9227,3.9842,4.0318,4.0731,4.199,4.285,4.3115,4.3155,4.321,4.329,4.3947,4.4646,4.5304,4.5992,4.6666,4.7309,4.7309,4.7309,4.7309,4.7309,4.7309,4.7309,4.7309,4.7309,4.7309,4.7309,4.7309,4.7309,4.7309,4.7309,4.7309,3.9871,3.9986,3.9839,3.9029,3.9329,3.9522,3.905,3.9768,4.0546,4.1212,4.0873,4.0347,3.9855,4.0116,4.0102,3.9653,3.961,3.961,3.961,3.9681,3.9738,3.9738,3.9637,3.9593,3.9593,3.9593,3.9942,4.0603,4.0916,4.1395,4.2092,4.2092,4.2092,4.2092,4.2092,4.2133,4.2216,4.2216,4.2201,4.2284,4.2433,4.2622,4.2795,4.2955,4.3115,4.329,4.3155,4.3076,4.3076,4.3076,4.2996,4.285,4.2809,4.2809,4.2729,4.2474,4.2392,4.2366,4.2133,4.2092,4.2092,4.2092,4.2092,4.2092,4.2092,4.2092,4.2092,4.2092,4.2092,4.2092,4.2092,4.1535,4.0916,4.0646,4.0029,3.9505,3.9241,3.921,3.921,3.921,3.921,3.9285,3.9593,3.9033,3.8944,3.9651,4.0617,4.1169,4.1296,4.2211,4.2809,4.3076,4.3155,4.3339,4.3574,4.4272,4.493,4.5603,4.6292,4.686,4.7309,4.7309,4.7309,4.7309,4.7309,4.7309,4.7309,4.7309,4.7309,4.7309,4.7309,4.7309,4.7309,4.7309,4.7309,4.7309,3.9162,3.8908,3.8908,3.8908,3.8702,3.8885,4.0031,4.0788,4.1296,4.1296,4.2263,4.2522,4.138,4.1296,4.0901,3.9986,3.9899,3.9899,3.9899,4.0589,4.1001,4.1001,4.0703,4.0589,4.0589,4.0589,4.0603,4.0603,4.1591,4.2092,4.2092,4.2092,4.2092,4.2092,4.2092,4.2201,4.2392,4.2392,4.25,4.2688,4.2703,4.2795,4.2981,4.2981,4.3115,4.329,4.329,4.329,4.329,4.329,4.329,4.325,4.3076,4.2981,4.2915,4.25,4.2392,4.2366,4.2133,4.2092,4.2092,4.2092,4.2092,4.2092,4.2092,4.2092,4.2092,4.2092,4.2092,4.2092,4.2092,4.2092,4.1773,4.0774,4.0603,4.0246,3.9329,3.921,3.921,3.921,3.921,3.9549,4.0504,4.0546,4.0703,4.0958,4.1868,4.2075,4.1338,4.2211,4.289,4.329,4.3115,4.3428,4.4302,4.4945,4.5618,4.6279,4.698,4.7294,4.7309,4.7309,4.7309,4.7309,4.7309,4.7309,4.7309,4.7309,4.7309,4.7309,4.7309,4.7309,4.7309,4.7309,4.7309,4.7309,3.9885,3.9942,4.0043,4.0043,4.0518,4.1029,4.1365,4.214,4.2659,4.2659,4.2996,4.3076,4.2699,4.2659,4.2482,4.2044,4.2003,4.2003,4.2003,4.2114,4.2184,4.2184,4.2087,4.2032,4.2032,4.2032,4.2032,4.2032,4.2363,4.2433,4.2325,4.2175,4.2175,4.2325,4.2325,4.2433,4.2622,4.2622,4.2662,4.2729,4.2835,4.2955,4.3036,4.3155,4.325,4.329,4.329,4.329,4.329,4.329,4.329,4.329,4.321,4.321,4.317,4.289,4.2795,4.2729,4.2392,4.2325,4.2284,4.2133,4.2092,4.2092,4.2092,4.2092,4.2092,4.2092,4.2092,4.2092,4.2092,4.2092,4.2009,4.1675,4.1619,4.1535,4.1241,4.1184,4.1184,4.1184,4.1184,4.1353,4.1771,4.124,4.124,4.2087,4.184,4.1561,4.1296,4.2319,4.2955,4.3076,4.3155,4.3563,4.4302,4.496,4.5648,4.6294,4.6995,4.7309,4.7309,4.7309,4.7309,4.7309,4.7309,4.7309,4.7309,4.7309,4.7309,4.7309,4.7309,4.7309,4.7309,4.7309,4.7309,4.7309,4.0347,4.0504,4.0731,4.1071,4.1603,4.2114,4.2456,4.2955,4.329,4.329,4.329,4.329,4.329,4.329,4.325,4.3115,4.3115,4.3115,4.3115,4.2915,4.2795,4.2795,4.2729,4.2688,4.2688,4.2688,4.2688,4.2688,4.2688,4.2622,4.25,4.2392,4.2392,4.25,4.25,4.2607,4.2795,4.2795,4.285,4.293,4.3076,4.3115,4.3115,4.325,4.329,4.329,4.329,4.329,4.329,4.329,4.329,4.329,4.329,4.329,4.325,4.3076,4.2981,4.2915,4.25,4.2392,4.2351,4.2133,4.2092,4.2092,4.2092,4.2092,4.2092,4.2092,4.2092,4.2092,4.2092,4.2092,4.2092,4.2092,4.2092,4.2092,4.2092,4.2092,4.2133,4.2201,4.2201,4.2284,4.2514,4.1978,4.1964,4.2754,4.2278,4.1976,4.2058,4.2644,4.3036,4.3115,4.3489,4.4018,4.4676,4.5349,4.6022,4.6696,4.7115,4.7309,4.7309,4.7309,4.7309,4.7309,4.7309,4.7309,4.7309,4.7309,4.7309,4.7309,4.7309,4.7309,4.7309,4.7309,4.7309,4.7309,4.0774,4.0774,4.1071,4.1949,4.2073,4.2374,4.317,4.329,4.329,4.329,4.329,4.329,4.329,4.329,4.329,4.329,4.329,4.329,4.329,4.3115,4.3036,4.3036,4.285,4.2729,4.2729,4.2729,4.2729,4.2729,4.2729,4.2729,4.2729,4.2688,4.2688,4.2729,4.2729,4.285,4.3036,4.3036,4.3115,4.329,4.329,4.329,4.329,4.329,4.329,4.329,4.329,4.329,4.329,4.329,4.329,4.329,4.329,4.329,4.325,4.3076,4.3036,4.2955,4.2541,4.2433,4.2392,4.2216,4.2133,4.2133,4.2133,4.2133,4.2133,4.2092,4.2092,4.2092,4.2092,4.2092,4.2092,4.2092,4.2092,4.2092,4.2133,4.2133,4.2216,4.2392,4.2433,4.2514,4.2688,4.2729,4.2795,4.2996,4.3036,4.3115,4.329,4.316,4.319,4.3364,4.3947,4.4646,4.5364,4.6007,4.6651,4.7309,4.7309,4.7309,4.7309,4.7309,4.7309,4.7309,4.7309,4.7309,4.7309,4.7309,4.7309,4.7309,4.7309,4.7309,4.7309,4.7309,4.7309,4.7309,4.2644,4.2644,4.2739,4.2955,4.2996,4.3036,4.325,4.329,4.329,4.329,4.329,4.329,4.329,4.329,4.329,4.329,4.329,4.329,4.329,4.325,4.325,4.325,4.317,4.317,4.317,4.317,4.317,4.317,4.2996,4.2915,4.2915,4.2769,4.2769,4.2915,4.2915,4.3036,4.325,4.325,4.325,4.329,4.329,4.329,4.329,4.329,4.329,4.329,4.329,4.329,4.329,4.329,4.329,4.329,4.329,4.329,4.329,4.325,4.325,4.3155,4.2915,4.2835,4.2795,4.2622,4.2541,4.25,4.2351,4.231,4.2284,4.2133,4.2092,4.2092,4.2092,4.2092,4.2092,4.2092,4.2092,4.2133,4.2325,4.231,4.2392,4.2622,4.2607,4.2688,4.2915,4.2915,4.2996,4.321,4.325,4.325,4.329,4.3728,4.3997,4.4077,4.4227,4.4885,4.6067,4.6204,4.6651,4.7309,4.7309,4.7309,4.7309,4.7309,4.7309,4.7309,4.7309,4.7309,4.7309,4.7309,4.7309,4.7309,4.7309,4.7309,4.7309,4.7309,4.7309,4.7309,4.329,4.329,4.329,4.329,4.329,4.329,4.329,4.329,4.329,4.329,4.329,4.329,4.329,4.329,4.329,4.329,4.329,4.329,4.329,4.329,4.329,4.329,4.329,4.329,4.329,4.329,4.329,4.329,4.321,4.3155,4.3115,4.305,4.305,4.3155,4.3155,4.321,4.329,4.329,4.329,4.329,4.329,4.329,4.329,4.329,4.329,4.329,4.329,4.329,4.329,4.329,4.329,4.329,4.329,4.329,4.329,4.329,4.329,4.325,4.3036,4.2981,4.2941,4.2769,4.2688,4.2648,4.2581,4.2474,4.2351,4.2242,4.2175,4.2092,4.2092,4.2092,4.2092,4.2092,4.2175,4.2284,4.2392,4.2459,4.2622,4.2795,4.285,4.2915,4.3115,4.3155,4.317,4.329,4.329,4.3424,4.3723,4.4122,4.4317,4.4317,4.4874,4.5574,4.6264,4.6621,4.695,4.7309,4.7309,4.7309,4.7309,4.7309,4.7309,4.7309,4.7309,4.7309,4.7309,4.7309,4.7309,4.7309,4.7309,4.7309,4.7309,4.7309,4.7309,4.7309,4.329,4.329,4.329,4.329,4.329,4.329,4.329,4.329,4.329,4.329,4.329,4.329,4.329,4.329,4.329,4.329,4.329,4.329,4.329,4.329,4.329,4.329,4.329,4.329,4.329,4.329,4.329,4.329,4.329,4.329,4.329,4.329,4.329,4.329,4.329,4.329,4.329,4.329,4.329,4.329,4.329,4.329,4.329,4.329,4.329,4.329,4.329,4.329,4.329,4.329,4.329,4.329,4.329,4.329,4.329,4.329,4.329,4.325,4.3076,4.3036,4.2996,4.285,4.2809,4.2769,4.2769,4.2581,4.2433,4.2392,4.2242,4.2133,4.2133,4.2175,4.2175,4.2133,4.231,4.2433,4.2433,4.2622,4.2795,4.3036,4.3036,4.3115,4.329,4.329,4.329,4.329,4.3379,4.3678,4.4287,4.4511,4.4616,4.4616,4.5696,4.6324,4.6429,4.7025,4.7309,4.7309,4.7309,4.7309,4.7309,4.7309,4.7309,4.7309,4.7309,4.7309,4.7309,4.7309,4.7309,4.7309,4.7309,4.7309,4.7309,4.7309,4.7309,4.7309,4.329,4.329,4.329,4.329,4.329,4.329,4.329,4.329,4.329,4.329,4.329,4.329,4.329,4.329,4.329,4.329,4.329,4.329,4.329,4.329,4.329,4.329,4.329,4.329,4.329,4.329,4.329,4.329,4.329,4.329,4.329,4.329,4.329,4.329,4.329,4.329,4.329,4.329,4.329,4.329,4.329,4.329,4.329,4.329,4.329,4.329,4.329,4.329,4.329,4.329,4.329,4.329,4.329,4.329,4.329,4.329,4.329,4.329,4.325,4.325,4.325,4.321,4.321,4.317,4.2996,4.2809,4.2622,4.2433,4.2392,4.2351,4.2351,4.2514,4.2541,4.2392,4.25,4.2648,4.2648,4.285,4.3036,4.325,4.325,4.325,4.329,4.329,4.329,4.329,4.3798,4.4212,4.4302,4.5394,4.5965,4.5965,4.6175,4.6591,4.7145,4.7249,4.7309,4.7309,4.7309,4.7309,4.7309,4.7309,4.7309,4.7309,4.7309,4.7309,4.7309,4.7309,4.7309,4.7309,4.7309,4.7309,4.7309,4.7309,4.7309,4.7309,4.329,4.329,4.329,4.329,4.329,4.329,4.329,4.329,4.329,4.329,4.329,4.329,4.329,4.329,4.329,4.329,4.329,4.329,4.329,4.329,4.329,4.329,4.329,4.329,4.329,4.329,4.329,4.329,4.329,4.329,4.329,4.329,4.329,4.329,4.329,4.329,4.329,4.329,4.329,4.329,4.329,4.329,4.329,4.329,4.329,4.329,4.329,4.329,4.329,4.329,4.329,4.329,4.329,4.329,4.329,4.329,4.329,4.329,4.329,4.329,4.329,4.329,4.329,4.329,4.317,4.301,4.285,4.2729,4.2662,4.2581,4.2581,4.2662,4.2648,4.2581,4.2729,4.2875,4.2875,4.3036,4.321,4.329,4.329,4.329,4.329,4.329,4.3439,4.3798,4.4152,4.4631,4.5364,4.5935,4.6486,4.6845,4.686,4.6995,4.7309,4.7309,4.7309,4.7309,4.7309,4.7309,4.7309,4.7309,4.7309,4.7309,4.7309,4.7309,4.7309,4.7309,4.7309,4.7309,4.7309,4.7309,4.7309,4.7309,4.7309,4.7309,4.329,4.329,4.329,4.329,4.329,4.329,4.329,4.329,4.329,4.329,4.329,4.329,4.329,4.329,4.329,4.329,4.329,4.329,4.329,4.329,4.329,4.329,4.329,4.329,4.329,4.329,4.329,4.329,4.329,4.329,4.329,4.329,4.329,4.329,4.329,4.329,4.329,4.329,4.329,4.329,4.329,4.329,4.329,4.329,4.329,4.329,4.329,4.329,4.329,4.329,4.329,4.329,4.329,4.329,4.329,4.329,4.329,4.329,4.329,4.329,4.329,4.329,4.329,4.329,4.329,4.3155,4.2981,4.2981,4.2875,4.2769,4.2769,4.2809,4.2809,4.2769,4.2915,4.3036,4.3036,4.3155,4.329,4.329,4.329,4.329,4.329,4.3424,4.3738,4.4272,4.4601,4.5188,4.6277,4.6429,4.6785,4.7294,4.7309,4.7309,4.7309,4.7309,4.7309,4.7309,4.7309,4.7309,4.7309,4.7309,4.7309,4.7309,4.7309,4.7309,4.7309,4.7309,4.7309,4.7309,4.7309,4.7309,4.7309,4.7309,4.7309,4.7309,4.329,4.329,4.329,4.329,4.329,4.329,4.329,4.329,4.329,4.329,4.329,4.329,4.329,4.329,4.329,4.329,4.329,4.329,4.329,4.329,4.329,4.329,4.329,4.329,4.329,4.329,4.329,4.329,4.329,4.329,4.329,4.329,4.329,4.329,4.329,4.329,4.329,4.329,4.329,4.329,4.329,4.329,4.329,4.329,4.329,4.329,4.329,4.329,4.329,4.329,4.329,4.329,4.329,4.329,4.329,4.329,4.329,4.329,4.329,4.329,4.329,4.329,4.329,4.329,4.329,4.3155,4.2981,4.2981,4.2996,4.2996,4.2996,4.313,4.321,4.2996,4.317,4.321,4.3036,4.3155,4.329,4.329,4.329,4.329,4.329,4.3843,4.4272,4.4317,4.5427,4.6175,4.6279,4.6905,4.7249,4.7309,4.7309,4.7309,4.7309,4.7309,4.7309,4.7309,4.7309,4.7309,4.7309,4.7309,4.7309,4.7309,4.7309,4.7309,4.7309,4.7309,4.7309,4.7309,4.7309,4.7309,4.7309,4.7309,4.7309,4.7309,4.329,4.329,4.329,4.329,4.329,4.329,4.329,4.329,4.329,4.329,4.329,4.329,4.329,4.329,4.329,4.329,4.329,4.329,4.329,4.329,4.329,4.329,4.329,4.329,4.329,4.329,4.329,4.329,4.329,4.329,4.329,4.329,4.329,4.329,4.329,4.329,4.329,4.329,4.329,4.329,4.329,4.329,4.329,4.329,4.329,4.329,4.329,4.329,4.329,4.329,4.329,4.329,4.329,4.329,4.329,4.329,4.329,4.329,4.329,4.329,4.329,4.329,4.329,4.329,4.329,4.325,4.321,4.321,4.321,4.321,4.321,4.325,4.325,4.321,4.325,4.325,4.321,4.325,4.329,4.329,4.329,4.3454,4.3898,4.4167,4.4661,4.5499,4.5995,4.6459,4.692,4.7174,4.7309,4.7309,4.7309,4.7309,4.7309,4.7309,4.7309,4.7309,4.7309,4.7309,4.7309,4.7309,4.7309,4.7309,4.7309,4.7309,4.7309,4.7309,4.7309,4.7309,4.7309,4.7309,4.7309,4.7309,4.7309,4.7309,4.329,4.329,4.329,4.329,4.329,4.329,4.329,4.329,4.329,4.329,4.329,4.329,4.329,4.329,4.329,4.329,4.329,4.329,4.329,4.329,4.329,4.329,4.329,4.329,4.329,4.329,4.329,4.329,4.329,4.329,4.329,4.329,4.329,4.329,4.329,4.329,4.329,4.329,4.329,4.329,4.329,4.329,4.329,4.329,4.329,4.329,4.329,4.329,4.329,4.329,4.329,4.329,4.329,4.329,4.329,4.329,4.329,4.329,4.329,4.329,4.329,4.329,4.329,4.329,4.329,4.329,4.329,4.329,4.329,4.329,4.329,4.329,4.329,4.329,4.329,4.329,4.329,4.329,4.329,4.329,4.3484,4.3783,4.4272,4.4691,4.5334,4.6204,4.6516,4.683,4.7279,4.7309,4.7309,4.7309,4.7309,4.7309,4.7309,4.7309,4.7309,4.7309,4.7309,4.7309,4.7309,4.7309,4.7309,4.7309,4.7309,4.7309,4.7309,4.7309,4.7309,4.7309,4.7309,4.7309,4.7309,4.7309,4.7309,4.7309,4.329,4.329,4.329,4.329,4.329,4.329,4.329,4.329,4.329,4.329,4.329,4.329,4.329,4.329,4.329,4.329,4.329,4.329,4.329,4.329,4.329,4.329,4.329,4.329,4.329,4.329,4.329,4.329,4.329,4.329,4.329,4.329,4.329,4.329,4.329,4.329,4.329,4.329,4.329,4.329,4.329,4.329,4.329,4.329,4.329,4.329,4.329,4.329,4.329,4.329,4.329,4.329,4.329,4.329,4.329,4.329,4.329,4.329,4.329,4.329,4.329,4.329,4.329,4.329,4.329,4.329,4.329,4.329,4.329,4.329,4.329,4.329,4.329,4.329,4.329,4.329,4.329,4.329,4.329,4.329,4.3873,4.4317,4.4332,4.5544,4.6279,4.6294,4.6935,4.7309,4.7309,4.7309,4.7309,4.7309,4.7309,4.7309,4.7309,4.7309,4.7309,4.7309,4.7309,4.7309,4.7309,4.7309,4.7309,4.7309,4.7309,4.7309,4.7309,4.7309,4.7309,4.7309,4.7309,4.7309,4.7309,4.7309,4.7309,4.7309,4.329,4.329,4.329,4.329,4.329,4.329,4.329,4.329,4.329,4.329,4.329,4.329,4.329,4.329,4.329,4.329,4.329,4.329,4.329,4.329,4.329,4.329,4.329,4.329,4.329,4.329,4.329,4.329,4.329,4.329,4.329,4.329,4.329,4.329,4.329,4.329,4.329,4.329,4.329,4.329,4.329,4.329,4.329,4.329,4.329,4.329,4.329,4.329,4.329,4.329,4.329,4.329,4.329,4.329,4.329,4.329,4.329,4.329,4.329,4.329,4.329,4.329,4.329,4.329,4.329,4.329,4.329,4.329,4.329,4.329,4.329,4.329,4.329,4.329,4.329,4.329,4.329,4.329,4.329,4.329,4.3873,4.4496,4.496,4.5798,4.6516,4.698,4.7189,4.7309,4.7309,4.7309,4.7309,4.7309,4.7309,4.7309,4.7309,4.7309,4.7309,4.7309,4.7309,4.7309,4.7309,4.7309,4.7309,4.7309,4.7309,4.7309,4.7309,4.7309,4.7309,4.7309,4.7309,4.7309,4.7309,4.7309,4.7309,4.7309,4.329,4.329,4.329,4.329,4.329,4.329,4.329,4.329,4.329,4.329,4.329,4.329,4.329,4.329,4.329,4.329,4.329,4.329,4.329,4.329,4.329,4.329,4.329,4.329,4.329,4.329,4.329,4.329,4.329,4.329,4.329,4.329,4.329,4.329,4.329,4.329,4.329,4.329,4.329,4.329,4.329,4.329,4.329,4.329,4.329,4.329,4.329,4.329,4.329,4.329,4.329,4.329,4.329,4.329,4.329,4.329,4.329,4.329,4.329,4.329,4.329,4.329,4.329,4.329,4.329,4.329,4.329,4.329,4.329,4.329,4.329,4.329,4.329,4.329,4.329,4.329,4.329,4.329,4.3394,4.3648,4.4302,4.496,4.5633,4.6322,4.6875,4.7279,4.7309,4.7309,4.7309,4.7309,4.7309,4.7309,4.7309,4.7309,4.7309,4.7309,4.7309,4.7309,4.7309,4.7309,4.7309,4.7309,4.7309,4.7309,4.7309,4.7309,4.7309,4.7309,4.7309,4.7309,4.7309,4.7309,4.7309,4.7309,4.7309,4.7309,4.329,4.329,4.329,4.329,4.329,4.329,4.329,4.329,4.329,4.329,4.329,4.329,4.329,4.329,4.329,4.329,4.329,4.329,4.329,4.329,4.329,4.329,4.329,4.329,4.329,4.329,4.329,4.329,4.329,4.329,4.329,4.329,4.329,4.329,4.329,4.329,4.329,4.329,4.329,4.329,4.329,4.329,4.329,4.329,4.329,4.329,4.329,4.329,4.329,4.329,4.329,4.329,4.329,4.329,4.329,4.329,4.329,4.329,4.329,4.329,4.329,4.329,4.329,4.329,4.329,4.329,4.329,4.329,4.329,4.329,4.329,4.329,4.329,4.329,4.329,4.329,4.329,4.3349,4.3604,4.4242,4.4945,4.5633,4.6219,4.692,4.7309,4.7309,4.7309,4.7309,4.7309,4.7309,4.7309,4.7309,4.7309,4.7309,4.7309,4.7309,4.7309,4.7309,4.7309,4.7309,4.7309,4.7309,4.7309,4.7309,4.7309,4.7309,4.7309,4.7309,4.7309,4.7309,4.7309,4.7309,4.7309,4.7309,4.7309,4.7309,4.329,4.329,4.329,4.329,4.329,4.329,4.329,4.329,4.329,4.329,4.329,4.329,4.329,4.329,4.329,4.329,4.329,4.329,4.329,4.329,4.329,4.329,4.329,4.329,4.329,4.329,4.329,4.329,4.329,4.329,4.329,4.329,4.329,4.329,4.329,4.329,4.329,4.329,4.329,4.329,4.329,4.329,4.329,4.329,4.329,4.329,4.329,4.329,4.329,4.329,4.329,4.329,4.329,4.329,4.329,4.329,4.329,4.329,4.329,4.329,4.329,4.329,4.329,4.329,4.329,4.329,4.329,4.329,4.329,4.329,4.329,4.329,4.329,4.329,4.329,4.329,4.329,4.3738,4.4152,4.4302,4.5379,4.6115,4.6264,4.692,4.7309,4.7309,4.7309,4.7309,4.7309,4.7309,4.7309,4.7309,4.7309,4.7309,4.7309,4.7309,4.7309,4.7309,4.7309,4.7309,4.7309,4.7309,4.7309,4.7309,4.7309,4.7309,4.7309,4.7309,4.7309,4.7309,4.7309,4.7309,4.7309,4.7309,4.7309,4.7309,4.329,4.329,4.329,4.329,4.329,4.329,4.329,4.329,4.329,4.329,4.329,4.329,4.329,4.329,4.329,4.329,4.329,4.329,4.329,4.329,4.329,4.329,4.329,4.329,4.329,4.329,4.329,4.329,4.329,4.329,4.329,4.329,4.329,4.329,4.329,4.329,4.329,4.329,4.329,4.329,4.329,4.329,4.329,4.329,4.329,4.329,4.329,4.329,4.329,4.329,4.329,4.329,4.329,4.329,4.329,4.329,4.329,4.329,4.329,4.329,4.329,4.329,4.329,4.329,4.329,4.329,4.329,4.329,4.329,4.329,4.329,4.329,4.329,4.329,4.329,4.3409,4.3723,4.4092,4.4556,4.52,4.5846,4.6456,4.677,4.71,4.7309,4.7309,4.7309,4.7309,4.7309,4.7309,4.7309,4.7309,4.7309,4.7309,4.7309,4.7309,4.7309,4.7309,4.7309,4.7309,4.7309,4.7309,4.7309,4.7309,4.7309,4.7309,4.7309,4.7309,4.7309,4.7309,4.7309,4.7309,4.7309,4.7309,4.7309,4.7309,4.321,4.329,4.329,4.329,4.329,4.329,4.329,4.329,4.329,4.329,4.329,4.329,4.329,4.329,4.329,4.329,4.329,4.329,4.329,4.329,4.329,4.329,4.329,4.329,4.329,4.329,4.329,4.329,4.329,4.329,4.329,4.329,4.329,4.329,4.329,4.329,4.329,4.329,4.329,4.329,4.329,4.329,4.329,4.329,4.329,4.329,4.329,4.329,4.329,4.329,4.329,4.329,4.329,4.329,4.329,4.329,4.329,4.329,4.329,4.329,4.329,4.329,4.329,4.329,4.329,4.329,4.329,4.329,4.329,4.329,4.329,4.329,4.329,4.329,4.329,4.3529,4.4227,4.4407,4.4945,4.613,4.6384,4.6711,4.7249,4.7309,4.7309,4.7309,4.7309,4.7309,4.7309,4.7309,4.7309,4.7309,4.7309,4.7309,4.7309,4.7309,4.7309,4.7309,4.7309,4.7309,4.7309,4.7309,4.7309,4.7309,4.7309,4.7309,4.7309,4.7309,4.7309,4.7309,4.7309,4.7309,4.7309,4.7309,4.7309,4.7309,4.3036,4.317,4.329,4.329,4.329,4.329,4.329,4.329,4.329,4.329,4.329,4.329,4.329,4.329,4.329,4.329,4.329,4.329,4.329,4.329,4.329,4.329,4.329,4.329,4.329,4.329,4.329,4.329,4.329,4.329,4.329,4.329,4.329,4.329,4.329,4.329,4.329,4.329,4.329,4.329,4.329,4.329,4.329,4.329,4.329,4.329,4.329,4.329,4.329,4.329,4.329,4.329,4.329,4.329,4.329,4.329,4.329,4.329,4.329,4.329,4.329,4.329,4.329,4.329,4.329,4.329,4.329,4.329,4.329,4.329,4.329,4.329,4.329,4.329,4.329,4.3529,4.4227,4.4811,4.5454,4.619,4.683,4.7204,4.7294,4.7309,4.7309,4.7309,4.7309,4.7309,4.7309,4.7309,4.7309,4.7309,4.7309,4.7309,4.7309,4.7309,4.7309,4.7309,4.7309,4.7309,4.7309,4.7309,4.7309,4.7309,4.7309,4.7309,4.7309,4.7309,4.7309,4.7309,4.7309,4.7309,4.7309,4.7309,4.7309,4.7309,4.2835,4.309,4.325,4.3155,4.325,4.329,4.329,4.329,4.329,4.329,4.329,4.329,4.329,4.329,4.329,4.329,4.329,4.329,4.329,4.329,4.329,4.329,4.329,4.329,4.329,4.329,4.329,4.329,4.329,4.329,4.329,4.329,4.329,4.329,4.329,4.329,4.329,4.329,4.329,4.329,4.329,4.329,4.329,4.329,4.329,4.329,4.329,4.329,4.329,4.329,4.329,4.329,4.329,4.329,4.329,4.329,4.329,4.329,4.329,4.329,4.329,4.329,4.329,4.329,4.329,4.329,4.329,4.329,4.329,4.329,4.329,4.329,4.329,4.329,4.3604,4.4107,4.4766,4.5439,4.6112,4.68,4.713,4.7309,4.7309,4.7309,4.7309,4.7309,4.7309,4.7309,4.7309,4.7309,4.7309,4.7309,4.7309,4.7309,4.7309,4.7309,4.7309,4.7309,4.7309,4.7309,4.7309,4.7309,4.7309,4.7309,4.7309,4.7309,4.7309,4.7309,4.7309,4.7309,4.7309,4.7309,4.7309,4.7309,4.7309,4.7309]}]]